GFSSE_sfc_temp_000.txt.gz
Temp
85 86 74 76 76 75 75 75 75 75 75 76 76 76 75 75 75 75 74 75 75 76 77 77 77 78 79 78 78 77 77 76 76 78 77 79 79 78 77 76 76 85 76
86 86 73 75 76 76 75 75 75 76 76 75 75 76 75 75 74 74 74 74 75 76 76 77 77 77 78 77 76 76 76 75 75 76 77 78 79 78 77 76 75 81 76
87 87 86 74 76 76 76 75 76 76 76 76 76 76 76 75 75 74 73 73 74 75 76 76 77 77 77 75 73 74 74 74 74 75 77 87 89 78 77 75 76 76 76
86 87 86 73 75 76 75 75 75 75 75 75 75 75 75 75 74 73 73 73 73 74 75 76 75 74 74 73 72 72 73 73 73 74 85 86 84 78 77 76 76 75 75
86 86 84 73 73 74 74 75 75 75 75 74 74 74 74 74 73 73 72 72 73 73 73 74 73 73 72 71 71 71 72 73 72 76 86 86 88 79 77 76 76 75 74
86 86 77 72 73 73 74 73 73 73 72 72 73 73 74 73 72 72 71 71 72 72 72 72 71 71 70 70 71 71 71 71 71 87 85 83 82 77 77 75 75 75 74
86 86 85 71 72 73 73 73 73 72 72 72 72 72 72 72 72 71 71 71 70 70 71 70 70 70 69 69 70 70 70 70 82 86 86 83 81 75 76 74 74 74 74
85 84 85 73 72 72 72 72 71 71 71 71 71 72 71 70 70 70 70 70 69 69 69 69 69 68 68 68 68 67 67 68 79 84 81 83 71 73 75 73 72 73 73
86 86 86 85 78 70 70 70 70 70 70 70 70 70 69 69 69 69 69 69 69 68 68 68 68 67 67 67 67 66 66 67 81 83 82 83 70 72 73 71 70 70 72
85 86 84 83 85 83 83 69 69 69 69 69 70 69 68 69 69 68 68 69 68 68 67 67 66 66 66 66 66 65 66 69 81 83 86 79 69 72 73 72 70 68 70
84 83 83 84 83 84 85 79 70 69 69 69 71 69 70 84 81 78 67 67 67 66 66 65 64 64 64 64 64 64 66 82 80 83 84 67 69 71 72 72 70 70 70
82 83 84 82 82 82 86 84 83 82 86 84 83 80 83 80 80 76 72 66 66 65 65 64 63 64 67 80 80 70 81 78 80 80 81 65 67 70 71 71 71 71 70
85 86 84 81 81 81 84 87 88 87 85 85 80 79 81 79 80 80 80 80 79 69 79 75 77 78 74 75 77 76 77 76 80 81 72 65 67 69 70 70 70 71 70
86 86 85 83 81 80 85 86 87 85 85 83 83 79 79 80 79 78 79 79 78 78 76 77 77 73 73 73 73 73 74 76 81 82 72 64 65 67 69 69 70 70 70
85 85 84 84 82 82 80 84 82 81 83 81 81 81 80 79 78 79 78 79 78 78 77 76 76 75 73 73 73 73 73 74 75 79 80 63 63 64 66 68 68 69 69
86 86 85 84 82 83 82 81 81 83 82 82 82 81 78 78 77 78 78 79 79 79 79 77 76 75 75 74 73 73 73 74 74 74 79 74 62 63 64 66 67 67 68
88 87 85 84 84 82 81 82 83 85 81 82 82 79 78 78 78 77 78 78 79 79 76 76 74 74 74 75 72 73 73 72 74 73 75 77 70 61 62 64 65 65 66
87 85 86 84 84 82 82 83 85 86 82 82 82 80 78 77 77 76 77 77 78 77 77 76 75 74 73 73 73 74 74 74 73 72 74 74 76 77 63 62 63 63 64
86 84 85 84 84 82 81 83 82 80 82 84 82 82 79 78 77 76 77 77 76 76 76 75 74 73 72 73 73 74 74 74 73 75 74 72 72 74 76 60 61 61 62
84 84 86 85 82 81 84 81 82 81 82 81 81 80 78 78 76 75 76 75 75 74 74 75 72 74 73 72 74 74 73 73 74 73 73 74 74 72 73 72 72 70 61
80 82 83 81 76 80 82 78 80 77 79 80 80 76 75 75 75 73 74 74 74 73 72 71 71 70 70 72 68 69 71 72 70 72 73 74 73 72 72 72 73 75 72
79 80 78 77 77 77 80 78 76 74 77 76 78 76 76 73 73 73 72 72 72 72 70 70 69 68 69 71 66 66 63 68 71 70 72 72 70 73 71 70 69 68 69
74 75 76 76 75 74 75 77 78 78 77 75 74 74 73 71 72 71 71 70 69 69 69 69 69 67 66 69 69 64 61 60 66 72 68 70 69 68 70 68 67 67 67
73 74 74 74 74 73 72 72 69 70 68 69 70 71 71 71 70 70 69 68 67 68 66 67 69 67 66 64 68 69 66 65 59 58 66 66 68 66 66 67 66 66 66
72 71 72 73 73 72 71 70 70 68 68 70 69 67 68 70 69 69 66 65 65 66 65 63 63 63 63 63 63 63 59 62 62 57 58 59 65 66 66 64 64 64 65
72 71 71 72 71 70 70 68 65 64 65 66 66 65 67 67 67 66 64 64 63 62 62 61 60 58 58 57 57 55 55 47 51 54 55 58 59 62 63 63 62 63 64

GFSSE_sfc_temp_003.txt.gz
Temp
90 84 75 77 77 76 76 76 76 76 76 77 77 76 75 75 75 75 75 75 76 77 77 77 77 77 79 79 78 78 77 78 78 79 79 79 79 79 77 77 77 83 76
91 88 75 76 76 76 76 76 76 76 77 76 76 76 75 75 75 74 74 74 75 76 77 77 77 78 78 79 76 76 76 76 77 77 78 79 79 79 78 77 77 82 77
91 89 86 75 76 76 76 76 77 77 77 76 76 76 76 76 75 74 74 74 74 75 76 76 77 76 77 76 74 74 74 74 75 76 77 85 80 75 78 77 75 77 77
92 90 86 74 75 76 76 76 76 77 76 75 75 75 75 75 74 74 73 73 74 74 75 75 75 74 74 74 73 73 73 74 73 74 82 86 87 77 77 77 75 76 76
91 91 81 73 74 75 75 76 76 76 75 74 74 74 75 74 74 73 72 72 73 74 74 74 73 72 72 71 72 72 73 73 73 75 84 79 82 78 77 76 77 76 76
92 89 75 72 73 74 74 74 74 73 73 73 73 74 74 73 73 72 72 72 72 72 73 72 72 71 70 70 71 71 71 72 71 84 84 78 75 76 77 76 75 76 75
91 90 84 72 73 74 74 74 73 72 72 72 73 72 72 72 72 71 71 71 70 70 71 71 70 70 69 69 69 69 70 70 79 84 83 73 78 75 77 74 73 72 73
89 89 86 73 73 73 73 72 72 72 72 72 72 72 71 71 71 71 70 70 69 69 69 69 69 69 69 69 69 68 68 69 80 82 80 82 72 74 75 72 70 70 70
90 90 89 87 78 71 71 71 71 71 71 71 70 70 70 70 70 70 70 70 69 69 68 68 68 68 67 68 68 67 67 68 78 84 81 79 70 72 73 74 72 70 70
90 90 88 88 89 86 81 70 70 70 70 70 70 70 69 69 70 70 70 69 69 68 68 67 66 66 66 66 66 66 67 68 79 83 77 70 70 72 73 73 73 73 71
89 88 89 89 87 86 87 77 70 70 70 70 72 70 72 83 83 79 68 68 68 67 66 66 65 65 66 66 66 67 67 80 80 83 75 67 69 71 72 71 72 71 71
85 88 88 87 86 85 89 85 84 84 85 84 84 82 85 82 82 80 72 68 68 67 67 66 66 66 66 80 78 69 78 79 79 80 79 66 67 70 71 71 71 71 71
88 89 89 84 84 85 86 88 89 89 86 86 83 82 82 82 82 82 82 81 79 70 79 74 75 78 75 75 76 76 77 77 79 80 71 66 66 69 70 70 70 70 71
88 89 88 86 84 84 88 88 88 87 85 86 84 82 81 81 81 80 81 81 80 81 78 79 78 77 75 75 75 74 75 75 79 79 72 65 65 67 69 70 70 70 70
88 89 89 87 85 85 83 86 85 83 85 83 84 83 82 80 79 80 79 80 80 81 80 79 78 78 76 75 75 74 75 75 75 77 79 65 65 65 67 69 69 69 69
89 87 89 88 86 86 85 83 83 84 85 85 85 82 81 80 79 79 79 80 80 81 81 79 78 77 76 76 75 74 74 75 76 75 78 71 64 64 66 67 68 68 68
91 90 87 88 87 85 84 84 85 85 84 85 85 82 81 80 79 78 78 78 80 80 78 79 78 78 76 77 75 75 74 73 74 74 75 77 69 62 64 66 66 66 67
91 90 89 89 87 85 84 84 86 86 84 84 84 84 81 80 79 78 78 78 79 78 78 78 77 76 76 76 75 75 76 75 74 74 74 74 76 74 64 63 65 65 65
91 90 88 87 86 85 83 85 84 83 83 85 84 84 82 80 80 78 78 78 78 78 77 77 77 76 75 75 75 76 75 75 75 76 74 73 73 75 75 63 63 63 64
90 89 89 87 86 84 86 83 84 84 83 84 83 82 80 80 78 77 77 76 77 76 76 77 75 76 75 74 75 75 75 76 76 75 74 75 74 73 73 71 67 66 62
85 87 88 84 82 84 84 81 81 79 80 81 82 80 78 78 77 75 76 76 75 74 74 74 73 71 72 74 72 71 72 73 73 74 75 75 74 74 72 72 73 74 67
84 85 83 81 81 82 83 80 77 76 78 79 80 78 78 76 75 74 73 73 73 72 72 71 70 70 71 72 68 67 61 66 72 73 73 73 71 75 73 72 71 71 72
79 80 81 80 78 77 79 79 78 79 78 77 76 76 76 74 74 73 72 72 71 71 70 70 70 68 66 69 69 65 58 58 65 72 71 71 70 72 73 72 69 70 69
76 77 78 77 77 76 74 75 72 71 70 71 72 74 73 73 73 73 72 70 68 69 67 68 69 66 65 62 66 68 66 63 56 56 67 66 69 66 69 71 70 68 67
75 74 76 76 75 75 74 72 70 69 70 71 71 69 68 71 71 71 70 68 66 66 66 64 63 62 62 61 60 60 59 59 59 52 49 58 65 66 61 61 67 67 66
75 74 74 75 74 73 71 72 69 63 63 66 67 66 68 68 68 68 68 66 65 64 63 62 62 60 56 56 55 53 50 48 47 47 46 52 54 54 56 61 60 63 64

GFSSE_sfc_temp_006.txt.gz
Temp
81 79 75 77 76 76 76 76 76 76 76 76 76 75 75 75 75 75 75 75 75 76 77 77 77 77 78 78 77 75 75 75 76 77 78 79 80 79 78 77 77 78 77
83 80 75 76 76 76 76 76 77 76 76 76 76 75 75 75 75 74 74 74 75 76 77 77 76 77 77 77 74 74 74 74 74 75 76 78 79 79 78 77 76 76 75
82 82 80 75 76 76 76 76 76 76 76 76 76 75 75 75 74 74 73 74 74 75 76 76 76 75 75 74 73 73 73 73 73 73 74 74 75 73 76 76 76 76 76
84 83 79 74 75 76 76 76 76 76 75 75 75 75 75 74 74 73 73 73 74 74 75 75 74 74 73 72 72 72 72 72 72 72 73 78 78 74 77 77 76 76 76
82 79 75 73 74 75 75 75 74 74 74 74 74 75 74 74 74 73 72 73 73 74 74 73 73 72 71 71 71 71 71 71 71 72 74 75 69 70 71 76 76 76 75
80 77 72 72 73 73 74 74 73 73 73 73 73 74 74 73 73 72 71 71 72 72 72 72 71 70 70 69 70 70 70 70 70 72 75 75 66 69 74 75 74 74 74
81 78 75 71 72 73 73 73 72 72 72 72 72 72 73 72 72 71 71 71 71 71 71 71 70 70 69 69 69 69 68 69 69 71 75 67 66 68 70 74 73 72 73
83 78 77 72 72 72 72 72 71 71 71 71 72 72 71 71 71 71 70 70 70 70 69 69 69 69 69 69 68 68 67 67 71 73 75 70 67 67 71 73 72 71 72
86 83 80 76 72 71 70 70 70 71 71 70 70 70 70 70 70 70 70 70 70 69 69 69 68 68 68 68 68 67 67 67 66 71 74 68 71 73 74 73 72 72 71
84 85 82 78 79 74 71 70 70 70 70 70 70 70 69 69 69 70 69 69 69 68 68 68 67 67 67 68 68 67 67 66 67 71 68 65 71 73 73 73 73 72 71
84 82 81 82 80 78 75 72 70 70 70 70 70 70 69 72 71 70 69 69 69 68 68 67 67 67 66 66 67 67 67 67 70 71 69 68 70 71 72 72 71 71 71
79 82 81 79 78 79 85 73 75 76 74 74 75 74 74 74 75 76 71 68 68 68 67 67 67 66 66 67 65 65 64 69 68 69 65 67 69 70 71 71 71 71 71
83 82 81 78 78 79 77 77 78 76 75 75 76 74 74 74 74 72 69 67 65 65 67 65 65 64 68 66 65 65 66 67 66 68 64 66 68 69 70 71 71 71 71
82 82 81 79 77 77 78 77 77 76 75 74 74 75 72 71 70 70 69 69 68 68 68 68 67 68 67 68 67 65 65 65 65 65 61 65 67 68 69 71 71 71 70
82 82 81 79 77 76 76 75 75 74 74 73 74 74 72 70 69 69 68 68 68 69 68 67 67 67 67 67 66 66 66 65 66 65 62 65 65 67 68 70 71 71 70
84 82 80 80 77 78 77 76 74 74 73 73 73 72 73 70 69 68 67 68 67 68 67 66 66 66 66 66 66 66 66 65 65 65 65 60 64 65 66 69 70 70 70
85 85 73 71 72 76 76 76 75 74 75 73 73 73 73 72 69 69 67 67 67 68 68 67 66 66 65 67 65 65 65 64 64 65 64 64 60 62 64 66 67 69 69
86 71 66 77 76 76 74 75 76 74 73 74 73 72 72 73 72 68 67 66 67 67 66 65 64 64 64 64 63 63 64 64 64 64 64 64 63 65 61 63 65 66 67
85 79 76 76 75 75 74 76 75 74 73 73 72 71 71 71 71 67 66 66 66 65 64 65 65 63 62 62 64 64 63 62 63 69 65 64 62 65 62 62 63 63 65
85 83 81 72 69 73 76 74 74 73 72 73 71 70 71 70 69 67 66 65 65 64 63 63 62 62 62 63 68 68 64 66 65 61 64 67 65 65 65 63 60 60 61
80 82 74 74 72 74 74 71 69 67 69 69 71 71 70 69 67 64 64 64 63 62 61 61 60 59 61 60 61 61 62 63 62 65 66 65 66 66 65 65 60 60 60
75 74 71 74 74 73 72 70 69 68 69 69 69 67 68 66 66 67 63 63 62 60 59 58 58 57 58 58 56 57 53 57 60 62 65 66 67 67 67 65 64 63 62
72 72 73 72 71 68 69 71 69 68 67 65 66 66 66 66 67 65 63 62 60 58 56 56 56 55 53 55 55 52 49 48 53 58 59 62 59 60 59 62 65 66 62
69 69 71 71 71 70 69 67 65 64 62 64 64 64 64 64 63 64 62 60 58 56 55 55 59 53 52 50 51 55 50 47 43 44 52 55 58 58 58 56 59 61 62
69 68 70 71 71 70 68 66 64 62 61 62 60 60 61 61 60 61 60 57 56 55 55 54 53 51 50 47 47 46 45 46 46 40 41 43 48 50 52 52 53 53 55
69 68 69 70 71 70 68 66 63 61 60 59 59 58 57 57 57 58 59 56 55 54 54 52 49 48 45 46 46 45 42 43 42 41 40 39 40 43 46 47 49 49 50

GFSSE_sfc_temp_009.txt.gz
Temp
72 74 74 75 75 75 75 75 75 75 75 75 75 75 75 74 74 74 74 75 75 77 77 77 76 76 76 75 75 74 74 74 73 74 75 77 78 77 77 76 75 78 77
73 75 73 75 75 75 75 75 75 75 75 75 75 75 74 74 74 74 74 74 75 76 77 77 76 75 75 74 73 73 73 73 72 73 74 76 77 77 77 74 74 76 76
73 76 76 74 75 75 75 75 75 75 75 75 75 75 74 74 74 73 73 74 74 75 75 75 75 74 73 73 72 72 72 72 72 72 73 73 73 75 75 75 74 75 75
76 75 75 73 74 74 74 74 75 75 75 75 75 74 74 74 73 73 73 73 73 74 74 74 74 73 72 71 71 71 71 71 71 71 70 70 72 71 71 73 75 76 75
73 73 74 72 73 73 74 73 73 73 73 74 74 74 74 73 73 72 72 72 73 73 73 73 73 71 70 69 69 70 70 70 70 70 68 66 67 72 73 73 74 74 74
70 70 71 71 72 73 73 73 73 72 72 72 73 73 73 73 72 72 71 71 72 72 72 72 71 70 69 69 69 69 68 68 69 65 63 68 66 70 71 71 72 73 72
68 70 71 70 71 72 73 72 72 72 71 71 72 72 72 72 72 71 70 70 70 70 70 70 70 70 69 68 68 68 68 67 66 64 65 64 66 73 74 71 71 72 71
69 69 71 71 71 71 71 71 70 70 71 71 71 71 72 71 71 70 70 70 70 69 70 69 69 69 68 68 68 67 67 67 67 64 66 64 68 71 73 72 71 72 70
72 68 67 69 70 69 69 69 69 69 70 70 70 70 70 69 69 70 70 70 70 69 69 69 68 68 68 68 67 67 66 66 63 65 70 64 69 70 72 73 73 72 72
73 72 68 68 68 66 67 68 68 69 69 69 69 69 69 69 69 69 69 69 69 69 69 68 68 68 67 67 67 66 66 66 64 64 63 64 72 73 73 73 73 72 72
75 73 70 70 69 67 66 69 69 69 69 69 69 69 67 66 67 68 67 68 69 68 68 68 68 67 66 66 66 66 66 62 63 64 62 68 71 72 72 72 71 71 71
71 72 72 72 69 69 76 67 66 69 67 67 67 66 66 65 66 69 67 68 68 68 67 67 67 66 66 62 62 65 60 62 63 63 62 67 70 71 72 71 71 70 71
74 74 72 72 71 70 70 66 65 66 65 66 68 68 68 68 66 65 62 63 61 65 62 64 63 62 62 61 62 61 62 62 60 61 64 66 69 70 71 71 71 71 70
72 74 72 72 72 70 69 68 67 67 66 67 67 68 65 63 63 64 62 62 61 61 60 61 61 62 62 64 63 62 62 61 60 60 60 65 67 70 71 71 71 71 71
72 74 73 71 69 71 70 67 68 66 67 67 66 67 66 64 63 63 63 63 62 62 62 62 62 63 63 64 63 62 63 62 62 61 58 64 65 68 70 71 71 71 71
77 75 67 67 70 72 70 68 68 66 66 66 65 66 67 64 63 62 62 62 62 62 62 62 62 61 61 62 63 63 62 62 62 61 61 58 63 65 67 69 71 71 71
70 70 66 66 68 69 70 70 68 68 68 65 66 67 67 66 65 64 61 61 62 62 62 61 61 60 60 62 61 61 61 61 61 62 61 59 59 62 64 66 68 69 70
69 68 66 68 69 66 69 70 70 67 66 65 65 64 65 66 64 61 61 60 61 61 61 60 59 59 58 58 57 59 59 60 60 60 61 60 59 61 61 63 65 66 67
68 65 63 63 64 65 68 69 66 68 67 65 63 63 64 64 63 60 60 59 59 59 58 58 58 56 55 56 60 61 59 58 58 64 60 60 59 59 59 61 63 63 65
68 66 63 63 63 66 67 66 63 63 63 63 62 63 63 62 62 60 59 60 59 58 56 57 55 56 54 55 62 62 56 57 57 56 57 61 61 61 59 60 59 61 61
67 66 63 61 64 63 62 59 60 61 61 60 62 63 62 62 63 61 58 58 56 55 54 54 53 53 55 53 51 54 53 55 55 56 57 56 58 60 61 59 59 58 60
63 62 61 61 61 61 61 60 61 61 61 60 61 61 61 61 61 62 57 56 55 54 53 52 51 50 50 50 47 47 45 50 51 55 54 56 53 55 57 60 60 60 59
58 60 62 62 63 62 61 63 61 60 59 59 59 59 61 59 59 57 55 54 53 52 50 50 50 49 46 48 48 45 40 39 42 48 51 50 48 50 50 52 55 57 59
58 60 62 63 64 65 62 59 57 55 54 56 55 55 55 56 56 57 55 53 51 50 50 49 53 47 46 43 45 50 44 43 40 38 43 47 47 48 46 48 49 53 53
60 59 60 62 63 64 62 59 56 55 55 55 54 52 52 53 54 55 54 52 50 50 49 47 46 44 44 43 42 42 42 42 43 40 36 38 43 44 44 44 46 48 51
60 60 62 62 62 62 61 59 57 55 54 52 50 49 50 50 51 52 53 51 50 48 47 46 45 43 42 45 46 45 43 39 37 36 37 38 39 40 43 43 44 45 47

GFSSE_sfc_temp_012.txt.gz
Temp
71 72 74 75 75 75 74 74 74 74 75 75 75 75 74 74 74 74 74 75 75 77 77 76 75 75 75 74 74 73 73 73 73 74 75 77 78 79 77 75 74 77 76
72 73 73 74 75 75 75 74 74 74 75 75 75 74 74 74 74 74 74 74 75 75 76 75 75 75 74 73 73 72 72 72 72 72 74 75 76 77 76 75 75 75 75
72 74 75 73 74 75 75 75 75 75 75 75 74 74 74 74 74 73 73 73 74 75 75 75 74 74 73 72 71 71 71 71 71 72 73 69 69 74 74 74 74 75 76
73 73 74 73 74 74 74 74 74 75 75 74 74 74 74 73 73 73 72 72 73 74 74 74 73 72 71 70 70 70 70 70 70 70 68 69 72 74 73 72 74 75 75
72 73 73 72 72 73 73 73 73 74 73 73 74 74 73 73 73 72 72 72 72 73 73 73 72 71 70 69 69 69 69 69 69 68 65 66 66 72 74 74 74 74 74
70 70 70 71 72 73 73 73 73 72 72 72 73 73 73 73 72 71 71 71 72 72 72 72 71 70 69 68 69 69 68 68 68 62 63 67 67 72 73 73 71 73 73
71 71 71 70 71 72 73 73 72 71 71 71 72 72 72 72 72 70 70 70 70 70 71 70 70 69 69 68 68 68 67 67 64 61 61 64 65 72 74 72 72 73 73
69 69 70 71 70 71 71 71 70 70 70 71 71 71 72 71 70 70 70 70 70 70 70 70 69 69 68 68 68 67 66 66 65 62 64 63 66 72 73 73 72 72 72
67 67 67 68 70 69 69 69 69 69 70 70 70 70 70 69 69 70 70 70 70 70 69 70 69 68 68 68 68 67 66 66 61 63 67 63 68 71 72 73 72 72 72
65 65 64 65 66 65 66 68 68 69 69 69 69 69 68 69 69 69 69 69 70 70 70 69 69 68 68 67 67 66 66 65 61 61 62 62 70 73 73 72 72 72 72
67 65 63 64 64 64 65 68 69 69 69 69 69 68 66 65 65 66 67 68 69 69 68 68 68 67 67 66 66 66 66 60 60 61 60 65 70 73 72 72 71 70 70
65 66 66 65 64 64 72 66 65 67 66 65 66 65 64 63 63 67 66 67 68 68 68 67 67 66 65 60 60 64 59 60 60 60 61 65 69 72 73 72 71 70 70
70 70 68 68 66 65 67 64 63 63 63 64 65 64 63 64 63 63 61 62 61 63 61 62 62 60 60 59 59 59 60 61 58 59 62 66 68 71 72 72 71 71 70
70 71 69 68 68 65 65 63 64 64 64 63 64 65 63 61 61 60 60 60 59 59 59 59 58 60 59 61 60 60 60 59 59 59 59 65 66 70 72 73 72 72 71
71 69 65 67 67 66 66 66 65 65 64 64 65 65 63 62 61 60 60 60 59 59 59 59 59 60 60 61 61 60 60 60 60 59 57 63 65 67 71 73 73 72 72
71 65 65 67 67 70 67 66 65 64 64 64 63 64 65 62 61 61 60 60 59 58 59 58 58 58 58 59 59 60 60 59 59 59 59 57 63 65 67 70 72 72 72
69 68 67 67 67 67 68 67 66 64 64 63 63 63 63 62 61 60 58 58 58 58 58 58 58 57 57 59 58 58 59 60 58 58 59 59 58 62 63 66 68 70 70
67 68 66 69 66 65 66 65 66 65 63 62 61 61 62 62 61 58 57 57 57 57 57 56 56 56 55 54 54 55 56 57 58 58 57 57 59 61 60 63 65 67 68
68 66 63 63 63 65 64 62 63 62 61 60 59 59 61 61 60 58 58 57 57 56 54 54 54 52 51 52 56 55 54 54 54 59 57 57 56 57 58 60 62 63 65
61 60 60 62 63 62 59 58 59 59 59 59 59 59 61 62 62 58 57 56 55 54 52 52 51 51 50 50 57 55 51 52 53 51 52 57 56 56 56 56 56 58 60
60 59 59 62 60 62 59 56 56 56 58 58 61 62 61 61 59 56 54 54 53 52 50 51 50 49 49 49 47 50 48 51 49 49 49 50 52 54 53 54 54 56 58
57 57 59 59 59 60 58 56 57 57 61 61 61 61 57 56 57 58 53 51 51 50 50 49 48 47 47 47 45 43 42 47 45 49 47 48 44 48 50 52 52 54 54
55 57 59 60 60 59 61 61 60 60 59 58 56 55 56 56 55 53 52 50 50 49 48 47 47 46 43 45 44 43 39 36 39 45 47 45 43 44 43 47 49 51 55
55 56 59 61 61 61 60 58 58 55 54 53 51 51 52 52 53 53 51 49 48 47 46 45 48 44 44 42 43 47 42 43 41 38 41 43 42 45 41 42 44 46 50
56 56 57 59 60 60 59 59 56 54 51 50 49 49 50 51 53 54 52 50 48 46 45 44 43 42 41 41 40 40 40 39 40 37 35 36 40 41 42 40 41 43 47
56 57 56 58 58 59 57 55 53 51 50 48 48 50 51 50 48 49 50 45 44 43 43 42 41 41 41 43 43 41 39 38 36 35 35 36 36 38 39 40 39 41 43

GFSSE_sfc_temp_015.txt.gz
Temp
69 71 73 74 74 74 74 73 73 74 74 75 75 74 74 74 74 74 74 74 75 76 76 76 75 74 74 74 73 73 72 72 72 73 75 76 77 78 77 75 75 76 76
72 72 73 74 74 74 74 73 73 74 74 74 74 74 74 74 74 74 74 74 75 75 75 74 74 74 73 72 72 72 72 71 71 72 74 74 76 76 76 75 74 75 75
71 73 74 73 74 74 74 74 74 75 75 74 74 74 74 73 73 73 73 73 74 75 75 74 74 73 72 71 71 71 71 71 70 71 72 67 68 74 75 74 74 75 75
72 72 73 73 73 74 74 74 74 75 74 74 74 73 73 73 73 72 72 72 73 74 74 74 73 72 71 70 70 70 70 70 69 70 66 68 70 74 75 74 74 75 75
70 71 72 72 72 73 73 73 73 73 73 73 73 73 73 73 73 72 72 72 73 73 74 73 72 71 70 69 69 69 69 69 68 66 63 65 65 71 74 74 73 74 74
69 70 70 70 71 72 73 73 73 72 72 72 72 73 73 73 72 72 71 71 72 72 73 72 71 70 69 69 69 69 68 68 67 60 61 65 66 71 74 73 72 73 73
69 70 70 69 71 72 73 72 72 71 71 71 72 72 72 72 72 71 70 70 71 71 71 71 70 69 69 68 69 68 67 67 63 60 61 62 63 71 73 74 72 72 72
70 71 71 70 70 71 71 71 70 70 70 70 71 71 72 71 71 70 70 70 70 70 70 70 69 69 69 68 68 67 66 66 63 61 63 62 66 71 74 73 72 71 71
71 69 68 68 69 69 69 69 69 69 70 70 70 70 70 69 69 70 70 70 70 70 70 70 69 68 68 68 67 66 65 66 60 60 64 62 68 71 74 73 73 72 71
65 65 64 65 65 64 65 68 68 69 69 69 69 69 69 69 69 69 69 69 70 70 70 69 69 68 68 67 67 66 65 64 59 59 60 60 69 72 73 73 72 71 71
64 62 62 63 63 63 64 67 68 69 69 68 68 69 66 64 64 65 67 67 69 69 69 68 68 67 66 65 65 66 65 59 58 58 58 64 68 71 73 72 71 70 70
61 62 62 62 62 63 69 64 64 66 65 64 65 64 63 63 62 65 65 67 67 67 67 67 67 66 65 59 59 63 58 60 59 58 58 65 68 71 72 72 71 71 70
65 65 64 63 62 63 66 63 62 62 62 63 64 63 62 63 61 61 60 60 59 63 60 61 60 59 59 58 58 58 58 59 57 59 61 65 68 71 73 73 72 72 71
65 66 66 64 63 62 62 62 62 63 63 63 63 63 60 59 59 59 58 58 57 57 57 57 57 58 58 59 59 58 58 57 57 58 58 63 65 70 72 73 73 73 71
67 68 66 65 63 63 63 62 62 63 63 63 63 63 61 60 59 58 58 58 58 57 57 57 57 57 57 58 58 58 58 58 58 58 56 62 63 66 70 73 74 74 73
70 66 63 64 64 65 63 63 62 62 63 63 62 62 62 60 59 58 57 58 57 56 56 56 56 55 55 56 57 57 58 57 57 57 57 56 62 63 66 69 71 73 73
69 67 62 63 64 63 64 63 62 62 62 61 61 61 61 60 58 58 57 56 56 56 55 55 55 54 54 55 54 55 56 56 56 56 56 56 56 60 62 64 66 68 70
65 61 62 66 63 63 62 61 60 60 59 58 58 58 59 60 58 56 56 55 54 54 54 53 52 52 51 50 50 52 52 53 54 55 54 54 53 55 57 60 62 63 65
65 61 60 62 61 61 60 60 59 58 58 57 57 57 58 59 58 56 54 53 53 53 51 51 51 50 49 49 52 51 50 50 51 54 52 52 52 52 53 56 57 58 59
61 61 61 61 61 60 58 58 58 58 57 56 56 57 58 58 58 55 55 52 52 51 50 49 49 49 48 48 53 52 49 49 48 47 48 52 50 50 50 51 51 53 57
58 60 61 59 59 58 57 55 56 53 54 55 58 60 57 58 56 52 51 51 50 49 48 48 47 47 47 47 45 48 46 47 47 47 47 46 47 49 48 49 50 50 52
57 57 56 57 58 57 56 54 54 54 56 59 59 55 54 53 53 53 49 49 48 48 47 46 45 44 44 45 42 41 39 45 43 47 45 46 42 44 46 48 47 48 48
55 56 58 58 58 58 57 56 58 59 57 54 52 52 52 52 51 50 48 47 46 46 44 43 43 42 41 43 43 41 37 35 37 42 44 43 41 41 41 43 45 46 46
53 55 57 58 58 58 57 56 56 54 53 50 48 48 48 49 49 50 48 47 45 44 43 44 44 40 40 38 40 44 40 41 39 36 39 42 40 43 40 40 41 42 44
54 54 54 56 57 57 55 54 52 51 49 48 47 47 48 49 51 48 49 48 46 43 42 42 40 39 39 38 40 40 42 40 38 36 33 34 38 40 40 39 39 39 42
52 52 52 53 52 52 51 50 49 48 47 47 49 50 50 48 46 49 48 44 44 42 41 40 39 39 38 39 40 42 39 37 37 36 35 36 37 40 38 38 38 39 40

GFSSE_sfc_temp_021.txt.gz
Temp
75 79 73 74 74 74 74 73 74 74 74 75 75 75 74 74 74 74 75 75 75 76 76 75 75 74 74 73 73 72 72 71 71 72 74 75 77 77 76 75 76 82 75
76 78 73 74 74 74 74 74 74 74 75 75 74 74 74 74 74 74 75 75 75 76 75 75 74 74 73 73 72 72 71 71 71 71 72 76 75 76 76 74 74 79 75
75 78 79 73 74 74 74 74 74 75 75 74 74 74 74 74 74 74 74 74 75 75 75 75 74 74 73 72 71 71 71 70 70 70 71 80 80 75 75 74 74 75 75
75 78 79 73 73 74 74 74 74 75 75 74 74 74 74 74 73 73 73 73 74 75 75 75 74 73 71 71 70 70 70 69 68 69 78 78 78 74 75 74 74 74 74
75 78 78 72 72 73 73 74 74 74 73 73 73 74 74 74 73 73 73 73 74 74 74 74 73 72 70 70 69 70 70 69 68 75 78 77 77 76 75 74 75 74 73
75 77 73 71 72 73 73 73 73 72 72 72 73 74 74 74 73 72 72 73 73 74 74 73 72 71 70 69 69 69 69 68 71 79 78 75 76 74 75 74 72 73 73
75 77 77 70 71 73 73 73 72 71 71 72 72 73 73 73 72 72 71 72 72 72 72 72 71 70 69 69 69 68 67 68 77 80 79 77 76 74 75 74 72 72 72
75 76 76 71 71 71 72 71 71 71 71 71 71 72 72 72 71 71 71 71 71 71 71 70 70 69 69 69 68 67 66 66 76 78 78 78 72 73 75 74 72 71 71
75 75 75 76 74 70 69 69 69 70 70 70 70 70 70 70 70 70 70 71 71 70 70 70 69 68 68 68 67 66 65 66 76 77 77 79 71 73 74 74 73 72 71
73 74 73 74 75 74 74 68 69 69 69 69 69 69 69 69 69 69 68 69 70 70 70 69 68 68 68 66 66 65 65 66 75 76 77 77 69 73 74 73 73 72 71
70 70 70 70 72 72 73 72 70 69 69 69 70 69 68 74 74 73 69 68 69 68 68 68 68 67 66 67 66 65 66 77 75 76 77 67 69 72 73 73 72 71 71
67 67 69 69 70 71 73 73 73 73 75 74 74 73 74 72 73 73 69 66 66 66 66 66 66 66 70 75 76 71 76 73 75 75 77 65 68 71 73 73 72 72 72
68 69 70 69 70 70 72 73 73 73 73 73 71 72 72 72 72 73 74 73 72 68 73 72 73 73 70 72 72 71 72 73 73 74 72 64 66 69 71 72 72 72 72
69 71 70 70 69 68 72 72 71 73 72 72 72 71 72 72 71 71 72 71 70 71 70 70 71 69 69 69 69 69 69 71 72 72 71 62 64 66 69 70 70 70 70
70 70 70 69 68 68 69 70 69 69 71 69 71 70 72 72 69 70 69 70 70 71 70 69 69 69 68 68 68 68 68 68 68 71 71 62 61 64 66 67 68 68 68
71 70 69 69 69 69 69 67 67 65 66 67 67 67 68 70 69 69 68 69 69 69 68 68 67 68 67 67 67 66 67 67 67 67 70 69 59 60 62 63 64 64 65
72 70 67 67 68 67 66 65 62 61 62 63 62 64 65 68 66 66 67 67 67 67 66 68 66 66 67 67 66 66 67 66 66 65 66 67 66 59 58 60 61 61 62
69 68 66 66 66 64 64 63 62 60 59 60 60 61 63 64 66 66 63 64 63 63 64 60 64 65 64 63 63 65 65 66 64 64 65 65 65 66 62 57 58 59 60
68 66 65 66 65 64 61 60 60 60 62 61 62 64 63 64 64 62 58 60 62 62 61 62 62 61 61 62 62 64 64 65 64 65 63 61 61 62 63 59 57 57 57
66 65 64 63 60 60 58 59 61 60 62 62 59 60 64 63 62 63 61 60 62 61 60 61 60 61 60 58 59 60 60 62 62 63 61 62 61 60 60 59 60 61 55
64 65 63 61 60 59 60 60 64 60 58 59 63 62 62 62 61 61 61 60 61 60 58 57 59 56 58 57 57 57 59 60 59 60 60 60 59 59 58 59 59 59 59
64 64 64 65 64 65 67 66 66 65 65 62 61 60 60 60 60 60 60 60 59 60 57 55 55 55 55 55 51 52 51 55 58 57 58 57 56 57 57 57 56 56 57
62 64 66 66 66 66 66 66 65 64 63 63 61 60 59 60 60 59 58 59 58 57 56 54 53 51 51 53 52 50 46 46 48 55 54 55 54 54 55 55 55 55 55
61 63 65 65 65 63 64 64 62 63 61 59 60 60 61 59 59 59 58 56 55 56 54 54 54 51 51 48 51 53 50 48 43 42 51 50 52 51 51 52 52 52 53
61 62 62 61 61 61 61 61 61 59 59 60 60 57 58 58 58 58 56 55 54 55 54 52 52 51 52 50 49 48 48 48 47 42 39 44 49 51 51 51 51 51 52
61 60 60 60 60 61 62 61 60 59 59 60 59 58 59 59 58 56 55 54 54 54 52 52 51 50 50 49 50 48 46 43 42 42 39 41 42 46 50 50 49 50 51

GFSSE_sfc_temp_024.txt.gz
Temp
81 83 74 74 74 74 74 74 74 74 75 75 75 75 75 75 75 75 75 75 76 76 76 75 75 75 74 74 73 73 72 72 72 72 74 76 77 77 76 75 75 85 76
83 82 73 74 74 74 74 74 74 74 75 75 74 74 74 74 75 75 75 75 76 76 76 75 75 75 74 73 73 72 72 71 71 72 74 76 75 76 76 74 74 80 75
81 81 81 73 74 74 74 74 74 75 75 75 74 74 74 74 74 74 74 75 75 76 76 75 75 74 73 72 72 72 71 70 70 72 75 88 84 76 75 74 74 74 75
80 83 84 73 74 74 74 74 74 75 75 75 74 74 74 74 74 74 74 74 75 75 75 75 74 73 72 71 71 71 71 70 70 72 86 86 86 75 75 75 74 74 74
81 84 83 73 73 73 74 74 74 74 74 74 74 74 74 74 74 74 73 73 74 75 75 74 73 72 71 70 70 70 70 70 70 81 86 83 85 78 75 74 76 75 73
79 84 74 71 72 73 74 73 73 73 72 73 73 74 74 74 74 73 73 73 74 74 74 73 72 71 70 69 69 69 69 69 70 88 86 81 82 75 75 74 72 73 73
74 81 81 70 72 73 73 73 72 72 72 72 73 73 74 74 73 72 72 72 73 73 72 72 71 70 70 69 69 68 68 68 85 86 86 83 79 75 75 74 72 72 72
80 81 80 72 71 70 72 71 71 71 71 72 72 72 73 72 72 72 71 71 71 71 71 71 70 70 69 69 68 67 67 67 83 85 85 84 72 74 75 74 72 71 72
82 81 79 81 76 70 70 70 70 70 71 71 71 71 70 70 70 71 71 71 71 71 71 70 69 69 69 68 67 66 66 67 83 84 85 84 71 74 75 74 73 72 72
80 79 78 79 81 80 79 69 69 69 70 70 70 70 69 70 70 70 70 70 70 70 70 69 69 68 68 68 67 66 66 68 84 85 86 79 70 73 74 74 73 72 72
76 75 76 82 81 81 82 76 70 70 69 69 71 69 70 83 81 79 68 68 69 68 68 68 68 67 68 70 69 68 68 84 83 84 85 66 68 71 73 73 72 72 72
70 72 73 77 78 79 80 78 79 80 82 82 82 80 84 80 81 80 73 67 67 68 67 67 67 69 75 83 83 76 82 80 82 82 81 65 68 70 72 72 72 72 72
72 72 71 75 76 78 79 81 82 83 82 81 79 80 80 81 81 83 83 83 82 72 84 80 81 81 77 78 79 78 79 80 81 82 73 64 66 69 70 70 70 70 70
76 79 79 79 76 77 81 81 80 81 81 79 79 78 79 79 80 81 83 83 81 83 80 80 81 77 76 76 76 75 75 77 79 79 75 62 64 67 69 69 68 68 68
79 79 78 78 77 77 77 78 78 77 76 76 77 76 77 79 79 80 79 81 80 81 79 79 78 77 76 76 75 74 74 74 74 77 78 61 62 63 65 66 66 66 66
81 78 78 78 77 78 78 76 76 75 74 71 70 68 67 70 75 79 79 79 80 79 78 77 75 75 75 75 75 73 73 74 74 73 76 76 60 60 62 63 63 64 64
81 79 76 76 77 76 75 73 70 68 66 68 67 67 65 67 71 76 77 77 75 74 74 74 73 74 74 74 73 73 73 74 74 72 73 74 72 58 59 60 60 61 61
81 77 74 73 72 72 70 69 64 63 65 66 66 65 66 66 67 72 70 69 70 71 71 72 71 71 71 71 70 71 72 73 72 72 72 70 72 73 66 60 60 60 60
81 75 72 73 70 65 62 63 64 64 67 66 64 65 63 64 67 68 69 68 69 71 69 69 69 68 67 68 68 69 69 70 69 73 70 69 68 68 69 64 60 60 59
78 74 71 69 66 64 63 67 66 67 65 70 68 69 71 71 69 71 70 68 70 69 69 67 65 67 66 66 65 67 67 67 68 69 68 68 69 66 66 65 65 66 59
74 70 69 67 69 69 68 68 69 69 68 69 72 70 69 69 69 69 71 69 68 67 64 64 65 64 63 64 60 63 64 67 65 66 67 66 65 65 63 64 64 64 64
68 69 70 71 73 75 76 76 75 74 74 73 71 69 69 69 69 69 67 67 66 65 63 62 61 61 62 62 56 56 55 60 65 63 63 63 62 63 62 62 61 61 61
69 71 74 75 75 76 75 75 74 73 71 71 72 72 69 69 69 67 66 65 65 64 63 61 60 58 56 60 58 54 50 50 54 60 60 61 59 59 59 60 59 59 59
71 73 76 75 75 74 73 73 72 74 71 69 70 70 72 68 67 67 66 65 63 63 61 61 61 58 56 55 57 59 56 54 48 46 56 57 58 58 57 58 58 58 58
71 72 73 73 72 72 72 72 71 68 69 69 70 67 67 68 67 66 65 63 62 62 61 58 57 56 57 55 55 54 53 53 53 48 44 49 55 57 58 57 56 56 57
71 70 70 71 70 71 70 69 68 66 66 68 67 66 67 67 67 66 64 62 61 60 58 58 57 56 55 54 54 53 51 49 48 47 45 47 48 52 55 56 55 55 56

GFSSE_sfc_temp_027.txt.gz
Temp
82 84 73 74 74 74 74 74 74 74 75 75 75 75 75 75 75 75 75 75 76 76 76 76 75 75 75 75 74 73 73 72 72 73 76 77 77 77 75 75 75 82 75
85 85 73 74 74 74 74 74 74 74 75 75 75 74 74 75 75 75 75 75 75 76 76 75 75 75 74 73 73 72 72 71 71 73 75 76 75 76 75 74 74 78 76
84 86 80 73 74 74 75 75 75 75 75 75 75 75 75 75 75 75 75 75 75 76 76 75 75 74 73 72 72 72 71 71 71 73 75 81 79 76 75 75 74 75 75
84 82 80 73 73 74 74 74 75 75 75 75 75 75 75 75 74 74 74 74 75 75 75 75 74 73 72 71 71 71 71 71 71 73 86 86 80 75 75 75 75 74 74
80 81 80 72 73 74 74 74 74 74 74 74 74 75 75 75 74 74 74 74 75 75 75 75 74 72 71 70 70 71 71 71 71 76 86 84 84 77 75 74 75 75 73
81 77 72 71 72 74 73 73 73 73 73 73 74 74 74 74 74 73 73 74 74 74 74 73 72 71 70 70 70 70 69 70 70 89 86 81 80 75 75 73 72 72 72
73 74 76 70 72 73 73 73 72 72 72 73 73 73 74 73 73 72 72 72 73 73 73 72 71 71 70 69 69 69 69 69 85 87 86 80 76 75 75 74 72 72 72
73 72 78 73 72 72 71 71 71 71 72 72 72 73 73 72 72 72 72 72 72 71 71 71 70 70 70 69 69 68 68 69 84 85 86 80 73 75 75 74 72 72 72
70 71 76 76 73 70 69 70 70 70 71 71 71 71 71 71 71 71 71 71 71 71 71 71 70 69 69 69 68 68 67 68 78 85 86 80 71 73 74 74 73 72 72
67 75 76 77 78 78 77 69 69 69 70 70 70 70 70 70 71 71 70 70 70 70 70 70 69 69 69 69 69 69 69 69 84 86 80 74 70 72 73 73 73 73 72
72 76 75 79 81 80 77 73 71 70 70 70 71 70 70 82 79 78 69 69 69 69 69 69 69 70 70 71 70 71 70 82 83 83 80 67 69 72 72 72 72 72 72
73 74 77 76 78 80 82 80 80 79 80 81 81 80 83 81 81 80 74 69 69 69 69 69 70 71 71 82 82 77 81 80 82 82 75 66 68 71 71 71 70 71 70
74 74 76 77 79 81 81 82 83 84 83 82 81 80 80 82 82 82 83 81 81 74 81 79 80 82 78 78 78 78 78 78 80 80 71 65 68 69 70 70 69 69 68
74 78 82 81 79 81 83 84 84 83 82 79 77 78 78 80 78 80 82 83 80 82 79 81 81 78 78 78 77 76 76 77 78 78 75 64 66 67 68 69 68 67 67
81 82 81 80 79 80 81 82 81 80 77 79 78 77 78 76 75 78 78 80 80 80 80 79 79 78 77 77 76 76 74 74 75 77 76 63 63 65 65 66 66 66 66
83 81 80 80 80 81 80 78 77 78 76 76 76 75 72 71 72 71 69 69 75 78 78 77 75 74 73 74 73 74 73 74 75 75 76 74 62 63 63 63 63 64 64
84 82 79 78 80 79 76 76 76 74 71 70 72 70 70 69 70 67 66 67 72 72 70 71 70 72 73 75 73 74 74 73 74 73 73 74 73 60 61 61 61 62 62
84 81 78 80 77 76 71 66 64 64 69 71 70 69 67 66 63 65 66 67 68 71 73 72 72 71 71 70 70 71 71 72 71 71 72 73 73 72 63 61 61 62 62
84 79 76 75 73 68 63 63 64 68 70 68 66 65 65 67 68 69 70 70 71 72 71 71 69 68 68 68 69 70 69 69 69 71 69 70 70 69 69 66 62 62 61
84 78 75 72 70 68 65 66 69 68 69 69 69 72 73 73 72 74 71 70 70 70 70 68 65 67 66 66 67 66 66 68 69 68 69 70 70 68 68 64 65 65 61
77 73 71 68 70 72 73 73 72 70 72 73 75 73 73 73 72 72 73 71 70 68 66 66 65 63 63 65 62 61 62 65 66 68 69 67 65 66 65 64 64 64 64
72 71 73 72 72 73 72 73 77 75 75 76 74 72 73 72 72 72 68 68 68 66 65 64 63 60 61 63 57 57 52 57 63 64 64 64 63 64 63 62 61 61 60
69 68 72 73 72 75 78 78 78 77 73 73 73 73 71 71 71 70 68 67 66 65 64 63 62 59 57 60 60 56 49 48 53 59 59 61 60 60 60 61 60 60 59
69 70 71 71 78 78 78 77 74 75 70 73 73 72 73 70 69 70 69 67 65 64 62 62 64 59 57 55 58 60 58 55 48 46 55 56 58 58 58 59 59 59 58
70 71 77 78 78 76 77 76 74 72 71 72 72 69 70 70 70 69 68 66 64 63 62 61 59 58 58 55 53 55 54 54 53 48 43 48 54 57 59 58 58 57 58
76 75 75 75 75 75 74 73 71 69 69 69 67 67 69 68 68 68 67 64 63 62 61 61 60 57 54 54 55 54 52 49 48 46 44 46 48 52 55 57 56 57 57

GFSSE_sfc_temp_030.txt.gz
Temp
78 76 74 74 74 74 74 74 74 74 75 75 75 74 74 74 74 75 75 75 75 76 76 76 75 75 75 74 73 73 72 72 72 74 75 76 77 76 75 74 75 77 75
77 78 73 74 74 74 74 74 74 74 75 75 74 74 74 74 74 74 75 75 75 76 76 75 75 74 74 73 72 72 72 72 72 73 76 76 76 76 75 74 74 75 75
79 77 76 73 74 74 74 74 74 75 75 75 74 74 74 74 74 74 74 74 75 75 76 75 74 74 73 72 72 72 72 72 72 72 75 76 74 75 75 74 74 74 75
80 79 76 73 73 74 74 74 74 75 75 74 74 74 74 74 74 74 74 74 74 75 75 75 74 74 72 72 71 71 72 71 71 72 76 79 77 75 75 75 74 74 74
80 81 75 72 73 73 74 74 74 73 73 74 74 74 75 74 74 74 73 74 74 75 75 75 74 72 71 70 70 71 71 71 71 74 76 74 74 75 74 73 73 73 72
78 76 71 71 72 73 73 73 73 73 73 73 73 74 74 74 74 73 73 73 74 74 74 73 72 71 70 69 70 70 70 71 72 76 74 73 72 75 75 73 72 72 72
69 71 72 70 72 73 73 73 72 72 72 72 73 73 73 73 73 72 71 72 72 72 72 72 71 70 70 69 69 69 69 69 73 74 71 70 69 75 75 74 72 72 71
69 70 70 71 71 71 71 71 71 71 71 71 72 72 72 72 71 71 71 71 71 71 71 71 70 70 70 69 69 69 68 68 74 72 72 68 71 74 75 74 72 71 71
69 68 68 70 71 69 69 69 69 70 70 70 70 70 70 70 70 71 71 71 71 71 71 70 70 70 70 69 70 69 69 69 68 72 74 67 71 73 73 73 73 72 71
65 67 67 70 71 70 70 69 69 69 69 70 70 70 69 70 70 70 70 70 70 70 70 70 70 70 70 70 69 70 70 70 72 71 67 65 71 73 73 72 72 72 72
65 66 67 69 71 71 70 70 69 70 69 69 70 70 68 72 71 71 69 69 70 70 70 70 70 71 69 71 71 69 71 72 72 70 65 67 71 72 72 71 70 70 70
61 65 67 71 71 72 76 71 70 71 70 71 72 70 70 73 72 75 70 69 70 70 70 70 71 70 70 70 69 70 68 69 69 69 62 67 70 72 71 70 69 69 69
67 71 72 71 72 74 73 73 73 73 73 72 72 72 71 74 72 69 67 68 66 67 70 68 71 70 70 68 67 67 67 67 65 67 63 66 69 71 70 70 69 68 67
71 73 74 74 72 71 74 73 73 75 72 69 71 73 71 69 69 70 69 71 71 70 70 69 69 69 69 70 68 67 67 65 66 65 62 64 66 68 69 69 67 67 66
73 75 74 73 72 73 73 72 72 69 71 70 70 70 70 69 67 68 67 66 67 68 69 67 66 66 65 66 66 66 66 66 65 64 63 63 64 66 67 67 66 65 65
77 75 74 74 73 74 72 71 70 70 70 69 68 69 69 67 66 65 65 65 66 66 66 64 63 63 63 64 65 65 65 65 65 64 64 61 62 64 64 64 64 64 64
78 76 73 72 73 72 72 71 69 68 67 67 67 67 66 65 65 64 63 61 62 64 63 63 63 63 62 65 63 63 63 63 63 63 62 62 61 61 62 62 63 64 64
78 75 74 77 72 71 69 68 65 63 65 66 64 63 63 63 63 61 62 61 62 61 62 61 61 60 59 59 58 59 59 60 61 61 61 60 60 62 60 61 62 64 63
78 74 73 73 69 67 65 64 65 66 66 64 63 62 62 64 65 63 62 61 62 62 61 61 58 57 56 56 59 57 56 56 57 63 61 60 60 62 62 62 62 62 62
76 73 72 70 67 67 64 66 67 65 65 65 65 65 66 66 67 65 62 62 62 60 59 58 56 56 54 53 61 59 54 54 56 57 57 61 60 60 60 59 58 58 60
74 70 70 67 67 67 67 66 65 63 65 66 67 68 67 66 66 63 62 61 61 58 57 57 55 53 52 53 50 51 51 53 52 53 54 54 55 59 56 54 53 52 54
71 68 66 68 68 69 71 70 69 67 67 67 66 66 66 66 65 64 61 60 58 56 55 54 53 51 51 51 47 47 43 47 50 52 51 52 50 52 54 56 53 53 51
70 68 67 67 69 69 71 70 70 69 66 65 64 63 64 65 65 63 62 59 57 56 53 53 52 51 47 48 50 45 41 39 44 47 48 49 48 47 48 51 53 53 52
69 70 71 70 71 71 70 71 67 67 64 64 64 63 63 65 64 64 62 59 57 55 53 52 55 49 48 45 47 52 47 44 40 39 44 45 47 49 47 47 49 51 51
69 69 70 71 71 72 72 70 67 64 64 64 62 61 63 63 63 63 61 56 54 54 53 52 51 50 48 45 44 44 45 43 43 38 36 39 44 46 46 46 46 46 49
69 69 68 70 72 71 70 69 66 63 62 60 60 59 60 59 59 58 58 54 54 52 52 51 51 52 47 46 46 45 43 40 39 37 36 37 39 42 44 44 44 45 45

GFSSE_sfc_temp_036.txt.gz
Temp
71 73 73 74 74 74 73 73 73 74 74 74 74 74 74 74 74 74 74 75 75 76 76 76 75 75 75 75 74 74 73 73 73 74 75 76 76 75 74 73 73 73 74
73 74 73 73 74 74 74 73 73 74 74 74 74 74 74 74 74 74 74 75 75 76 76 76 76 76 75 74 74 73 73 72 72 73 73 74 75 75 74 73 73 73 74
72 73 73 73 74 74 74 74 74 74 74 74 74 74 74 74 74 74 74 74 75 76 76 76 76 75 75 74 73 72 72 72 72 73 73 68 70 74 74 73 73 73 73
73 73 73 73 73 74 74 74 74 75 74 74 74 74 74 74 74 74 74 74 75 76 76 76 76 75 74 72 72 73 72 72 71 71 67 68 72 74 74 73 73 73 72
71 73 73 72 72 73 73 73 73 73 73 73 74 74 74 74 74 74 73 73 74 75 76 76 75 74 72 71 71 72 71 70 69 68 63 66 67 74 74 72 72 72 72
71 72 71 71 72 73 73 73 73 73 72 73 73 74 74 74 74 73 72 73 74 74 75 74 74 72 71 71 71 70 70 69 68 63 63 68 68 75 74 72 72 72 71
70 71 71 71 71 72 73 73 72 72 72 72 72 73 73 73 73 72 71 72 72 73 73 73 72 71 70 70 70 70 69 68 64 61 62 64 67 74 74 72 71 71 71
69 70 71 71 71 71 72 71 71 71 71 71 72 72 72 72 71 71 71 71 71 71 71 71 71 71 70 70 70 69 68 68 65 62 63 63 71 73 73 72 71 70 70
68 67 68 69 70 69 69 69 69 70 70 70 70 71 70 70 70 71 71 71 71 71 71 71 70 71 71 70 69 67 67 67 61 62 67 62 72 73 72 71 70 69 69
63 63 64 66 66 67 67 68 69 69 69 69 70 69 69 69 70 70 70 70 70 71 71 71 70 70 70 69 69 67 66 65 60 59 60 63 72 73 72 71 70 68 68
63 62 63 65 66 66 66 68 69 69 69 69 69 69 67 66 67 68 68 69 70 70 70 70 70 69 68 68 68 67 65 60 59 59 58 68 72 72 71 70 69 68 67
61 62 63 65 65 66 70 67 64 67 65 65 65 65 65 65 65 67 67 68 69 69 69 69 68 67 66 62 62 64 61 61 59 58 58 67 71 72 71 69 68 67 66
63 63 62 64 66 66 67 63 62 62 63 63 64 63 64 65 64 63 63 64 63 66 64 65 65 63 62 61 60 60 60 59 57 58 60 66 69 71 70 69 67 66 65
60 62 63 63 67 65 65 63 63 64 63 63 64 65 63 61 61 62 61 61 60 60 60 60 59 60 60 61 61 60 59 58 57 57 57 64 66 69 69 68 67 66 65
61 64 65 65 66 65 64 63 63 63 63 63 64 65 64 61 59 59 59 59 59 59 58 58 58 59 58 59 59 58 58 57 56 55 53 61 64 66 68 67 66 65 65
64 64 66 67 66 65 64 64 63 63 63 62 62 62 62 60 59 58 57 58 58 58 58 57 56 55 54 56 56 56 56 55 55 54 54 52 61 64 66 66 65 65 65
66 67 66 66 65 65 63 63 63 62 61 61 60 60 60 59 58 57 56 56 56 57 56 55 54 54 53 55 54 54 53 53 53 53 52 52 52 61 63 64 64 64 64
68 67 66 69 64 63 61 62 60 60 59 58 57 58 59 59 58 56 56 55 55 55 54 53 52 52 50 50 50 49 49 51 51 52 52 52 51 54 59 61 62 62 62
69 67 63 64 62 60 59 59 59 59 58 56 56 56 58 58 58 56 55 54 54 53 52 53 50 50 48 48 51 48 47 47 47 53 50 50 51 52 52 59 59 60 61
67 66 64 63 60 60 59 59 57 56 56 56 55 56 58 58 58 56 54 53 53 52 50 50 49 49 47 46 54 50 46 46 45 45 46 51 49 49 49 50 47 49 58
66 62 63 60 59 60 59 57 55 54 54 55 56 58 58 58 57 55 53 52 52 51 50 50 48 47 45 45 43 43 43 44 46 45 45 44 46 47 47 47 46 45 47
64 63 62 62 60 60 61 58 58 56 56 56 56 57 57 56 56 55 53 52 51 50 49 48 47 44 44 43 42 38 37 40 42 46 43 45 42 44 46 47 46 46 44
61 61 62 61 61 61 60 60 59 59 55 54 53 54 55 57 57 55 53 52 50 49 48 46 45 45 42 42 42 41 35 33 35 40 42 41 41 41 41 42 45 45 45
60 62 62 62 61 62 61 60 60 60 55 54 53 53 54 56 55 54 52 50 49 48 47 47 48 44 42 41 41 45 40 39 34 32 37 40 40 43 40 39 40 42 43
60 60 60 62 60 63 62 60 59 55 55 53 52 53 53 52 52 52 50 48 47 46 46 46 46 42 41 40 40 39 40 38 37 34 31 34 37 39 40 39 39 39 42
60 60 60 60 61 61 61 59 58 56 53 54 51 51 50 49 49 50 49 48 47 47 47 46 44 43 41 41 41 40 39 37 36 34 30 31 32 36 38 40 38 39 39

GFSSE_sfc_temp_039.txt.gz
Temp
71 73 73 74 74 73 73 73 73 73 74 74 74 74 74 74 74 74 74 75 75 76 76 76 76 76 76 75 74 74 74 73 73 74 75 75 75 75 74 73 73 72 74
73 73 72 73 73 73 73 73 73 73 74 74 74 74 73 74 74 74 74 75 76 76 76 76 76 76 75 74 73 73 73 72 72 72 73 74 75 75 74 73 73 72 73
72 73 72 73 73 73 74 73 74 74 74 74 74 74 74 74 74 74 74 75 75 76 76 76 76 75 74 73 72 73 72 72 71 72 72 65 69 74 74 73 73 73 73
73 73 72 73 73 73 73 73 74 75 74 74 74 74 74 74 74 74 74 74 75 76 76 76 76 75 73 72 72 72 71 71 70 69 65 66 71 74 73 73 73 72 72
72 73 72 72 72 73 73 73 73 73 73 73 74 74 74 74 74 74 73 74 75 76 76 76 75 73 71 70 71 71 70 70 68 67 63 65 67 73 73 72 71 71 71
71 72 70 71 72 73 73 73 73 72 72 73 73 74 74 74 74 73 73 73 74 75 75 75 74 72 71 70 70 69 69 68 66 61 62 66 67 74 73 72 71 71 71
69 71 70 70 71 72 73 73 72 72 72 72 73 73 73 74 73 72 72 72 73 73 74 73 73 71 71 70 70 69 68 67 63 61 61 63 67 73 73 71 70 70 70
67 69 70 71 71 71 72 71 71 71 71 72 72 72 72 72 71 71 71 71 71 71 71 71 71 71 70 69 69 68 67 67 64 61 62 62 71 73 72 71 70 69 69
64 66 66 67 70 69 69 69 69 70 70 71 71 71 70 70 70 71 71 71 71 71 71 71 71 70 70 69 68 66 66 66 59 60 65 61 72 72 72 71 69 69 68
61 63 63 64 66 66 67 68 68 69 69 69 69 69 68 69 69 70 70 70 71 71 71 71 70 69 69 68 67 66 65 64 58 58 58 62 71 72 71 70 69 68 67
61 61 62 64 64 65 66 68 68 69 69 68 68 68 66 64 65 66 68 69 70 70 70 69 68 67 67 67 66 65 64 58 58 57 57 67 71 72 70 69 68 67 67
59 60 61 63 64 64 69 65 64 67 65 65 64 64 63 63 63 66 67 68 68 68 68 68 67 66 64 60 60 62 57 57 57 57 56 66 70 71 70 68 67 66 66
59 60 60 62 64 64 65 62 62 62 62 63 64 62 62 64 63 62 61 61 60 64 62 62 61 60 60 58 57 56 56 55 53 55 58 65 68 70 70 68 67 66 65
60 60 63 64 64 63 63 62 62 62 62 61 62 63 62 61 60 60 59 59 59 58 58 58 57 58 57 58 57 56 55 53 52 53 55 62 65 68 69 68 66 65 65
61 62 63 63 63 64 62 61 61 61 62 63 63 64 62 60 58 58 57 58 57 58 57 56 56 56 56 56 55 55 54 53 53 51 49 59 63 65 68 67 66 65 65
63 63 64 64 63 63 62 62 62 62 62 61 61 62 61 59 58 57 56 56 56 56 55 55 54 53 52 53 53 53 52 51 51 51 50 49 59 63 66 66 66 65 65
63 64 62 62 62 62 62 61 61 61 61 60 60 60 60 58 57 56 55 55 54 55 54 53 52 51 51 53 51 51 50 50 50 50 49 49 51 60 62 63 64 64 64
63 64 64 67 62 61 60 60 59 59 59 58 57 57 58 58 57 55 54 54 53 53 53 51 51 49 48 48 47 46 47 48 49 49 49 49 49 51 56 60 61 62 62
64 65 62 62 60 59 58 58 58 58 57 56 56 56 57 57 57 55 53 52 53 52 51 52 49 48 46 47 49 47 45 45 46 50 48 48 49 49 49 56 57 57 60
63 63 62 61 58 58 58 57 56 58 57 55 54 55 57 57 57 55 53 52 51 50 49 49 47 45 45 45 51 48 43 43 44 43 45 49 47 47 46 46 45 47 57
61 60 60 59 58 60 58 56 54 54 54 54 55 57 57 56 56 53 52 51 50 50 48 48 46 46 43 42 43 42 41 42 42 42 42 43 45 45 45 44 44 44 45
61 61 59 60 58 60 60 56 56 54 54 54 55 55 56 55 55 53 51 50 49 48 47 46 46 43 44 43 41 37 36 40 41 42 41 43 40 42 44 45 44 44 42
61 60 60 60 59 60 58 58 55 54 53 52 52 52 53 55 55 53 51 49 48 47 46 45 45 46 42 42 42 42 35 32 35 39 40 40 40 39 40 41 43 44 43
61 62 62 60 59 60 60 58 56 54 54 52 52 52 53 54 53 52 50 48 47 46 45 46 46 42 41 41 40 44 39 38 34 32 36 38 39 41 39 39 39 41 42
61 60 60 60 60 61 60 60 57 54 53 52 51 52 51 50 51 50 49 47 48 46 48 46 44 42 40 39 38 38 37 36 35 33 30 33 36 38 38 38 38 38 40
58 59 59 59 60 61 60 58 57 55 53 51 50 49 48 47 47 48 48 49 48 48 48 44 42 42 41 40 39 38 37 36 35 33 30 30 30 35 37 38 37 38 37

GFSSE_sfc_temp_042.txt.gz
Temp
70 72 73 74 74 73 73 73 73 73 74 74 74 74 74 74 74 74 75 75 75 76 76 76 76 76 76 75 75 74 73 73 73 74 75 75 75 75 74 73 73 73 74
72 72 72 73 73 73 73 73 73 74 74 74 74 74 74 74 74 74 75 75 76 77 77 76 76 75 75 74 74 73 73 72 72 72 73 74 75 74 74 73 73 73 74
72 72 72 73 73 74 74 74 74 74 74 74 74 74 74 74 74 75 75 75 76 77 76 76 75 75 74 74 73 73 72 71 71 71 71 66 70 74 74 73 73 73 73
72 72 71 72 73 73 73 73 74 74 74 74 74 74 74 74 74 74 74 75 75 76 76 76 75 75 74 72 72 72 71 70 70 69 65 66 71 73 73 72 72 72 72
72 71 71 72 72 73 73 73 74 73 73 73 74 74 74 75 74 74 74 74 75 76 76 76 75 73 72 71 70 70 70 69 68 66 63 65 67 73 73 72 71 71 71
71 71 70 71 72 73 73 73 73 72 72 73 73 74 75 75 74 74 74 74 75 75 75 75 73 72 70 70 69 69 68 68 65 62 63 67 67 73 72 71 71 71 70
69 70 70 69 72 72 73 73 72 72 72 73 73 73 74 74 73 72 72 73 73 73 74 73 72 71 70 69 69 68 67 67 62 61 62 64 67 72 72 71 70 70 70
66 68 69 71 71 71 72 71 71 71 72 72 72 72 73 72 71 71 71 72 72 72 72 71 71 70 70 69 68 67 66 66 63 61 62 63 71 72 71 70 69 69 70
64 66 66 66 69 69 69 69 69 70 70 71 71 71 70 70 70 71 71 71 71 71 71 71 70 69 69 68 67 66 65 65 59 60 64 62 72 72 71 70 69 68 68
61 62 63 64 65 65 66 68 68 69 69 69 69 69 69 69 70 70 70 70 71 71 70 70 69 69 68 67 66 65 64 63 58 58 58 62 71 71 70 69 68 68 67
59 59 60 62 63 64 66 68 68 69 68 68 68 68 65 63 65 65 68 69 70 69 69 68 68 66 66 66 65 64 62 57 57 57 57 66 71 72 69 68 67 67 67
58 58 60 61 62 64 67 64 64 66 64 64 63 63 63 63 63 65 66 68 68 68 67 66 66 65 62 58 58 60 56 56 55 56 56 66 70 71 69 67 67 66 66
60 61 61 61 62 63 64 62 61 62 62 62 63 61 61 62 61 61 59 61 60 63 60 61 60 59 57 57 56 54 54 53 52 54 58 64 68 70 70 67 66 66 65
59 60 61 62 63 63 62 61 61 62 61 61 62 63 62 60 60 59 58 58 57 57 56 56 56 56 56 56 55 54 53 52 51 52 53 62 65 68 70 67 66 65 65
59 59 61 62 62 62 61 60 60 60 61 61 62 62 61 60 58 57 56 56 56 56 55 55 54 55 54 54 53 53 52 51 51 50 49 58 62 65 68 67 66 65 65
61 61 64 62 62 62 60 60 59 60 61 61 61 61 61 59 56 56 55 55 54 55 54 54 53 52 51 52 51 51 50 50 50 50 50 50 61 64 66 66 65 65 65
61 63 62 61 61 61 60 60 60 60 60 59 59 59 59 57 56 55 54 53 53 53 53 52 51 50 50 51 49 49 49 49 49 49 49 50 52 60 61 63 64 63 63
59 60 61 65 61 59 59 59 59 59 59 58 58 57 58 57 56 54 53 52 52 52 52 51 50 48 47 48 46 46 46 48 48 48 48 49 50 51 54 59 60 61 62
59 60 60 61 60 59 58 58 58 58 58 57 56 56 56 56 56 54 53 52 52 51 50 51 48 48 46 47 48 45 44 45 46 50 48 48 48 48 49 56 57 57 59
59 61 60 59 58 57 57 56 56 56 56 57 57 55 56 55 55 54 52 51 51 49 48 48 47 45 45 45 51 46 43 43 44 44 45 49 47 46 47 47 47 49 56
59 59 60 58 57 57 56 55 54 54 56 57 57 56 56 55 54 53 51 50 49 48 47 47 45 45 44 43 43 42 41 42 43 43 44 44 45 45 45 45 45 45 46
60 60 59 59 57 58 60 56 56 54 54 58 57 55 55 54 54 52 50 49 48 47 46 46 45 43 42 42 40 38 36 40 42 43 42 43 42 43 45 46 45 46 45
59 59 59 59 58 59 59 56 53 53 53 54 51 51 53 54 53 52 50 48 47 46 45 44 44 44 41 42 42 40 36 34 36 40 40 41 41 41 41 42 44 45 45
59 58 59 59 58 59 58 59 55 55 51 52 53 54 52 53 52 51 49 47 46 45 44 44 45 43 42 41 40 43 40 40 36 34 38 40 40 41 40 41 42 42 42
58 57 57 58 58 59 59 59 56 53 52 51 50 51 50 50 50 49 48 46 45 44 44 45 44 43 41 40 39 39 38 37 36 34 31 35 38 41 41 40 40 40 41
56 57 57 58 58 59 59 57 56 53 51 51 49 49 48 47 46 47 47 45 45 45 46 45 45 43 41 41 39 39 39 37 36 34 31 32 31 36 39 40 40 41 40

GFSSE_sfc_temp_045.txt.gz
Temp
74 78 73 74 74 74 73 73 73 73 74 74 74 74 74 74 74 75 75 75 76 77 77 77 77 76 76 76 74 74 73 73 73 74 75 75 75 75 74 73 75 79 74
75 79 73 73 74 74 73 73 73 74 74 74 74 74 74 74 75 75 75 75 76 77 77 77 76 76 75 75 73 73 73 72 72 72 74 75 75 75 74 73 73 76 73
74 79 78 73 73 73 74 73 74 74 74 74 74 74 74 74 75 75 75 75 76 77 77 76 76 76 75 74 73 72 72 71 71 72 74 81 78 74 73 73 73 73 73
74 78 78 72 73 73 73 73 74 75 74 74 74 74 74 75 75 75 75 75 75 76 76 77 76 75 73 72 72 71 71 70 70 72 79 79 79 73 73 73 72 72 73
73 78 77 72 72 73 73 73 74 73 73 73 74 74 75 75 75 75 74 74 75 76 76 76 75 73 72 71 70 70 70 69 70 76 79 78 78 75 73 72 73 72 72
72 77 72 71 72 73 73 73 73 73 73 73 73 74 75 75 75 74 74 74 75 76 75 75 73 72 70 70 69 69 68 69 72 79 78 75 76 73 72 71 71 70 70
71 73 72 69 70 73 73 73 72 72 72 73 73 74 74 74 73 73 73 73 73 74 74 73 72 71 70 69 69 68 67 68 77 77 77 76 74 72 72 71 70 70 70
68 71 70 70 71 72 72 72 71 71 72 72 72 73 73 72 72 72 72 72 72 72 72 72 71 70 70 69 68 67 66 69 75 76 76 76 72 72 71 70 69 69 69
65 67 67 67 68 68 69 70 70 70 71 71 71 71 70 70 71 71 71 72 71 71 71 71 70 69 69 68 67 66 65 66 75 74 75 77 71 71 71 70 69 68 68
63 62 63 63 64 65 71 68 69 69 69 69 70 70 69 70 70 70 70 71 71 71 70 70 69 68 68 66 66 65 64 66 74 74 75 75 71 71 70 69 69 68 68
60 59 59 60 63 64 67 70 69 69 69 69 70 68 69 76 75 75 70 69 70 69 69 68 67 66 66 65 65 64 66 72 72 73 74 68 71 70 69 68 68 67 67
57 58 59 61 62 64 68 70 68 69 69 69 71 72 74 72 73 74 71 68 68 67 67 66 66 65 68 71 70 67 70 69 71 72 73 66 70 71 68 67 67 67 66
58 60 63 63 63 63 66 64 66 68 68 69 70 71 70 72 71 72 71 71 70 68 71 70 70 70 68 69 68 68 68 69 71 71 68 64 68 71 68 67 67 66 66
59 61 62 62 62 62 64 66 66 67 70 69 70 70 70 68 66 68 69 69 68 69 68 69 68 66 66 66 66 66 65 68 70 70 68 61 63 68 69 67 67 66 65
61 61 62 63 65 66 66 66 66 67 69 68 69 69 69 67 66 67 67 69 69 68 68 67 67 67 66 65 65 64 64 64 64 68 68 60 63 65 69 68 67 66 65
64 65 66 67 66 66 65 65 66 69 70 69 69 68 69 70 68 68 67 67 67 68 68 67 67 66 65 65 63 63 63 64 64 64 68 66 61 64 66 67 66 66 65
65 66 65 66 67 67 68 67 68 67 69 69 68 68 68 67 66 66 65 65 66 66 64 64 64 65 65 64 61 62 63 62 64 63 65 66 66 60 61 63 64 63 63
67 66 66 68 67 66 67 67 69 68 67 66 66 66 66 66 65 65 65 65 64 65 65 61 64 63 63 64 62 62 63 63 62 62 63 64 64 66 62 60 61 61 62
68 67 66 67 67 66 66 66 67 67 67 67 66 67 65 65 64 65 66 64 64 64 61 64 62 63 61 62 62 61 62 62 61 63 61 61 61 63 66 58 58 58 59
68 68 68 68 67 66 66 66 67 66 65 65 66 67 66 66 65 65 65 63 61 59 61 62 60 61 61 62 62 61 60 60 61 61 60 62 62 60 62 61 64 63 56
68 67 67 66 66 66 65 63 64 64 64 65 66 65 65 66 65 64 63 62 62 62 61 60 59 59 60 59 60 59 58 56 57 60 59 60 59 59 59 61 61 62 62
66 67 67 67 67 66 68 66 67 67 66 68 62 59 61 64 64 61 61 62 62 61 59 59 59 58 59 58 57 55 53 53 56 57 58 57 56 59 59 58 57 57 58
66 66 67 68 68 67 68 67 65 65 64 64 61 61 62 63 62 59 61 61 60 61 59 59 59 58 57 56 54 54 52 52 53 55 54 56 55 57 57 57 56 55 55
66 67 67 67 67 67 66 66 64 66 64 64 62 63 61 61 60 59 60 60 59 59 58 58 59 58 56 54 54 54 54 54 51 49 54 55 55 54 55 56 56 54 53
68 65 66 66 66 66 65 67 65 66 66 64 62 61 60 58 59 59 59 58 58 59 57 57 55 55 50 47 53 53 52 53 52 49 47 50 54 55 55 54 54 54 52
66 65 64 65 65 66 65 64 64 63 61 60 59 58 57 60 59 58 59 58 57 57 56 56 55 51 49 51 54 54 53 52 51 49 47 48 47 50 52 53 53 53 53

GFSSE_sfc_temp_048.txt.gz
Temp
80 85 73 74 74 74 74 74 74 74 74 75 75 75 75 75 75 75 75 76 76 77 78 77 77 76 76 75 74 74 73 73 74 74 75 75 75 75 74 74 77 79 74
84 84 73 74 74 74 74 74 73 74 74 75 75 74 74 75 75 75 75 76 76 77 78 77 76 76 75 74 73 73 73 72 72 74 75 75 75 74 74 73 73 77 73
82 84 81 73 74 74 74 74 74 74 75 75 74 74 75 75 75 75 75 76 76 77 77 77 76 75 74 73 72 72 72 72 72 74 78 85 80 74 74 73 73 73 73
82 83 85 72 73 73 73 74 74 75 75 74 74 75 75 75 75 75 75 75 76 76 77 76 76 75 73 72 71 71 71 71 72 75 85 85 82 74 74 73 73 73 73
80 84 82 72 72 73 73 73 74 74 74 74 74 75 75 75 75 75 74 74 75 77 77 76 75 73 71 70 70 70 71 71 73 81 84 82 82 75 73 72 73 71 70
77 79 71 71 72 73 73 73 73 73 73 73 74 75 75 75 75 74 74 75 75 76 76 75 73 72 70 69 69 69 70 72 75 85 83 78 78 73 72 71 70 70 70
74 75 74 69 71 73 73 73 73 72 72 73 73 74 74 74 74 73 73 74 74 74 74 73 72 71 70 69 69 69 69 71 84 84 83 79 76 72 71 71 70 70 70
70 71 71 69 71 71 72 72 72 72 72 73 73 73 73 73 72 72 72 72 72 72 72 71 71 70 69 69 68 67 68 71 82 83 82 80 72 71 71 70 69 69 69
66 67 68 69 70 69 69 69 70 71 71 72 71 71 71 71 71 71 71 72 71 71 71 71 70 69 69 68 67 66 66 70 81 82 82 81 71 71 71 70 69 68 68
63 64 63 63 65 69 69 68 69 69 69 70 70 69 69 70 70 70 71 71 71 71 70 70 68 68 67 67 66 65 67 70 81 82 81 78 71 71 70 69 69 68 68
60 61 62 61 60 64 67 69 70 69 69 69 70 69 71 81 80 80 70 69 70 69 68 68 67 66 66 66 65 66 69 80 80 81 80 68 71 70 69 68 68 68 67
57 58 60 61 61 63 67 69 74 74 74 74 74 75 79 79 81 80 72 67 68 67 67 67 66 67 72 80 77 71 79 78 79 80 77 66 70 69 69 68 67 67 67
57 58 58 59 60 63 65 68 71 72 71 73 73 77 76 77 78 79 76 77 75 73 77 76 75 80 77 78 76 76 76 77 79 80 70 64 67 71 68 68 67 67 66
58 58 58 59 60 63 63 66 67 67 71 73 75 75 75 76 76 77 79 78 77 79 76 77 77 74 73 73 73 72 73 75 76 78 71 63 64 68 68 68 67 66 66
58 59 60 62 62 62 63 65 66 70 72 75 74 75 79 78 75 77 77 78 78 78 77 76 74 74 73 72 72 72 72 71 72 75 76 62 64 66 69 68 67 66 65
62 61 67 68 70 72 69 69 71 72 73 73 78 78 76 76 76 77 76 77 77 77 76 76 75 74 74 73 71 71 70 72 71 71 76 70 61 64 67 67 67 66 66
71 71 68 71 71 71 71 72 72 73 76 77 78 76 76 76 76 76 76 75 76 76 75 73 73 73 74 74 71 71 73 71 72 72 75 75 69 60 62 63 64 64 64
74 72 72 73 72 71 73 73 76 77 76 77 77 77 76 75 75 75 75 75 74 73 74 73 71 73 73 74 72 73 73 73 70 71 73 74 74 74 61 60 61 61 62
76 73 71 73 74 73 73 73 74 75 76 77 76 76 74 74 73 74 75 73 72 73 71 71 72 72 70 71 71 73 72 73 71 72 69 69 69 71 71 59 58 59 59
77 74 73 73 73 73 74 74 77 76 78 78 77 78 75 75 73 74 74 71 73 72 70 70 69 71 72 72 72 70 69 69 70 68 67 69 69 66 67 66 67 66 58
76 74 73 72 73 71 75 74 75 74 76 76 78 76 75 75 73 73 73 71 71 69 70 69 68 66 67 69 69 68 68 65 64 66 67 67 66 65 64 65 66 67 67
75 75 75 75 75 75 77 77 77 77 77 78 77 75 74 74 74 73 73 70 70 71 68 67 67 66 68 68 67 64 60 62 63 64 66 64 63 65 64 63 63 63 63
75 75 76 76 77 76 76 77 76 77 76 75 74 70 68 64 69 72 69 66 67 70 67 67 67 66 65 65 64 63 59 58 62 65 61 63 62 62 63 63 63 62 61
75 76 77 77 77 77 76 76 74 74 73 75 75 75 73 71 69 71 68 66 65 69 68 67 67 66 65 63 63 63 61 61 58 57 62 61 61 61 61 62 62 62 61
77 76 76 77 77 77 77 76 75 74 77 78 75 72 70 69 69 69 67 65 64 66 67 66 64 64 64 64 59 60 58 60 59 56 54 60 62 63 62 60 60 60 60
80 77 76 76 76 77 75 74 74 73 74 75 71 70 70 67 66 66 67 66 64 66 65 64 64 63 58 54 57 60 60 59 59 57 54 55 55 58 60 59 58 59 59

GFSSE_sfc_temp_051.txt.gz
Temp
86 84 74 75 75 74 74 74 74 74 74 75 75 75 75 75 75 76 76 76 76 77 77 77 76 76 76 75 74 74 74 74 74 74 75 75 75 75 74 73 76 77 74
85 84 73 74 75 74 74 74 74 74 74 75 75 75 75 75 75 76 76 76 77 77 77 76 76 76 75 74 74 73 73 73 73 74 75 76 75 74 74 73 73 76 73
80 85 81 73 74 74 74 74 74 74 75 75 75 74 75 75 75 75 76 76 76 77 77 76 76 75 74 73 73 73 73 73 74 75 78 82 78 74 74 73 73 73 73
77 84 81 72 73 74 74 74 74 75 75 74 75 75 75 75 75 75 75 75 76 77 77 76 75 74 73 72 72 72 72 73 74 77 85 83 80 73 74 73 72 73 73
77 80 78 72 72 73 73 73 74 74 74 74 74 75 75 75 75 75 74 75 76 76 76 76 74 73 71 70 71 71 72 72 74 81 82 80 79 74 72 72 73 71 70
75 76 73 71 72 73 73 74 73 73 73 73 74 75 75 75 75 74 74 75 76 76 76 74 73 71 70 70 70 70 71 73 75 85 81 77 76 72 72 71 70 70 70
78 76 72 70 72 73 73 73 73 72 73 73 74 74 74 74 74 74 74 74 74 74 74 73 72 71 70 69 70 70 70 70 86 84 81 76 74 72 71 70 70 70 69
69 69 70 71 71 72 72 72 72 72 72 72 73 73 73 73 72 73 73 72 72 72 72 71 70 70 69 69 69 68 69 70 84 83 81 76 71 71 71 70 69 69 69
68 67 68 69 71 69 69 70 70 71 71 72 72 71 71 71 71 71 72 72 71 71 71 70 70 69 69 68 68 68 69 70 83 82 82 77 71 71 70 70 69 69 68
64 65 65 66 67 70 73 69 70 70 70 70 70 69 69 70 70 70 70 71 71 71 70 70 68 68 68 67 67 67 68 71 83 83 79 75 70 70 70 69 69 68 68
61 61 64 64 64 68 70 70 70 69 69 69 70 69 71 79 79 79 70 69 69 69 69 68 68 67 66 66 67 68 69 81 81 81 77 68 70 70 69 69 68 68 67
58 58 59 60 62 63 67 69 68 72 73 74 74 75 77 79 79 77 70 68 68 67 67 67 67 67 70 79 78 72 79 79 80 80 73 66 70 69 69 68 68 67 67
58 59 59 60 62 61 63 63 64 72 74 73 72 74 76 74 73 74 72 74 73 71 76 74 73 79 79 79 77 76 77 78 78 79 68 65 67 69 69 68 67 67 67
56 57 59 61 60 62 61 62 64 72 73 72 72 74 74 74 73 74 77 77 76 78 76 77 79 76 76 76 75 74 74 76 77 79 68 64 65 68 69 68 67 67 66
55 57 58 59 59 61 62 62 67 71 70 69 74 75 74 74 73 78 78 79 79 80 78 78 76 76 75 74 75 74 74 73 74 77 72 63 65 66 69 68 67 66 66
58 57 59 60 60 62 62 63 66 70 71 74 73 74 74 76 76 78 77 78 79 79 80 78 77 76 76 75 72 73 72 74 73 73 77 68 62 65 67 68 67 67 66
58 60 59 61 62 63 64 67 73 73 74 74 75 75 76 77 76 77 77 78 79 79 77 77 75 76 75 76 73 73 73 72 74 73 75 74 67 61 63 64 65 64 64
69 69 68 70 68 68 69 70 72 74 74 76 77 76 77 78 77 77 78 77 77 76 76 75 74 74 74 75 73 74 74 73 72 71 74 74 74 72 61 62 62 61 62
72 70 70 70 71 72 74 73 74 76 77 80 79 79 77 78 76 75 77 77 75 75 75 74 73 74 72 72 73 73 72 73 71 74 71 70 70 70 72 61 61 60 60
76 73 71 71 72 72 70 73 75 76 77 79 79 78 77 77 76 76 77 75 74 75 74 73 72 73 73 72 74 72 71 71 71 70 69 70 70 68 68 67 66 65 59
77 75 74 73 73 73 74 73 75 73 76 78 78 78 77 77 76 75 77 75 74 74 72 71 70 68 69 71 69 69 69 68 67 68 69 69 68 67 67 66 66 67 65
76 76 75 76 76 74 76 77 78 78 78 80 80 79 79 76 77 76 76 74 73 73 70 69 69 67 69 69 66 67 62 66 65 65 67 67 65 67 66 66 64 64 64
76 76 77 77 77 74 76 80 79 79 79 78 79 78 77 76 77 76 75 75 72 71 69 68 68 68 66 67 66 64 60 57 62 65 63 65 64 64 64 65 64 64 64
77 78 78 79 79 80 79 79 76 76 75 77 77 79 76 73 71 73 74 72 70 70 67 67 70 68 67 65 66 66 64 60 56 57 65 63 63 62 62 63 63 63 63
79 79 79 79 80 81 80 78 78 75 77 79 78 74 74 73 72 74 74 70 68 69 68 66 67 67 67 66 65 59 56 60 61 56 54 60 62 64 65 63 62 61 61
82 79 79 79 80 81 80 78 77 76 76 77 78 73 73 74 73 71 70 68 67 67 67 67 67 65 66 62 56 56 58 58 58 57 56 57 58 61 63 63 60 60 61

GFSSE_sfc_temp_054.txt.gz
Temp
78 78 75 75 75 74 74 74 74 74 74 75 75 75 75 75 75 76 76 76 76 77 77 76 76 76 76 75 75 74 74 74 74 74 75 75 75 75 74 74 74 74 74
76 79 73 75 75 75 74 74 74 74 75 75 75 74 75 75 75 75 76 76 76 76 76 76 76 76 75 75 74 73 73 73 73 74 75 75 75 75 74 73 73 73 73
72 77 77 74 74 74 74 74 74 75 75 75 74 74 75 75 75 75 76 76 76 76 76 76 75 75 75 74 73 73 73 73 73 74 76 73 72 74 73 73 73 73 73
76 79 77 73 74 74 74 74 74 75 75 74 74 75 75 75 75 75 75 75 75 76 76 75 75 74 73 72 72 72 72 72 74 76 75 74 73 73 73 72 72 73 73
76 78 77 72 73 73 73 74 74 74 74 74 74 75 75 75 75 75 74 75 75 76 75 75 74 73 71 70 71 71 72 72 74 74 71 70 70 72 72 72 71 71 71
74 74 70 70 72 73 73 73 73 73 73 73 74 75 75 75 75 74 74 75 75 75 75 74 73 71 70 70 70 70 70 71 74 73 70 70 69 72 71 71 70 70 70
70 71 70 69 71 73 73 73 73 72 72 73 73 74 74 74 74 74 73 74 74 74 73 72 71 71 69 69 69 70 70 70 76 72 69 67 68 71 71 70 70 69 69
68 70 70 70 70 71 72 72 71 72 72 72 73 73 73 73 73 73 73 73 72 72 71 71 70 70 69 69 69 69 69 70 76 72 69 67 70 71 71 70 69 69 68
68 68 68 69 70 69 69 69 70 71 71 71 71 71 71 71 71 72 71 71 71 70 70 70 69 69 68 69 69 68 67 69 71 71 72 67 70 71 70 70 69 68 68
66 66 66 67 67 65 68 69 69 70 69 69 69 69 69 70 70 70 70 70 70 70 70 69 68 68 68 68 68 68 68 68 72 69 66 66 70 70 70 69 69 68 68
62 65 66 65 64 64 65 68 69 69 69 69 69 69 69 70 69 73 69 69 69 69 69 68 67 67 67 67 68 68 69 69 70 68 63 68 70 70 69 69 68 68 67
58 60 63 64 64 64 64 65 65 68 69 70 70 70 71 69 71 70 68 67 68 67 67 67 67 67 67 66 66 67 67 68 68 65 60 66 69 70 69 68 67 67 67
57 58 60 62 63 65 64 64 63 64 64 68 68 69 68 68 68 66 66 66 65 66 67 66 65 67 69 67 66 65 66 66 64 64 63 65 68 69 69 68 67 67 66
56 58 59 60 60 60 61 62 62 62 65 67 68 69 68 68 67 66 67 66 65 66 65 66 65 67 67 68 67 66 66 64 63 61 60 64 66 69 69 68 67 67 66
56 57 58 60 59 59 59 59 60 62 64 66 67 70 69 67 67 67 67 68 68 68 67 67 66 67 66 67 66 66 65 64 65 63 58 64 65 67 69 68 67 67 66
57 57 58 59 59 59 58 58 59 62 66 67 68 68 70 68 67 68 68 69 68 69 69 68 66 66 65 65 64 65 64 63 64 63 60 58 63 65 68 68 67 67 66
57 58 58 58 59 59 59 60 61 65 68 67 68 68 68 69 69 69 68 67 68 69 69 67 66 66 65 66 63 63 63 64 64 64 63 60 58 62 64 66 66 66 65
60 60 60 62 59 58 58 59 65 66 67 67 67 68 69 70 69 68 67 68 68 67 67 65 64 63 63 63 61 60 62 63 63 63 63 62 60 61 60 62 63 63 62
64 63 62 62 61 62 62 64 67 68 68 69 68 69 69 69 69 67 68 68 68 66 65 65 63 63 62 61 62 60 60 60 61 67 62 62 60 60 58 60 61 61 62
67 65 66 64 65 64 64 66 68 66 69 70 71 72 70 70 69 67 67 67 66 65 64 64 62 63 62 61 69 64 59 59 59 58 59 63 60 60 58 57 53 55 60
68 67 66 66 66 65 66 66 66 65 68 69 71 72 70 70 69 68 66 66 65 64 64 63 62 61 59 60 57 57 57 57 57 57 57 57 59 59 57 57 55 54 54
66 67 67 68 67 68 68 68 68 68 69 71 72 70 70 69 70 68 66 66 64 64 64 62 61 57 58 58 55 54 50 52 54 57 56 57 56 57 58 58 56 56 54
68 68 69 69 69 69 69 71 72 71 70 70 71 71 71 70 70 69 67 66 65 64 61 60 60 58 55 58 57 53 49 47 49 53 55 54 54 53 54 55 57 57 55
71 72 72 72 72 71 72 71 70 70 68 69 70 71 71 69 68 70 68 66 64 63 62 60 61 60 60 56 57 58 55 51 47 49 50 52 53 55 52 52 53 55 54
73 72 72 73 74 74 72 72 69 69 69 70 69 68 70 68 67 67 66 65 63 62 61 60 59 60 59 57 56 55 50 52 53 49 43 50 51 52 52 52 51 51 54
74 73 72 73 74 75 73 72 71 68 69 68 68 68 67 67 66 66 67 64 62 60 60 59 59 59 58 56 54 53 52 51 51 50 46 46 47 51 54 53 50 49 50

GFSSE_sfc_temp_057.txt.gz
Temp
64 74 74 75 75 74 74 73 74 74 75 75 75 75 75 75 75 75 75 75 76 76 77 76 76 76 76 76 75 74 74 73 73 74 75 75 75 74 74 73 73 73 74
66 69 72 75 74 74 74 74 74 74 75 75 75 75 75 75 75 75 75 75 76 76 77 76 76 76 75 74 73 73 73 73 73 73 74 75 75 74 74 73 73 73 73
68 69 70 73 74 74 74 74 74 75 75 75 75 75 75 75 75 75 75 75 75 76 76 76 76 76 75 73 73 73 73 73 73 73 73 74 73 74 73 73 73 73 73
70 72 71 73 73 74 74 74 74 75 75 75 75 75 75 75 75 75 75 74 75 76 76 76 76 75 73 72 72 72 73 72 71 71 69 69 73 73 73 72 72 72 73
72 75 75 73 73 73 73 74 74 74 74 74 74 75 75 75 75 75 74 74 75 75 76 76 75 73 72 71 71 71 72 71 70 69 65 65 68 72 72 71 71 71 71
71 72 70 72 72 72 73 73 73 73 73 73 74 74 75 75 75 74 74 74 75 75 75 74 73 72 70 70 70 70 72 70 69 64 62 68 68 72 71 70 70 70 70
68 70 70 70 70 70 72 73 73 72 72 73 73 74 74 74 74 74 73 73 73 73 73 73 72 71 70 70 70 70 71 70 67 64 61 63 67 71 71 70 69 69 69
68 69 69 70 70 70 70 70 71 72 72 72 73 73 73 73 73 73 72 72 72 71 71 71 70 70 70 70 69 68 68 70 68 65 63 62 70 70 70 69 69 69 68
68 68 68 69 69 68 68 68 69 71 71 71 71 72 72 72 71 72 71 71 71 70 70 70 69 69 69 69 68 68 67 68 65 66 68 62 70 70 70 69 69 68 68
66 66 66 67 67 66 67 68 69 68 69 69 69 69 70 70 70 70 70 70 70 70 70 69 68 69 69 68 68 68 68 67 63 62 62 65 70 70 70 69 68 68 68
64 64 64 63 64 64 65 67 69 69 69 68 69 68 67 67 67 68 69 69 69 69 69 68 68 68 68 68 69 68 66 63 61 60 59 68 70 70 69 68 68 68 67
59 62 63 63 62 63 65 66 66 67 66 67 66 65 67 66 68 69 68 67 68 68 68 68 67 67 67 62 62 65 62 61 60 58 59 68 69 70 69 68 67 67 67
58 61 62 62 62 62 63 63 64 64 65 65 66 66 67 66 65 65 64 64 63 66 65 65 65 63 64 62 62 61 61 60 57 58 63 66 69 70 69 68 67 67 66
57 58 60 61 61 61 63 62 62 63 63 63 66 66 64 64 64 63 62 62 63 63 63 63 61 62 63 64 63 62 61 58 56 56 60 65 67 70 68 68 67 67 66
57 58 58 59 59 59 60 60 61 61 62 63 66 67 66 66 63 64 63 63 63 63 63 62 63 64 63 63 62 62 62 59 58 57 54 64 65 68 69 68 68 67 66
57 57 57 57 59 60 59 59 59 60 61 62 64 65 66 66 63 65 63 64 63 64 63 63 62 62 62 62 61 61 61 60 58 57 55 57 64 65 68 68 68 67 66
57 58 58 57 58 59 59 59 59 61 61 61 63 66 66 65 65 65 64 63 64 65 64 63 62 61 60 62 61 60 60 59 60 58 57 56 58 63 65 67 67 67 66
58 58 59 61 58 58 59 59 61 60 61 62 64 63 66 67 66 65 63 63 64 64 63 61 61 60 59 58 56 57 57 58 60 60 57 56 55 58 61 63 64 64 64
57 58 59 59 58 59 60 60 61 63 64 66 65 65 66 66 66 64 63 64 64 61 61 62 60 60 58 57 57 56 56 56 57 63 58 56 55 55 55 61 62 62 63
57 58 58 59 59 60 60 62 63 63 62 63 63 64 65 65 66 64 63 63 61 61 61 60 60 59 58 57 65 60 55 55 55 54 56 59 57 55 54 54 53 54 60
59 58 58 58 57 58 59 59 62 62 64 62 64 67 66 66 66 64 63 62 60 61 60 60 58 58 56 56 54 53 52 53 54 53 53 54 55 55 53 52 50 50 53
59 61 59 60 59 60 61 63 63 64 65 66 65 65 67 66 67 64 62 61 60 60 59 59 58 55 55 54 52 52 50 50 51 53 52 54 54 54 54 54 53 52 50
60 61 61 62 62 63 64 64 62 61 62 64 65 63 66 66 66 65 63 61 62 61 59 57 57 56 53 53 54 54 47 45 46 49 51 55 54 50 51 53 53 53 52
62 64 64 65 64 64 65 64 63 63 62 65 66 66 66 64 65 66 65 61 61 61 58 58 58 55 54 54 52 58 55 52 47 47 50 50 53 51 49 49 51 52 52
64 64 65 65 65 66 66 65 64 65 65 66 66 63 66 66 66 66 65 62 60 61 58 57 56 55 58 55 53 53 51 50 52 48 44 49 51 52 50 50 48 48 51
67 65 65 65 66 67 66 66 65 63 62 63 62 62 62 62 64 64 63 60 59 58 57 57 57 57 56 53 52 51 50 49 48 46 46 46 47 50 50 49 46 47 50

GFSSE_sfc_temp_060.txt.gz
Temp
67 73 73 74 74 74 73 74 74 74 75 75 75 75 75 75 75 75 75 75 76 77 77 77 76 76 76 75 74 74 73 73 73 74 74 75 75 75 74 73 73 72 74
69 72 72 73 74 74 74 74 74 74 75 75 75 75 75 75 75 75 75 75 76 77 77 76 76 75 75 74 73 73 73 72 72 72 73 75 74 74 73 73 73 73 73
67 72 71 71 71 74 74 74 75 75 75 75 75 75 75 75 75 75 75 75 76 77 77 76 75 75 74 73 73 73 72 71 71 72 73 72 73 74 73 72 73 73 73
68 69 72 69 70 73 74 74 75 75 75 75 75 75 75 75 75 75 74 74 75 76 76 76 75 74 73 72 72 72 71 70 69 69 67 68 71 73 73 72 72 72 72
67 70 69 70 71 72 73 74 74 74 74 74 74 75 75 75 74 74 74 74 75 76 76 75 74 73 72 71 71 70 70 69 68 66 61 63 67 71 72 71 71 72 71
69 71 71 70 71 73 73 73 73 73 73 73 74 74 75 75 74 74 73 74 75 75 75 74 73 72 71 71 70 70 69 68 66 59 60 67 66 71 71 70 70 70 70
67 69 70 70 72 71 72 71 71 73 73 73 74 74 74 74 73 73 73 73 73 73 73 73 72 71 70 70 70 69 68 67 63 58 59 62 67 71 71 70 70 69 69
67 68 69 70 70 70 70 69 69 71 72 72 73 73 73 73 72 72 72 72 71 71 71 71 70 70 70 70 69 68 67 67 64 61 61 62 70 70 70 69 69 69 68
67 67 68 69 69 69 68 67 67 70 71 71 72 72 72 71 71 71 71 71 70 70 70 70 70 69 70 69 68 67 66 66 61 62 65 61 70 70 70 69 69 68 68
66 67 66 67 67 66 66 66 67 68 69 70 71 70 69 70 70 70 70 70 70 70 70 70 69 69 69 68 67 66 65 64 59 59 60 65 70 70 69 69 68 68 67
64 65 66 65 66 65 66 67 69 69 68 68 68 68 67 68 67 68 68 69 69 69 69 69 68 67 66 67 67 66 64 58 58 58 59 68 70 70 69 68 68 68 67
62 62 62 63 63 64 65 67 67 68 68 67 65 65 65 65 66 67 67 68 68 68 68 68 67 67 65 60 62 63 58 58 57 58 59 68 69 69 68 68 67 67 67
60 61 62 61 62 63 63 64 65 64 64 63 64 65 65 66 66 65 65 64 64 65 63 64 63 62 62 60 59 58 58 57 55 57 63 67 69 69 68 68 67 67 66
58 60 61 61 61 61 62 63 62 63 64 63 65 65 64 64 65 63 63 62 62 61 62 62 60 61 62 62 61 59 58 55 53 55 60 66 68 69 69 68 67 67 66
57 59 59 60 60 60 61 60 60 61 62 63 65 64 65 64 63 62 62 61 61 62 61 61 60 61 62 61 61 60 57 56 56 55 55 64 66 68 69 69 68 67 66
57 57 59 59 60 61 60 59 59 60 61 63 63 62 64 64 63 62 61 62 60 61 61 61 61 61 61 61 59 59 58 56 56 55 55 57 64 66 68 68 68 67 66
57 57 58 58 59 59 60 59 59 60 61 62 63 64 64 64 63 62 62 59 60 61 60 61 61 60 59 61 60 59 58 56 56 56 56 55 58 63 65 67 67 67 66
58 57 58 60 59 59 60 59 62 61 60 61 62 63 65 64 64 62 60 60 61 61 60 60 59 58 58 57 56 56 56 56 56 56 55 55 55 58 62 64 66 66 65
59 58 57 59 58 59 59 61 61 61 61 62 63 63 64 64 64 62 62 62 61 60 60 62 58 58 56 55 55 54 54 55 56 59 55 54 54 55 55 62 62 62 63
59 59 58 58 59 59 59 60 60 60 61 63 63 63 63 63 64 62 61 61 61 59 59 59 59 57 57 56 62 58 53 53 53 52 53 56 54 54 53 54 54 55 60
57 56 57 57 57 58 59 58 59 59 61 62 63 64 63 63 64 62 61 61 60 59 59 59 57 57 55 54 53 51 51 51 51 51 52 52 53 52 51 52 50 50 53
55 56 56 57 57 59 61 61 61 62 64 63 63 62 62 63 64 63 61 60 59 58 57 57 57 54 55 53 52 50 51 54 51 51 49 51 50 51 52 52 50 50 49
55 56 57 57 57 58 59 60 58 58 58 60 61 61 62 63 64 64 62 61 59 59 59 56 56 55 54 51 52 52 45 46 46 47 48 49 50 49 50 53 53 51 50
56 58 58 59 58 60 60 60 60 60 60 63 64 64 64 62 64 65 64 62 60 60 59 59 58 56 56 56 53 54 52 52 46 48 52 52 53 53 50 52 53 50 50
59 58 58 59 59 61 61 62 60 60 61 63 63 62 62 61 63 64 64 61 60 60 59 58 55 56 57 56 53 52 50 50 51 48 46 48 49 52 52 52 50 48 49
60 60 60 59 60 61 61 62 61 60 61 61 61 61 62 63 62 63 64 62 61 60 59 58 58 56 54 54 53 52 49 49 46 47 45 45 45 50 52 51 50 48 47

GFSSE_sfc_temp_063.txt.gz
Temp
69 73 73 74 74 74 74 74 74 74 75 75 75 75 75 75 75 75 75 75 76 77 77 76 76 76 75 75 74 73 73 73 73 74 74 75 75 75 74 73 73 72 74
69 72 72 72 72 72 73 74 74 74 75 75 75 75 74 74 74 75 75 75 76 76 76 76 75 75 75 74 73 73 72 72 72 73 74 74 74 74 74 73 73 72 73
69 71 71 71 72 70 70 73 75 75 75 75 74 74 74 74 74 75 75 75 75 76 76 76 76 75 74 73 72 72 71 71 71 72 73 70 72 73 73 72 73 73 73
68 72 70 71 70 71 70 71 74 75 75 74 74 74 74 75 75 75 74 74 75 75 75 75 75 74 73 72 71 71 70 70 69 68 65 66 71 73 72 72 72 71 71
66 70 71 70 70 72 71 71 73 74 74 74 74 75 75 75 74 74 74 74 75 75 75 75 74 73 72 70 70 70 69 69 68 65 60 62 66 72 72 71 71 71 70
65 68 69 70 71 72 71 72 73 73 73 73 74 74 74 74 74 74 73 74 75 75 75 74 73 72 70 69 69 69 68 67 64 58 59 67 66 71 71 71 69 69 70
65 68 69 69 71 73 72 73 72 72 72 73 73 73 73 74 73 73 73 73 73 73 73 72 72 70 69 69 68 68 67 66 61 57 58 61 66 71 71 70 69 69 69
68 67 68 70 70 72 70 69 69 70 72 72 73 73 73 72 72 72 72 72 71 71 71 71 70 70 69 68 68 67 66 66 62 59 60 62 69 70 70 70 69 68 68
66 66 67 68 68 67 67 68 68 69 70 71 72 72 71 70 70 71 70 70 70 71 71 71 70 69 69 68 67 66 65 65 58 60 64 62 70 70 70 69 68 68 67
66 66 66 66 66 66 65 66 67 67 70 71 71 70 69 69 70 70 70 70 70 70 70 70 69 68 68 67 66 65 65 64 58 58 59 65 69 70 70 69 68 67 67
64 65 66 65 65 64 64 65 67 68 71 70 70 68 67 67 66 65 68 69 70 69 69 68 67 67 67 66 66 65 63 57 57 57 58 68 69 69 69 68 67 67 66
62 63 64 64 63 63 63 63 63 64 66 67 68 67 65 64 63 66 67 68 68 68 68 67 66 66 64 62 62 62 57 57 57 57 59 68 69 69 68 68 67 67 66
61 61 62 63 64 63 63 62 63 64 65 65 65 65 64 64 64 63 64 63 62 65 64 63 61 61 61 59 57 56 56 55 55 57 63 67 68 69 68 67 67 67 66
60 60 61 62 63 63 64 63 64 65 65 65 64 65 65 63 63 61 63 61 62 61 61 61 59 60 60 58 57 56 55 54 54 55 61 66 68 69 68 68 67 67 66
58 59 60 61 61 61 62 61 62 62 63 63 64 64 65 63 62 62 62 60 59 61 59 60 59 60 59 59 57 56 55 54 55 55 56 64 66 68 68 68 67 67 66
58 58 59 60 60 61 61 61 60 61 61 62 63 63 64 64 62 63 61 60 58 60 60 58 59 59 58 59 56 56 55 55 55 54 55 58 64 66 68 68 68 67 66
57 58 58 59 60 60 60 60 59 61 62 62 62 62 62 63 63 62 62 60 59 60 59 58 58 57 57 59 58 56 55 54 55 56 55 55 57 63 65 67 67 67 66
57 57 59 60 59 58 59 59 60 60 61 62 62 62 62 62 63 62 59 58 59 59 58 57 57 56 56 56 55 54 55 55 55 55 55 55 55 57 61 64 66 66 66
58 58 57 58 58 58 58 58 59 60 61 61 62 63 63 63 62 61 60 59 59 57 58 59 57 56 55 54 54 53 53 54 54 57 54 54 53 54 55 61 63 63 64
59 59 58 58 58 58 58 58 59 59 60 62 62 63 63 62 63 60 59 59 59 58 57 57 57 55 55 54 60 56 53 52 52 51 52 55 53 54 53 55 55 56 61
58 58 57 57 57 58 56 58 58 57 59 61 62 63 63 62 63 61 59 59 59 58 58 57 55 55 54 53 52 51 50 50 50 50 50 51 52 52 51 52 51 50 53
57 57 57 56 54 56 58 59 58 62 61 62 62 62 62 62 62 61 60 59 59 58 57 56 55 53 53 52 51 48 47 49 49 50 48 50 49 50 51 51 50 50 49
55 56 57 55 55 56 57 61 57 59 60 60 60 60 60 61 62 62 61 60 59 58 57 55 55 54 53 51 52 53 46 45 45 47 47 47 51 49 50 51 50 50 50
55 58 56 55 55 57 57 55 55 57 58 60 62 59 60 60 61 62 61 60 59 58 56 56 57 56 54 52 52 54 53 52 49 48 48 51 49 52 51 52 51 53 53
54 55 54 55 55 57 57 58 57 56 58 58 57 57 58 58 59 60 60 59 59 58 58 57 55 54 55 54 53 50 50 48 49 48 48 48 50 51 52 51 52 52 52
55 54 54 55 56 57 57 57 57 57 58 58 55 56 58 58 57 58 59 59 59 59 58 58 58 56 56 56 53 52 50 48 47 45 45 46 47 50 51 50 50 50 50

GFSSE_sfc_temp_069.txt.gz
Temp
74 78 73 75 74 74 75 75 75 75 75 75 75 75 75 76 76 76 76 76 76 77 78 77 76 76 76 76 75 74 74 74 73 74 75 76 76 75 74 74 75 77 74
76 78 73 74 74 74 74 74 74 75 75 75 75 75 75 75 75 75 76 76 76 77 77 77 76 76 75 74 74 73 73 73 73 73 75 75 75 74 74 73 73 75 73
75 77 77 73 74 74 74 75 75 75 75 75 75 75 75 75 75 75 75 76 76 77 77 76 76 75 74 73 73 72 72 72 72 73 74 77 78 74 73 72 72 72 72
75 77 77 73 73 74 74 74 75 75 75 75 75 75 75 75 75 75 75 75 75 76 76 76 76 74 73 72 71 71 71 70 70 72 79 78 77 73 73 72 72 72 72
72 76 74 72 72 74 74 74 74 74 74 74 74 75 75 75 75 75 74 74 75 76 76 76 74 72 71 70 70 70 70 69 69 75 78 77 77 74 73 72 71 71 71
68 69 72 70 71 73 74 74 74 73 73 73 74 74 75 75 75 74 74 74 75 76 76 74 73 71 69 69 69 69 68 69 71 78 77 75 75 72 72 70 70 70 70
67 70 71 69 71 73 74 73 73 73 72 73 73 74 74 74 74 73 73 74 74 74 74 72 71 70 69 68 68 68 67 68 76 76 76 76 74 71 71 71 70 69 69
65 67 71 70 70 71 72 72 72 72 72 72 73 73 74 73 73 73 73 73 73 72 72 71 70 69 69 68 67 67 66 68 74 75 76 76 72 71 71 70 69 68 68
67 66 68 72 72 70 70 69 70 71 71 72 72 72 72 72 71 72 72 72 72 71 70 70 69 69 68 68 67 66 65 68 74 75 76 76 70 71 70 69 69 68 67
67 69 67 69 68 71 71 69 69 69 70 70 71 71 70 70 71 70 70 70 71 70 70 69 68 68 67 67 66 65 65 67 74 74 76 74 70 71 70 69 68 67 67
65 67 67 67 65 65 66 68 66 67 67 70 70 69 69 73 72 72 70 69 70 69 69 69 68 67 66 66 66 65 67 73 74 74 75 69 70 70 70 68 67 67 67
64 65 65 65 63 63 64 63 63 63 63 66 68 71 72 69 71 71 69 68 69 69 68 68 67 66 69 72 71 66 72 72 73 73 74 68 70 70 69 68 67 67 66
62 63 64 64 64 63 63 63 63 63 63 64 67 67 69 70 70 70 71 71 72 70 73 71 70 73 71 71 70 70 70 71 72 73 71 67 69 70 69 68 67 67 66
63 62 63 64 63 63 63 63 64 65 63 63 67 69 69 68 67 68 70 70 69 72 71 70 71 68 69 69 69 68 69 71 72 73 70 66 68 69 69 69 67 67 66
62 61 62 63 62 61 61 63 64 65 66 64 65 69 69 67 65 69 68 68 70 71 70 70 69 69 68 68 69 69 68 69 70 72 72 65 66 68 69 69 68 67 67
62 61 61 61 62 61 60 62 62 63 65 64 64 67 67 67 67 69 68 69 69 71 70 70 69 68 69 69 66 67 68 69 69 69 72 71 65 66 68 69 69 68 67
61 61 61 61 62 61 60 62 62 63 63 63 63 63 65 67 68 69 69 68 68 69 68 68 67 67 67 68 66 66 67 67 68 69 70 71 70 63 65 67 68 67 67
61 62 64 61 61 62 62 63 62 63 63 64 63 62 64 67 68 68 68 68 68 68 69 68 66 66 66 67 66 66 66 67 66 67 69 69 70 71 65 65 66 67 67
61 62 61 60 59 60 61 62 62 62 63 62 61 61 65 67 67 68 68 67 67 66 67 67 66 66 65 65 65 64 65 66 66 68 67 66 67 69 71 65 64 64 65
61 60 60 60 59 59 59 60 60 62 62 62 61 61 63 67 67 66 66 65 66 65 66 66 65 65 66 66 66 64 64 65 66 66 66 67 68 67 68 69 69 68 62
60 60 60 58 58 59 59 60 58 57 59 60 60 61 62 65 66 64 64 65 64 64 65 65 65 62 64 64 63 64 64 63 64 66 66 67 66 65 66 67 69 70 69
58 60 60 59 58 60 61 62 62 61 60 60 61 61 62 64 66 65 63 65 65 63 63 61 62 62 62 62 62 62 61 63 64 64 65 64 63 66 65 65 60 66 64
59 58 60 60 59 60 60 59 58 57 57 58 58 58 60 63 65 64 63 64 63 63 62 61 61 62 62 60 62 64 58 59 62 63 61 63 61 58 56 59 58 58 60
59 60 62 62 62 63 62 58 58 59 56 58 59 60 60 61 62 64 64 63 61 63 62 61 63 63 64 61 60 61 62 63 61 60 63 61 54 60 57 60 59 59 58
60 59 62 62 62 63 63 63 61 60 61 59 58 59 60 60 61 62 64 62 63 61 62 64 62 62 62 63 61 61 60 59 60 61 58 57 57 60 57 56 62 62 56
60 58 61 61 61 63 62 63 63 63 63 60 60 62 60 60 62 62 63 65 65 66 65 64 64 64 63 63 63 62 61 60 57 52 51 54 55 57 54 56 56 60 54

GFSSE_sfc_temp_072.txt.gz
Temp
84 87 74 74 75 76 75 75 74 75 75 76 76 76 76 76 76 76 76 76 77 77 78 77 76 76 76 76 75 75 74 74 74 75 76 76 76 76 75 75 76 79 74
85 86 73 74 75 76 75 75 74 75 75 76 76 76 75 75 76 76 76 76 77 77 77 77 76 76 75 74 74 73 73 73 74 74 75 75 75 75 74 73 74 76 73
82 84 80 73 74 75 76 75 75 75 76 76 76 76 75 76 76 76 76 76 76 77 77 76 76 76 74 73 73 73 73 73 73 74 76 77 77 74 73 72 72 72 72
84 83 82 73 74 74 75 75 75 76 76 76 75 75 76 75 75 75 75 75 75 76 76 76 76 75 73 72 72 72 72 72 73 73 84 80 78 74 73 73 72 72 72
80 83 83 73 73 74 74 74 75 75 75 75 75 75 75 75 76 75 74 75 75 76 76 76 75 73 71 70 70 71 71 71 72 80 85 83 81 74 73 72 72 71 71
73 82 74 69 69 71 71 74 74 74 74 74 74 75 75 75 75 74 74 74 75 76 76 75 73 71 70 70 70 70 70 71 72 86 83 79 78 72 72 71 70 70 70
71 74 72 70 71 73 72 74 74 73 73 73 74 74 74 75 74 74 74 74 74 75 74 73 71 70 69 69 69 69 69 70 84 84 81 79 76 72 72 71 70 69 69
70 73 78 72 71 72 74 73 72 72 72 73 73 74 74 74 73 73 73 74 73 72 72 71 70 69 69 68 68 68 68 72 82 83 82 79 72 72 71 70 69 69 68
67 68 76 77 76 69 70 72 71 71 72 72 72 72 72 72 72 72 72 72 72 71 70 70 69 69 68 68 67 67 68 70 83 83 81 79 71 71 70 70 69 68 68
69 67 69 75 77 78 76 68 69 72 70 71 71 71 70 71 71 71 71 71 70 70 70 69 68 68 68 67 66 66 67 70 83 82 82 77 70 71 70 69 69 68 68
68 70 68 72 73 72 72 72 70 71 70 69 70 69 69 76 77 75 73 69 70 69 69 68 68 67 67 66 66 66 67 81 81 82 79 69 71 71 70 69 68 68 68
68 71 73 71 72 68 66 66 65 66 68 68 68 69 71 75 77 78 72 68 68 68 68 68 67 66 70 76 74 68 81 80 81 81 77 68 70 70 69 68 68 67 67
71 70 71 66 67 65 63 63 62 62 62 66 68 68 71 73 75 75 75 74 74 71 76 73 72 79 78 78 77 78 77 79 80 80 72 68 70 70 69 68 68 67 67
65 66 70 69 66 65 63 62 62 61 61 63 65 67 70 73 74 74 76 76 76 78 76 76 78 78 77 77 77 76 77 79 80 79 72 67 68 70 69 69 68 67 67
66 65 65 67 67 64 64 64 62 62 61 63 64 68 73 73 73 73 75 79 78 79 78 78 77 77 76 76 77 76 76 77 77 79 76 66 67 69 70 69 68 68 67
66 64 63 63 64 63 63 62 63 62 62 63 63 68 72 73 72 73 72 76 78 80 79 79 77 77 77 77 76 76 76 76 77 77 77 73 65 67 68 69 69 68 67
65 64 63 62 61 61 62 61 63 63 64 63 63 68 73 73 72 72 73 75 77 79 78 78 76 77 77 77 75 75 75 75 76 75 78 77 72 64 66 68 68 68 67
67 63 62 63 61 61 62 61 62 63 63 64 64 68 72 73 71 71 74 75 77 76 76 76 75 74 75 75 73 74 75 75 75 75 77 77 77 76 66 65 66 67 67
71 69 62 63 61 62 63 61 62 63 63 63 63 64 68 73 73 75 75 76 74 75 76 75 74 74 72 73 73 74 73 74 73 76 75 74 75 76 77 65 64 64 66
70 66 63 63 61 61 61 63 62 62 64 62 62 62 65 70 71 74 74 72 73 74 73 73 71 73 73 72 74 72 72 73 75 74 74 75 75 74 75 76 72 70 63
68 65 64 59 59 60 61 60 59 60 61 62 63 63 65 70 73 73 74 72 71 71 72 71 71 68 70 71 70 69 70 71 71 74 74 74 74 74 74 74 75 76 70
66 66 63 60 59 62 61 62 61 61 62 64 62 62 63 69 73 70 67 68 69 70 71 69 67 65 68 67 67 69 64 68 71 71 74 73 72 75 73 72 68 72 74
65 66 67 63 63 63 65 66 62 59 59 59 60 61 61 64 71 68 64 64 64 69 69 68 67 67 66 66 68 68 64 64 68 73 70 72 71 69 71 65 67 66 66
69 66 68 65 66 63 64 63 65 65 59 63 61 61 60 62 65 66 63 63 64 67 69 68 66 69 70 65 66 68 70 70 66 62 69 69 69 68 61 68 70 67 68
72 67 65 66 69 64 62 64 64 67 62 62 62 60 59 59 62 65 63 63 63 65 66 67 66 68 71 68 67 68 66 67 67 65 64 66 68 68 63 57 61 63 65
72 69 67 68 68 66 65 63 61 62 63 61 58 60 58 59 60 61 65 66 68 65 68 68 66 67 68 69 70 69 68 67 66 65 63 64 60 63 62 57 56 62 62

GFSSE_sfc_temp_075.txt.gz
Temp
91 85 74 75 75 76 75 74 74 74 75 76 76 76 76 76 75 75 76 76 76 77 78 77 77 77 77 76 75 75 75 75 74 75 76 76 76 76 76 76 76 77 74
90 85 73 74 75 76 75 75 74 74 75 76 75 75 75 75 75 76 76 76 77 78 77 76 76 76 76 75 74 74 74 74 74 74 75 75 75 75 74 74 74 75 73
86 85 82 74 75 76 75 75 75 75 76 76 75 75 75 75 76 76 76 76 76 77 76 76 76 76 75 74 73 73 74 73 74 75 77 79 77 74 73 73 73 73 73
86 84 86 73 74 75 75 74 75 76 76 75 75 75 75 76 75 76 75 75 75 76 76 76 76 75 73 72 72 73 73 73 74 75 81 77 76 73 73 72 72 72 72
84 84 82 73 70 70 67 67 74 75 75 75 75 76 76 76 75 75 74 74 75 76 76 76 75 73 72 71 71 72 73 73 73 79 83 79 76 74 73 73 72 72 72
84 84 74 68 69 69 67 65 71 74 74 74 74 75 75 76 75 75 74 74 75 76 76 74 73 71 70 70 71 72 72 72 71 86 82 79 77 72 72 71 71 71 71
83 83 78 69 70 70 70 70 68 73 73 74 74 74 75 75 74 74 73 74 74 75 74 73 71 70 70 70 71 70 70 71 85 83 81 78 74 72 72 71 70 70 70
80 80 76 71 69 69 72 68 67 71 72 73 73 74 74 74 73 73 73 73 73 72 72 71 70 70 69 69 69 69 70 70 83 83 80 77 72 71 71 70 69 69 69
75 76 79 78 74 70 70 67 67 69 72 72 72 73 72 72 72 73 73 72 71 71 70 70 69 69 69 68 69 68 68 70 84 82 79 76 71 71 71 70 69 69 69
74 71 73 77 78 78 76 69 67 68 70 72 72 71 70 71 71 72 71 71 70 70 70 69 68 68 68 67 67 67 68 70 83 82 79 74 71 71 70 70 69 69 68
73 70 68 76 77 77 77 75 71 71 69 70 71 70 69 71 73 75 72 69 69 69 69 68 68 67 66 67 67 67 67 84 83 81 77 69 71 71 70 69 69 68 68
73 73 74 74 73 73 68 68 68 72 73 68 70 71 67 69 74 75 69 68 68 68 67 67 67 66 70 75 75 69 78 82 83 79 75 69 70 70 70 69 68 68 67
74 75 76 75 74 71 71 71 69 67 66 67 66 66 66 67 74 70 69 72 71 70 73 72 70 76 77 77 77 80 80 81 81 78 71 68 70 70 70 69 68 67 67
74 72 75 74 71 70 69 64 66 67 64 64 63 64 65 64 72 72 70 75 74 76 73 74 75 79 78 78 79 78 79 81 81 77 71 67 69 70 70 69 68 67 67
72 68 72 72 70 70 67 62 62 62 63 64 64 64 64 65 70 70 73 76 77 78 76 76 79 78 78 78 78 78 79 80 79 77 74 66 67 69 70 69 69 68 67
72 68 67 70 67 66 66 65 62 61 61 62 63 63 64 66 69 73 73 76 78 79 79 79 78 77 77 78 77 78 78 79 79 77 75 71 66 67 69 69 69 68 68
70 67 65 65 68 65 66 64 62 61 61 62 62 63 64 69 72 73 76 78 78 79 79 79 78 78 78 79 77 77 78 77 78 78 75 73 70 64 66 68 68 68 68
75 68 66 66 63 64 63 62 61 61 60 61 63 63 66 71 72 73 75 76 79 77 79 78 77 77 77 77 76 76 77 77 76 76 77 76 73 73 66 65 67 67 67
77 71 67 62 61 61 62 62 62 62 62 62 63 63 66 70 72 74 75 76 74 75 77 77 76 76 74 75 76 76 76 76 75 77 76 76 75 75 73 65 64 65 66
78 73 67 63 63 61 61 62 62 62 62 63 62 65 70 74 73 74 75 71 72 74 75 76 74 76 75 75 77 74 73 74 75 74 74 76 76 75 76 72 69 68 63
76 71 70 63 62 62 61 60 60 59 61 63 62 64 67 73 74 73 76 74 75 75 75 74 73 72 72 74 71 70 70 71 72 74 75 74 74 74 74 75 72 71 69
74 70 67 64 65 63 62 63 63 63 62 64 63 63 65 67 72 72 72 72 73 74 72 72 71 70 71 71 68 68 62 65 69 72 74 73 72 74 74 74 74 74 72
73 70 71 65 62 65 66 66 64 63 62 61 61 62 62 65 69 74 73 71 70 70 69 69 70 69 65 68 68 65 59 59 64 71 70 72 71 72 74 73 72 72 72
74 74 70 66 64 64 65 62 60 60 58 61 61 61 60 62 66 72 71 69 68 70 66 70 71 70 66 61 66 69 69 68 59 58 69 70 72 71 70 72 71 67 70
76 73 74 67 67 65 65 64 61 61 62 63 60 60 60 60 63 68 68 64 63 66 64 66 67 68 67 63 62 66 69 68 68 62 63 66 69 71 72 69 67 65 63
78 74 73 68 67 68 66 68 65 67 64 62 60 59 60 59 60 63 65 64 62 63 62 65 69 67 66 66 64 67 66 65 65 65 64 65 63 67 70 66 61 61 56

GFSSE_sfc_temp_078.txt.gz
Temp
84 77 74 75 75 75 75 74 74 74 75 75 75 75 75 75 75 75 76 76 77 77 78 77 77 77 76 76 75 75 75 74 74 75 75 76 77 76 75 75 74 74 74
85 79 74 75 75 75 75 74 74 74 75 76 75 75 75 75 75 75 76 76 77 78 77 77 77 76 76 75 74 74 74 73 73 74 75 75 75 75 74 74 73 73 73
84 77 78 74 75 75 75 75 75 75 75 75 75 75 75 75 75 75 75 76 76 77 77 77 76 76 75 74 74 74 74 73 73 74 74 73 73 74 74 73 73 73 72
86 83 79 74 75 75 74 72 74 75 75 75 75 75 75 75 75 75 75 75 75 76 76 76 75 75 74 73 73 73 73 73 74 74 74 74 74 74 73 72 72 72 72
84 83 77 72 70 72 69 68 68 69 75 75 75 75 75 75 75 75 74 74 75 76 76 76 75 73 72 72 72 72 73 73 74 75 72 72 72 73 73 73 72 72 72
81 83 70 69 70 71 69 69 68 67 66 73 74 75 75 75 75 74 74 74 75 75 75 74 73 72 71 71 72 72 71 72 72 75 72 71 72 72 72 72 71 71 71
80 81 73 69 69 70 70 70 70 68 65 71 74 75 75 75 74 74 73 74 74 74 74 73 71 71 71 71 70 70 71 71 76 73 70 68 71 72 72 71 70 70 70
79 79 77 70 69 70 70 71 69 67 66 68 74 74 74 74 73 73 73 73 73 72 71 71 70 70 70 69 70 70 69 69 77 72 70 68 71 72 71 70 70 69 69
76 75 74 73 73 69 69 68 67 66 65 67 73 73 72 72 72 72 72 72 71 71 70 70 69 69 69 69 69 68 68 69 74 72 72 68 71 71 71 70 69 69 69
72 72 73 74 73 72 71 68 66 66 65 67 72 71 70 71 71 71 70 70 70 70 70 69 68 68 68 68 68 68 68 69 74 71 69 68 70 71 71 70 69 69 68
72 72 71 72 73 72 72 69 68 68 65 66 71 70 68 71 71 70 70 69 69 69 68 68 67 67 67 67 68 67 68 73 73 70 68 69 71 71 70 70 69 69 68
72 70 70 70 72 71 70 69 68 67 66 66 67 68 69 68 69 70 68 68 68 68 67 67 66 66 68 66 65 67 67 74 72 68 67 68 70 71 70 69 68 68 68
74 71 72 71 71 70 68 68 67 67 66 66 66 65 65 65 66 66 66 67 66 66 66 66 65 68 67 67 67 67 69 74 70 69 67 68 70 70 70 69 68 68 67
72 72 73 70 68 68 66 66 68 67 66 64 64 64 63 63 64 65 65 66 66 67 65 64 65 67 67 68 69 69 70 73 69 67 66 67 68 70 70 69 68 68 67
72 70 70 69 68 67 65 63 65 64 65 64 63 64 64 64 64 66 65 68 68 67 67 66 67 69 68 68 69 70 70 72 68 67 64 66 67 69 70 69 68 68 67
72 69 69 68 68 66 64 62 60 62 63 63 63 64 64 64 65 67 66 68 68 69 68 68 68 67 67 68 68 69 71 71 69 67 65 63 65 67 69 69 69 68 68
71 70 68 67 67 66 65 63 62 61 61 62 62 63 63 63 65 67 67 69 69 70 69 67 68 67 66 69 67 67 68 71 69 67 66 65 63 64 66 68 68 68 68
72 68 68 66 66 64 65 63 62 61 61 61 62 62 63 64 66 67 68 69 70 70 70 68 66 65 65 65 64 65 66 67 68 67 67 66 64 66 64 65 66 67 67
74 69 67 64 62 63 64 61 61 61 61 61 61 61 61 64 67 67 65 68 67 71 68 69 66 65 64 64 65 65 64 65 66 70 69 66 65 66 65 64 64 64 66
74 68 68 63 61 61 61 61 60 60 61 62 62 62 63 65 66 65 65 65 64 64 66 65 66 66 64 65 72 67 63 63 64 63 65 69 67 67 66 65 63 63 63
72 68 66 61 60 61 60 59 59 58 60 61 62 62 63 66 67 66 66 65 65 65 65 65 65 64 63 64 61 60 60 62 62 63 64 65 66 66 65 67 64 64 63
71 69 65 64 62 61 62 62 62 61 61 63 63 63 65 66 68 67 66 66 65 65 64 65 64 62 62 62 59 58 54 57 60 62 62 64 62 64 66 65 65 64 65
70 68 67 66 63 62 63 63 62 61 61 60 60 60 61 63 68 68 67 66 66 65 65 64 64 63 59 61 62 58 54 52 55 59 61 61 61 61 62 64 65 65 65
70 69 68 65 65 64 63 62 60 59 57 60 61 62 61 62 63 67 66 65 64 64 63 64 65 63 61 58 59 62 61 60 54 53 58 60 61 62 62 61 63 63 63
72 69 68 66 65 64 63 63 61 60 61 63 61 61 60 60 61 63 66 64 64 63 63 63 63 62 61 59 59 59 59 58 58 56 52 56 60 64 61 60 60 59 60
73 70 68 66 65 64 64 63 63 62 61 61 60 58 58 59 60 61 64 63 62 62 62 63 64 62 59 61 59 59 58 57 56 56 54 56 56 59 63 60 57 56 55

GFSSE_sfc_temp_081.txt.gz
Temp
73 73 74 75 74 74 74 74 74 74 75 75 75 75 75 75 75 75 76 76 76 77 78 77 77 77 77 76 75 75 75 75 74 75 76 77 76 76 74 74 74 73 74
74 74 73 74 75 75 74 74 74 74 75 75 75 75 75 75 75 75 76 76 76 78 78 77 77 77 76 75 74 74 74 73 73 74 75 75 75 75 74 73 73 73 74
73 73 74 74 74 75 75 75 75 75 75 75 75 75 75 75 75 75 75 76 77 77 77 77 77 76 75 74 74 74 73 73 72 73 73 73 73 74 74 73 73 73 73
75 74 73 73 74 74 74 74 75 75 75 75 75 75 75 75 75 75 75 75 76 76 77 77 76 76 74 73 73 73 73 73 72 72 73 73 74 74 74 73 73 72 72
76 75 74 72 73 71 71 71 73 74 73 74 75 75 75 75 75 75 74 74 75 76 77 76 76 74 73 72 72 73 72 72 71 72 71 71 72 73 73 73 73 72 71
75 73 69 71 70 71 71 71 70 69 67 66 69 75 75 75 75 74 74 74 75 75 76 75 74 73 72 71 71 71 71 71 70 67 71 71 71 72 72 72 72 71 71
73 69 69 69 70 72 71 72 70 70 70 68 66 69 74 75 74 74 73 74 74 74 74 73 73 72 71 70 71 70 70 71 69 66 65 69 70 71 72 71 71 70 70
71 69 69 70 70 70 71 71 69 70 69 70 67 65 73 74 73 73 73 73 73 73 72 71 71 71 70 70 69 69 68 70 69 66 65 70 71 72 71 70 70 69 69
69 69 67 68 69 69 69 69 68 68 69 66 66 67 70 72 72 72 72 72 71 71 71 70 70 70 70 69 69 68 68 69 67 67 68 70 71 71 71 70 69 69 69
68 68 68 68 67 65 65 67 67 67 67 66 66 66 70 70 71 71 71 70 70 70 70 70 69 69 69 68 68 67 69 68 67 65 64 67 70 71 71 70 69 69 69
67 66 66 69 69 66 65 66 67 67 66 67 67 66 68 70 69 69 69 69 69 69 68 68 68 68 68 68 68 67 68 68 66 65 64 69 71 71 71 69 69 69 69
64 65 65 66 66 67 68 65 64 65 64 63 63 67 67 67 67 68 68 68 68 67 67 67 67 67 67 64 65 66 68 67 66 65 65 69 70 71 70 69 69 68 68
65 65 65 65 65 65 65 64 64 64 63 63 64 65 66 66 66 65 66 66 65 65 65 65 66 65 63 63 64 64 67 66 65 66 67 69 70 71 70 69 69 68 67
65 65 66 66 65 65 64 63 63 64 64 64 65 64 64 64 64 64 64 64 64 60 60 61 62 63 63 65 66 65 67 65 64 64 66 67 68 70 70 69 69 68 67
64 64 64 66 65 63 62 60 62 63 65 65 64 64 64 64 64 64 63 64 64 64 63 62 61 64 64 65 66 66 66 64 64 64 63 65 67 69 70 70 69 68 67
64 63 63 65 64 61 61 60 62 63 64 64 64 63 64 64 64 64 64 64 64 64 64 64 64 63 63 64 64 65 66 64 64 62 62 63 65 67 68 69 69 68 67
63 63 62 63 64 61 59 60 61 62 63 63 63 64 64 64 64 65 65 63 64 63 64 65 64 63 62 65 64 64 66 64 64 62 61 59 62 64 65 67 68 68 68
63 62 63 65 63 62 59 60 61 62 62 62 62 63 64 63 65 65 66 65 65 63 65 64 65 62 61 62 61 61 63 64 63 63 62 61 59 62 63 65 67 67 67
63 62 61 62 63 62 61 59 60 61 61 61 62 62 63 63 64 65 66 65 65 65 64 65 64 64 62 60 61 60 61 63 62 65 62 61 59 60 60 63 64 64 65
62 62 61 61 62 62 61 60 59 60 60 61 61 62 63 65 65 65 64 62 64 62 63 64 64 61 62 63 69 64 59 60 63 62 62 63 62 62 62 63 62 63 63
62 61 60 60 60 61 60 58 58 58 59 60 61 61 62 65 65 66 63 62 62 62 64 64 61 62 60 61 59 57 58 58 58 58 60 62 62 63 62 63 62 62 62
61 60 59 60 60 60 60 60 60 60 61 62 61 61 62 62 65 64 63 62 62 63 62 61 62 59 60 60 57 56 52 56 57 58 57 60 61 64 63 63 62 62 62
60 59 59 61 60 61 62 62 61 61 60 59 59 60 60 62 64 66 64 64 63 64 63 62 62 61 58 58 62 55 51 51 52 55 56 56 58 57 61 63 63 62 62
61 60 60 60 60 61 62 61 59 58 57 59 60 61 61 61 63 66 63 64 62 62 63 63 64 64 58 56 56 60 58 57 51 50 54 56 57 58 58 57 61 62 62
63 61 60 60 62 62 62 62 60 59 60 61 60 60 60 59 61 61 62 61 61 60 60 61 62 61 59 58 56 55 55 55 55 53 50 54 57 58 58 60 60 60 62
63 62 60 60 62 62 62 62 61 60 60 59 59 59 59 58 56 58 62 63 63 60 59 60 60 60 60 59 58 58 57 55 54 53 52 52 53 57 62 60 58 58 56

GFSSE_sfc_temp_084.txt.gz
Temp
70 72 73 74 74 74 74 73 73 74 75 75 75 75 75 76 76 76 76 76 77 77 78 77 77 77 77 77 76 75 75 75 75 75 75 76 76 76 75 74 74 73 74
72 73 72 74 74 74 74 74 74 74 75 75 75 75 75 75 75 75 76 76 77 77 77 77 77 77 77 75 74 74 74 73 74 74 75 76 75 75 74 73 73 73 74
71 72 73 73 74 74 75 75 74 75 75 75 75 75 75 75 75 75 75 76 76 77 77 77 76 76 75 74 73 73 73 72 72 73 74 72 72 74 74 73 73 73 73
72 72 73 73 73 74 74 74 74 75 75 75 75 75 75 75 75 75 75 75 76 77 77 77 77 76 74 73 73 72 72 72 72 72 71 72 73 74 74 74 74 73 73
71 72 72 72 73 74 74 74 74 74 74 74 74 75 75 75 75 75 75 75 75 77 78 77 76 74 73 72 72 71 71 71 71 71 70 71 71 73 73 73 72 72 72
71 71 70 71 71 72 71 73 72 71 70 70 69 69 71 74 75 75 74 75 76 76 77 76 74 73 72 71 71 71 70 70 70 69 70 71 71 73 72 71 71 71 71
68 68 69 69 70 71 71 72 71 71 70 69 67 68 70 71 73 74 73 74 75 75 75 74 73 71 70 71 70 70 68 68 67 66 69 69 70 71 72 71 71 71 70
67 67 68 70 70 70 71 71 70 70 69 69 69 69 70 70 72 72 73 73 73 73 73 72 71 71 70 70 69 68 68 68 67 65 69 69 70 71 71 71 70 70 70
67 66 66 67 69 70 69 69 68 68 69 69 69 68 70 69 71 72 72 72 72 72 71 71 70 70 70 69 69 68 67 67 65 66 68 69 71 72 71 71 70 70 70
65 66 65 67 68 66 65 68 68 68 68 67 68 68 69 68 69 72 70 71 71 71 70 70 69 70 69 68 68 67 66 67 64 62 67 68 71 71 71 70 70 70 70
65 64 65 66 67 65 64 66 67 68 67 67 68 68 67 67 68 72 69 69 70 69 69 69 69 68 67 68 68 67 67 65 64 63 63 69 71 71 71 70 70 69 69
62 63 64 67 66 65 65 64 63 65 64 63 64 64 65 68 68 69 68 68 68 68 68 68 68 67 66 66 67 67 65 65 64 62 64 69 71 71 70 70 69 69 68
63 63 64 64 65 65 65 63 63 62 62 62 63 65 66 67 67 66 66 66 66 66 64 64 65 63 62 64 66 65 64 64 64 64 66 68 70 71 70 69 69 68 68
62 63 63 64 63 63 64 64 63 63 61 62 64 65 66 65 64 65 65 65 64 61 59 58 59 60 61 63 66 64 63 63 62 63 65 66 69 70 70 70 69 68 67
62 62 62 63 63 64 63 62 63 64 63 64 64 65 65 64 64 64 64 64 64 62 60 57 59 61 61 63 66 64 62 62 61 62 62 65 67 69 70 70 69 68 67
62 62 62 61 62 61 60 61 62 64 63 64 65 64 64 64 64 63 63 63 63 64 63 63 62 59 62 63 65 64 63 63 62 60 62 63 65 67 69 69 69 68 68
62 62 61 60 60 58 58 60 62 64 64 63 64 64 64 64 63 63 62 62 63 63 63 62 60 60 61 62 63 62 62 62 61 60 59 59 62 64 65 68 68 68 68
62 61 61 62 59 58 59 60 61 62 63 63 63 63 64 65 64 63 63 62 63 60 61 59 61 60 61 60 60 61 61 61 61 61 60 59 58 62 63 65 66 67 67
62 62 62 61 59 59 59 60 61 62 61 62 62 63 64 64 64 63 64 62 62 61 59 61 59 61 61 60 60 60 60 59 60 62 59 57 57 57 58 63 64 64 65
62 62 62 62 61 60 59 60 60 60 61 62 62 62 63 64 65 64 63 61 61 61 61 60 61 61 63 60 65 61 60 59 57 59 59 61 58 58 58 59 60 61 62
60 60 60 61 61 60 59 58 58 58 59 60 62 62 63 64 64 64 64 62 62 62 63 62 61 62 59 59 56 55 56 57 58 57 57 58 59 59 58 59 59 59 61
59 60 59 60 61 61 61 60 60 60 60 61 61 61 62 63 64 64 65 63 64 62 61 61 60 57 57 58 58 55 52 55 57 56 56 57 57 60 60 61 60 60 60
58 59 59 61 61 61 61 61 60 60 59 59 59 59 60 61 63 64 63 63 62 61 61 60 61 62 59 57 60 54 50 50 51 54 55 57 56 57 59 60 61 61 60
58 59 58 61 61 61 61 60 59 58 57 59 59 61 61 60 61 64 64 62 61 60 60 62 63 62 57 57 56 59 57 55 50 48 53 53 55 57 58 59 60 60 61
59 58 58 61 62 62 61 61 59 59 60 60 58 55 59 58 60 62 62 61 61 62 60 62 60 59 58 56 57 55 54 54 53 51 49 52 53 56 57 58 59 59 61
59 58 59 59 60 62 61 61 60 59 59 59 59 58 58 59 58 59 61 62 61 61 61 59 60 60 59 57 56 58 56 54 53 52 50 50 52 55 60 57 56 58 59

GFSSE_sfc_temp_087.txt.gz
Temp
71 72 73 74 74 73 73 73 74 74 75 75 76 76 76 76 76 75 76 76 77 77 78 78 77 77 77 77 76 75 75 75 75 75 75 76 76 76 75 74 74 73 74
71 72 72 73 74 74 74 74 74 74 75 75 75 75 75 75 75 76 76 76 77 78 78 77 77 77 77 75 74 74 74 73 73 74 75 75 75 75 75 73 73 73 74
70 72 72 73 74 74 74 74 74 75 75 75 75 75 75 75 75 75 75 75 76 77 78 77 77 76 76 74 73 73 73 73 73 73 73 72 73 75 74 73 73 74 74
71 72 71 72 73 74 74 74 74 75 75 75 75 75 75 75 75 75 75 75 76 77 77 77 77 75 74 73 72 72 72 72 71 71 70 71 73 74 74 74 73 73 73
69 71 73 72 72 73 73 73 74 74 74 74 74 75 75 75 74 74 74 74 75 76 78 77 76 74 72 71 71 71 71 70 70 70 69 71 71 74 74 74 73 73 72
68 70 70 71 72 73 73 74 74 73 71 71 72 74 75 75 74 74 73 74 75 77 77 76 74 72 71 70 70 70 70 70 69 68 70 71 71 73 73 72 71 71 71
67 68 69 70 71 73 73 74 72 70 70 70 70 72 71 72 71 72 73 74 75 76 75 74 72 71 70 70 70 69 69 69 67 67 68 69 70 72 72 72 72 71 71
67 67 69 71 71 71 72 72 70 69 69 69 69 70 71 71 71 71 72 73 74 73 73 72 71 71 70 69 69 68 67 68 67 67 69 69 71 71 73 71 70 70 70
66 65 68 68 69 69 69 69 68 69 68 68 68 70 70 70 69 69 72 73 73 72 71 71 70 70 70 68 68 67 66 67 64 66 70 69 70 71 71 71 70 70 70
64 64 64 65 68 67 66 68 68 67 67 68 69 69 69 69 69 69 70 73 72 71 71 70 70 69 69 68 67 66 66 66 64 65 68 69 71 71 71 71 71 70 70
63 63 63 66 67 66 64 66 68 68 68 68 68 68 67 66 68 68 68 72 71 70 70 69 68 68 68 67 66 66 66 63 63 62 64 69 71 72 71 71 70 70 70
61 62 64 64 64 65 65 63 62 64 64 63 64 65 66 66 67 68 68 69 69 68 68 68 67 67 67 65 65 65 63 63 62 61 63 68 71 72 70 70 69 69 68
62 62 62 64 65 64 64 62 62 63 63 62 62 62 63 64 65 66 66 66 66 67 66 66 64 63 65 64 62 61 63 63 63 64 66 68 70 71 71 70 69 69 68
61 62 62 63 64 65 64 63 63 62 62 61 63 63 63 64 64 66 65 64 64 64 61 61 59 60 62 63 62 61 62 63 62 62 65 66 69 71 71 70 70 69 68
61 61 62 62 62 62 64 63 63 62 61 62 64 64 64 64 64 65 65 64 62 62 62 61 59 61 62 62 62 61 62 62 60 62 62 65 67 69 70 70 70 69 68
62 62 61 62 62 62 62 63 63 63 62 62 63 64 65 65 64 64 64 62 63 63 60 61 60 60 61 63 60 61 62 61 60 58 61 63 65 67 69 70 69 69 68
62 63 62 60 59 60 60 61 63 63 63 63 63 64 64 64 64 64 63 62 63 64 63 63 59 59 61 64 60 60 61 61 59 58 58 59 62 64 66 68 68 68 68
62 61 60 61 58 57 59 60 62 63 63 63 64 64 63 63 63 62 62 62 62 62 62 62 62 60 60 61 59 60 60 60 58 57 58 58 58 60 63 65 66 67 67
62 62 60 58 57 57 59 59 61 62 62 63 62 63 63 63 62 62 62 61 60 61 61 62 59 61 58 58 59 57 57 57 57 60 57 57 57 57 58 63 64 64 65
61 63 62 59 57 58 59 60 60 61 61 62 62 62 63 63 61 60 60 59 61 59 59 57 59 58 58 59 62 59 56 56 57 56 57 59 57 57 57 58 58 59 62
62 63 62 59 58 58 58 58 58 58 60 60 62 62 63 63 61 60 59 59 60 61 60 59 59 58 54 56 54 53 54 55 55 55 56 56 57 57 57 58 57 56 60
62 62 61 61 60 58 60 60 60 59 60 61 61 62 62 63 62 61 61 60 62 61 60 57 59 57 55 56 55 53 50 53 54 56 55 57 57 58 58 58 58 58 58
61 60 61 62 61 59 59 61 60 58 59 58 58 60 60 62 62 61 60 61 61 62 60 60 59 59 56 56 60 54 49 49 51 53 55 55 55 56 58 59 59 59 59
61 61 59 61 61 62 59 58 59 58 57 59 59 59 59 60 61 62 61 60 61 61 60 60 61 62 57 57 55 57 57 54 50 48 52 54 56 56 57 58 59 59 60
61 59 58 59 61 61 61 60 59 58 59 59 59 58 59 58 60 62 61 60 60 61 61 60 59 58 57 57 55 54 54 53 53 51 49 51 52 57 59 57 58 58 59
60 59 57 60 61 61 61 60 60 59 59 57 57 57 57 58 58 59 61 61 61 60 59 60 58 57 56 57 59 58 57 55 53 52 51 51 53 55 58 58 57 58 58

GFSSE_sfc_temp_093.txt.gz
Temp
79 78 74 75 75 74 74 74 74 75 76 76 76 76 76 76 76 76 76 76 77 78 78 78 77 77 78 77 77 76 75 75 75 76 76 77 77 77 76 75 76 80 75
80 78 72 75 75 75 74 74 74 74 76 76 76 76 76 76 75 76 76 77 77 78 78 78 77 77 77 76 75 74 74 74 74 75 75 76 76 76 75 75 75 77 75
78 77 77 74 75 75 75 74 75 76 77 76 76 76 75 76 76 76 76 76 77 78 78 78 78 77 76 75 74 74 74 73 74 74 75 81 78 76 75 74 74 74 74
79 77 78 73 74 74 74 74 75 77 76 76 76 76 76 76 76 75 75 76 77 77 78 78 78 77 75 73 73 73 73 73 72 74 79 80 77 75 75 74 74 75 74
77 75 77 74 73 74 73 74 75 75 76 75 75 76 76 76 76 76 75 75 76 77 78 78 77 75 73 72 72 72 71 71 71 77 78 78 80 76 75 74 74 74 74
73 76 74 72 72 73 74 74 74 74 74 74 75 76 77 76 76 75 75 75 76 76 77 77 75 73 71 71 71 71 70 70 73 80 80 78 78 75 74 73 72 72 72
71 73 74 70 72 73 74 74 73 73 73 73 74 75 75 76 76 75 75 74 75 75 76 74 73 71 71 70 70 69 69 70 80 80 80 79 77 74 74 73 72 72 71
74 72 72 72 71 72 73 73 72 72 71 71 73 73 74 74 73 74 73 73 73 73 73 72 71 71 70 70 69 68 68 70 77 79 79 78 73 74 74 72 72 71 71
74 73 71 74 74 70 70 70 69 70 70 72 71 72 72 71 71 71 71 72 73 73 71 71 70 70 70 69 68 67 67 69 78 78 79 78 72 72 73 72 71 71 71
72 70 71 72 73 76 73 69 69 69 70 69 70 70 68 69 70 71 70 71 73 72 71 70 69 69 69 68 67 67 66 68 78 78 79 78 71 72 72 71 70 70 70
67 68 70 70 71 73 70 69 69 69 68 68 70 69 68 75 74 73 71 71 72 72 70 69 68 68 67 67 67 66 68 77 77 78 78 70 72 72 71 70 70 71 70
66 66 68 69 71 71 70 70 68 68 69 69 70 72 72 72 73 73 72 69 70 71 69 68 68 66 69 74 73 68 75 74 75 77 77 69 71 72 72 71 71 70 70
68 67 66 67 69 71 69 69 67 67 67 67 68 68 70 71 71 71 72 71 71 70 66 66 68 73 73 73 73 73 73 74 75 76 73 68 71 73 72 71 71 70 69
67 67 67 67 66 69 71 69 67 66 66 66 68 70 70 68 69 70 72 71 69 66 64 65 70 71 71 71 71 71 72 71 72 76 73 67 69 72 72 71 70 70 69
70 69 67 67 66 67 67 66 66 67 66 67 66 67 69 65 67 70 67 69 65 63 62 65 69 71 70 70 70 71 71 72 73 75 75 66 67 70 71 71 70 70 68
71 70 69 66 67 66 65 65 66 65 64 64 65 66 69 66 68 68 67 66 66 63 61 63 71 71 71 71 70 70 71 72 72 73 75 72 66 67 69 70 70 69 69
72 72 68 66 66 65 65 65 65 65 65 63 64 67 67 67 67 67 64 64 65 64 60 62 69 70 70 71 69 70 71 71 72 71 73 74 69 64 66 68 68 68 68
73 70 70 67 65 64 65 65 64 65 65 66 65 65 65 64 65 64 63 63 62 60 59 63 68 68 68 69 69 70 71 71 71 71 73 73 73 71 66 66 67 68 68
73 71 69 67 63 63 63 64 64 65 65 66 67 65 65 64 64 64 63 62 61 60 60 66 66 68 67 68 69 69 69 70 70 71 71 71 71 71 69 65 65 65 66
73 71 70 65 63 63 63 62 63 64 64 65 65 65 64 63 63 63 62 61 61 60 63 65 65 66 68 68 68 67 68 69 70 69 70 71 71 70 71 71 71 69 63
70 69 69 61 62 61 59 59 60 61 62 63 64 66 64 62 61 60 60 61 63 62 65 66 64 65 65 68 64 63 64 65 65 67 69 70 68 68 69 71 71 72 69
68 69 66 62 61 61 62 64 65 64 63 64 63 63 62 61 60 61 61 62 63 62 61 63 65 65 65 65 65 63 56 60 62 64 67 66 66 68 68 68 69 69 69
67 67 65 62 62 62 63 65 64 64 61 61 62 64 62 61 61 60 62 62 63 63 62 64 64 64 60 64 65 66 57 58 58 63 63 65 65 65 67 67 67 67 67
67 68 66 63 62 62 63 62 64 62 60 63 64 62 61 61 60 60 60 59 60 62 61 62 64 65 64 61 64 65 66 65 61 54 59 61 63 63 64 64 65 65 68
68 67 65 63 62 62 61 63 63 62 64 65 63 60 60 61 60 60 59 58 57 59 60 60 61 63 64 65 63 60 61 60 60 60 56 57 60 63 64 64 66 66 67
68 67 64 63 61 62 61 63 63 61 61 63 61 59 59 59 59 59 58 58 58 57 58 58 59 60 62 65 65 64 62 61 60 60 59 59 61 62 62 65 64 65 67

GFSSE_sfc_temp_096.txt.gz
Temp
91 89 74 76 75 75 75 75 75 76 76 76 76 76 76 76 76 76 76 76 77 78 79 78 77 78 78 77 77 76 76 76 76 76 76 77 77 77 77 76 77 82 75
94 88 73 75 75 75 75 75 75 76 76 76 75 76 76 76 76 76 76 77 77 78 79 78 78 78 77 77 75 75 75 74 74 75 76 77 77 77 77 76 76 78 75
91 88 80 74 75 75 75 75 75 76 77 77 76 76 75 76 76 76 76 76 77 78 78 78 78 78 77 75 74 74 74 74 74 74 76 84 82 76 75 74 74 74 75
92 90 86 73 74 74 74 74 75 76 77 76 76 76 76 76 76 76 76 76 77 77 78 78 78 77 75 74 73 73 73 73 73 74 82 84 81 76 75 75 75 75 74
90 89 86 73 74 74 74 74 75 76 75 75 75 76 75 76 76 76 75 75 76 77 78 78 77 75 73 72 72 72 72 72 72 79 84 83 82 77 75 75 74 74 75
87 88 76 72 73 74 74 74 74 75 74 74 75 76 78 78 77 76 76 76 76 77 77 77 75 73 72 71 71 71 71 72 73 87 84 81 79 75 74 73 73 72 72
86 86 82 71 72 74 74 74 74 74 74 74 75 76 76 76 76 75 75 75 75 74 75 75 73 72 71 70 70 70 71 72 88 80 82 76 76 74 74 73 72 72 72
83 82 81 73 72 73 74 73 72 73 73 72 74 75 75 75 74 74 74 73 71 70 70 72 71 71 70 70 69 69 70 71 83 80 79 79 74 74 74 72 71 71 71
83 79 78 79 77 70 71 71 71 71 71 72 72 72 73 72 72 73 73 73 71 70 70 71 70 69 69 69 68 68 69 71 81 80 81 77 73 74 73 72 71 70 70
81 80 76 76 77 82 79 69 70 70 70 70 71 70 69 71 71 71 71 72 72 72 72 71 69 69 68 68 68 67 68 70 83 84 83 78 72 73 73 72 72 70 70
79 79 74 75 79 82 78 75 70 70 70 70 70 68 68 81 79 74 74 70 71 71 72 71 69 68 67 67 67 67 68 82 82 82 81 70 72 73 72 71 71 70 71
75 74 75 76 79 80 79 77 76 78 75 77 78 76 79 81 81 81 75 69 70 69 70 70 68 66 69 76 76 69 79 82 84 85 80 69 72 72 71 71 70 71 70
80 76 73 74 77 79 76 76 74 72 73 73 74 77 79 79 78 77 80 78 77 71 74 67 65 71 74 76 74 77 80 81 84 84 73 68 71 72 72 71 71 70 69
82 78 73 73 73 77 80 73 72 71 70 70 71 73 74 77 76 76 78 77 76 75 73 70 66 71 74 76 77 79 79 82 83 84 72 68 70 72 72 72 71 70 69
83 78 74 72 72 78 78 77 74 72 70 73 70 71 72 72 71 73 76 76 74 73 69 68 66 70 73 76 78 77 78 79 80 83 79 67 68 70 72 72 71 70 69
85 81 77 70 71 74 76 74 71 72 74 72 71 70 70 71 72 72 74 73 70 70 67 65 67 70 73 77 77 77 77 78 78 79 80 73 66 68 70 71 71 70 70
87 85 79 72 72 70 73 72 75 71 74 72 69 68 69 72 73 70 70 70 67 65 67 65 68 70 74 77 77 77 78 78 79 79 80 76 72 64 67 69 70 70 70
89 85 81 78 70 70 72 69 69 70 69 71 71 69 69 71 72 69 67 69 66 64 65 63 67 69 74 76 75 77 78 78 77 78 80 79 78 75 66 66 67 68 68
89 86 81 79 71 70 71 69 68 70 67 71 72 71 71 69 68 67 65 65 63 62 63 63 68 70 72 73 76 77 77 77 77 78 74 78 77 75 74 65 65 65 66
88 85 82 79 73 68 68 67 67 68 67 70 72 71 71 69 67 64 64 63 61 60 60 61 67 69 72 74 76 74 75 76 77 73 72 76 78 75 74 72 72 70 64
85 83 81 78 71 67 65 64 63 64 65 67 73 69 70 65 63 63 63 62 61 60 60 62 68 69 68 73 70 67 68 70 71 72 72 76 77 76 76 76 77 77 72
82 81 80 79 69 69 72 73 70 68 68 70 69 68 68 65 61 62 62 62 61 60 60 62 68 68 68 70 66 67 57 61 66 70 70 74 74 77 76 76 76 76 77
80 80 80 79 68 69 75 74 70 71 69 68 67 64 61 61 61 61 61 62 61 61 61 66 69 68 66 69 71 70 61 61 66 70 68 72 72 73 74 74 74 74 74
80 81 80 76 67 68 72 73 72 70 67 69 67 71 63 63 61 62 60 61 61 62 65 66 69 71 70 67 71 75 75 74 66 60 68 70 71 70 69 73 73 73 73
83 79 78 70 66 67 69 74 72 73 75 70 69 67 64 62 63 60 61 62 63 64 65 69 69 70 71 70 67 67 67 68 71 69 63 65 69 70 71 71 71 71 71
83 78 74 65 65 66 69 72 72 72 72 69 67 66 60 60 59 60 59 59 61 63 63 64 63 63 64 68 69 70 70 66 66 66 68 66 65 68 70 70 68 68 69

GFSSE_sfc_temp_102.txt.gz
Temp
85 77 74 75 75 75 76 76 75 75 76 76 76 76 76 76 76 76 76 76 77 78 79 78 78 77 78 77 76 75 75 75 75 76 76 78 78 78 76 76 76 76 75
84 80 74 75 75 75 76 76 75 75 76 76 76 76 75 75 76 76 76 76 77 78 79 78 78 77 77 76 75 74 74 74 74 75 76 77 77 78 76 75 74 74 75
84 79 78 74 75 75 75 76 76 76 76 76 76 75 75 76 76 76 76 76 77 78 78 78 78 78 76 75 74 74 74 74 74 75 77 76 74 76 75 74 74 74 75
87 82 79 74 74 75 75 75 75 76 76 76 76 76 76 76 76 76 75 75 76 77 78 78 78 77 75 74 73 73 73 73 73 75 74 75 76 76 75 74 74 75 74
88 88 79 73 73 74 74 75 75 75 75 75 75 76 76 76 76 76 75 75 76 76 77 78 77 75 73 72 72 73 73 73 73 76 74 73 74 75 75 74 74 74 74
90 84 73 72 73 74 74 75 75 75 74 74 75 76 76 76 76 75 75 75 74 76 76 76 75 72 72 72 72 72 72 72 70 72 72 74 73 75 75 73 72 72 72
86 79 77 72 72 73 74 74 74 74 74 74 74 75 76 76 76 75 74 73 71 71 70 72 73 71 69 70 71 71 70 69 74 72 74 71 72 74 74 73 72 72 72
83 80 77 73 72 73 73 73 73 73 73 73 73 74 75 75 75 74 74 73 71 70 70 70 70 69 69 68 68 68 67 70 74 70 73 70 72 74 74 73 72 71 71
82 79 77 76 75 72 71 71 71 72 72 72 72 72 74 73 73 73 73 72 71 71 71 70 70 69 69 69 67 67 66 69 71 74 74 71 73 74 73 72 72 71 71
80 79 77 77 76 75 74 70 70 72 71 71 72 72 71 71 72 71 71 72 71 71 70 70 69 69 69 68 68 66 66 68 70 72 73 71 72 73 73 72 72 71 71
78 78 78 78 77 77 76 74 70 71 71 70 71 70 69 74 73 72 72 70 70 70 70 69 69 68 67 67 67 67 66 71 68 71 72 70 72 73 72 72 71 71 71
78 77 78 77 77 78 79 73 74 75 74 73 74 72 72 73 72 74 71 69 69 69 69 68 68 67 67 66 65 67 68 68 69 69 71 69 72 73 72 72 71 71 71
80 79 77 76 77 78 77 76 76 76 75 75 74 74 73 74 71 70 69 70 68 68 69 68 67 66 66 65 65 68 69 68 69 71 70 69 72 73 72 71 71 71 70
82 80 77 77 76 76 78 76 76 76 75 73 74 74 72 71 70 69 68 68 69 69 69 69 67 66 65 66 66 68 71 69 69 69 68 67 70 72 72 72 72 71 70
83 79 77 76 75 77 77 76 75 74 74 73 73 73 72 70 70 69 69 69 68 68 67 67 67 65 65 65 66 68 71 69 72 71 67 66 68 70 72 72 72 71 70
85 80 77 76 75 76 76 75 73 73 72 72 72 72 72 71 70 69 68 68 68 67 67 69 67 65 64 65 65 66 72 69 71 69 68 66 66 68 70 72 72 71 71
87 83 76 75 73 74 76 76 74 73 74 73 72 71 70 70 71 69 68 67 68 67 68 67 65 65 64 65 64 66 72 73 71 70 68 67 65 65 67 69 70 70 70
90 85 78 78 73 72 74 76 74 73 74 73 72 70 70 70 69 68 68 67 67 67 67 66 64 63 63 63 63 64 70 70 70 71 70 68 66 68 65 66 68 69 69
90 85 78 75 72 71 73 75 74 73 73 74 73 72 71 70 70 68 67 66 67 66 66 66 64 63 62 62 63 64 69 67 68 74 68 68 67 66 65 65 65 65 67
89 84 80 76 72 71 71 73 74 73 72 72 72 72 71 70 69 69 67 66 66 66 65 65 64 64 63 62 64 64 69 66 67 66 69 70 68 67 66 65 63 63 64
83 83 81 77 74 70 69 69 69 68 68 69 71 73 71 70 69 68 66 65 65 65 64 65 64 63 61 62 60 61 63 65 63 64 65 69 69 67 67 67 65 65 63
81 81 81 79 77 73 71 71 69 69 69 69 70 71 71 70 69 67 65 64 64 64 64 64 63 61 61 61 59 60 55 57 61 63 62 65 67 70 67 67 68 66 65
79 78 81 81 79 75 72 71 70 70 69 67 69 70 70 70 69 67 65 63 62 62 61 61 62 62 60 60 61 61 54 52 56 60 63 61 63 66 69 67 67 68 66
77 78 80 80 80 77 72 70 69 69 67 67 69 70 69 68 66 66 64 63 62 62 61 61 62 62 62 59 61 66 63 63 56 52 59 62 61 64 64 68 67 67 67
78 76 76 78 80 76 71 71 71 71 70 70 69 69 65 65 64 64 63 62 61 61 61 61 61 61 61 61 62 62 62 62 62 57 52 56 59 62 63 63 63 63 66
74 72 75 77 79 74 72 72 72 71 70 69 69 66 63 62 62 62 61 61 62 61 61 61 61 62 61 61 63 62 63 60 60 58 56 57 57 60 63 63 62 62 63

GFSSE_sfc_temp_105.txt.gz
Temp
72 73 74 75 75 75 75 75 74 74 75 75 75 75 76 76 76 76 76 76 77 78 79 78 78 78 78 77 76 76 76 75 75 76 77 78 78 77 76 75 75 75 75
73 74 73 74 75 75 75 75 75 75 75 75 75 75 75 75 75 76 76 76 77 78 78 78 77 78 77 76 75 74 74 74 74 75 76 77 77 77 76 74 74 74 74
73 73 74 73 74 75 75 75 75 75 75 75 75 75 75 75 75 75 75 76 77 77 78 78 77 77 76 75 74 74 74 74 74 74 75 73 74 76 75 74 74 74 75
74 74 73 73 73 74 74 75 75 75 76 75 75 75 75 76 76 75 75 75 76 77 77 77 78 76 74 73 73 73 74 73 73 73 72 73 74 76 75 75 74 75 75
77 75 74 72 73 73 74 74 74 75 75 75 75 75 76 76 76 75 75 74 76 77 78 77 76 74 73 72 72 73 73 73 72 73 70 71 73 75 75 75 74 74 73
79 75 71 71 72 73 74 74 74 74 74 74 74 75 76 76 76 75 73 73 73 73 73 75 75 73 70 70 72 72 72 70 70 69 69 72 72 75 75 73 73 73 72
73 72 72 71 72 73 74 74 74 74 73 73 74 74 75 76 76 75 72 72 72 72 72 72 72 71 70 70 70 70 69 68 70 67 69 69 72 75 74 73 72 72 72
72 71 71 72 72 72 73 73 73 73 73 73 73 74 75 75 74 74 72 72 70 71 71 71 70 70 70 69 68 67 67 70 70 67 68 69 73 74 74 73 71 71 71
73 70 69 70 71 71 71 71 71 72 72 72 72 72 73 72 73 74 71 71 70 71 70 71 70 70 70 69 68 67 66 69 68 67 71 70 73 74 73 72 72 71 71
71 70 68 68 68 68 68 70 70 71 71 71 71 70 71 71 72 72 71 71 70 70 70 71 70 69 69 69 68 66 66 66 68 68 69 70 72 74 73 72 72 71 71
72 70 69 68 69 68 68 70 70 71 71 71 71 70 68 69 70 70 70 70 70 70 70 70 69 69 68 68 69 67 67 65 67 69 68 70 72 73 73 72 71 71 71
69 69 70 69 69 70 73 68 67 69 67 68 68 68 68 68 68 70 69 69 69 69 69 68 68 67 67 65 66 67 65 66 66 67 69 70 72 73 72 71 71 71 71
72 71 70 70 70 71 70 68 68 67 66 67 68 68 68 68 67 67 67 68 67 67 67 66 65 64 64 64 65 66 66 65 65 66 69 69 72 73 72 71 71 71 70
72 72 71 70 70 70 71 70 69 69 67 66 67 68 67 66 66 65 67 66 65 65 64 64 63 63 63 64 64 66 67 64 64 67 68 67 70 72 72 72 72 71 71
74 72 72 72 69 71 71 70 69 68 68 68 68 68 68 66 66 66 65 66 65 66 64 64 63 63 62 63 64 66 67 65 67 66 68 66 68 71 72 72 72 71 71
77 74 72 72 72 71 69 69 68 69 68 67 67 67 67 66 66 66 65 66 66 66 64 65 64 63 62 63 63 66 66 65 66 67 66 66 66 68 70 72 72 72 72
78 76 72 71 72 71 69 68 67 68 67 66 66 70 67 66 66 66 65 65 65 65 64 64 64 63 62 63 63 65 66 65 66 67 66 66 65 64 66 70 70 71 71
73 75 73 74 71 70 68 68 67 67 66 66 66 66 66 66 66 66 65 65 65 64 64 63 64 62 61 62 62 63 64 64 66 66 66 64 63 65 65 66 68 69 69
73 75 72 72 70 70 68 68 67 66 65 68 67 66 66 66 66 65 65 65 65 63 64 63 62 63 61 61 62 62 63 62 66 68 65 64 63 61 61 64 65 65 67
73 77 73 70 69 69 69 66 67 67 64 65 67 67 66 67 66 65 63 63 63 63 63 63 62 62 62 61 64 63 62 61 68 65 64 66 64 63 62 62 64 63 64
71 74 73 69 67 67 67 64 67 64 64 63 64 67 67 66 66 65 64 63 62 63 63 63 62 61 59 61 60 59 59 61 62 65 64 64 64 64 63 63 61 61 62
72 70 71 69 66 67 68 68 66 69 66 69 64 64 65 66 65 64 63 63 63 63 62 62 63 61 61 61 59 57 54 57 59 61 63 64 63 64 63 63 63 62 61
68 68 70 70 67 67 68 68 64 64 66 65 67 66 63 64 65 64 63 63 63 64 63 63 63 62 60 61 61 59 54 54 54 57 59 62 64 63 63 64 64 64 62
66 67 68 70 68 67 67 67 66 64 64 66 67 66 63 64 63 64 62 62 64 63 63 63 63 62 61 59 60 61 62 60 55 51 56 59 61 63 63 64 63 64 64
63 64 66 66 67 69 68 68 66 64 65 63 65 66 63 62 63 63 64 62 62 62 62 62 62 61 61 61 61 59 59 60 59 55 51 54 56 59 60 63 63 63 64
58 59 61 63 64 67 67 67 66 66 65 63 63 62 60 61 60 62 61 61 62 61 61 61 62 61 61 61 62 60 59 59 58 56 54 54 57 57 59 60 61 64 61

GFSSE_sfc_temp_108.txt.gz
Temp
71 73 74 75 75 75 74 74 74 74 75 75 76 75 75 75 75 76 76 76 77 78 79 78 78 78 78 77 77 76 76 75 75 76 76 77 77 77 76 75 75 74 75
72 73 73 74 75 75 75 74 74 74 75 75 75 75 75 75 75 75 76 76 77 78 78 78 77 78 77 76 75 75 75 74 74 75 76 77 77 77 76 74 74 74 74
71 73 73 73 74 75 75 75 75 75 75 75 75 75 75 75 75 75 75 76 77 77 78 77 77 75 76 75 74 74 74 74 74 74 75 73 75 76 75 74 74 74 74
72 72 72 73 73 74 74 74 74 75 75 75 75 75 75 75 75 75 75 75 76 77 78 77 77 76 75 73 73 73 73 72 72 72 71 72 75 76 75 74 74 75 75
72 72 72 72 73 73 74 74 74 74 74 74 75 75 75 76 76 75 75 75 76 77 78 78 77 75 73 72 72 73 72 72 71 70 68 71 73 75 75 74 74 73 73
72 72 70 71 72 73 73 74 74 73 73 73 74 75 75 76 76 75 73 74 75 76 77 77 75 73 71 72 72 72 70 70 70 67 70 73 73 75 75 74 73 73 73
70 70 70 70 71 73 73 74 73 73 73 73 73 74 75 75 75 73 73 73 73 74 75 74 73 72 71 70 71 70 69 70 68 68 67 69 72 75 74 73 73 72 72
70 69 70 71 71 72 72 72 72 72 72 72 73 73 74 74 74 72 72 72 72 72 72 73 72 72 71 70 69 69 68 69 68 66 68 68 73 74 74 73 71 71 71
70 68 68 69 71 70 70 70 70 71 71 72 72 72 73 72 71 71 71 70 71 71 71 71 71 71 71 70 68 67 67 68 66 66 68 70 73 74 73 72 71 71 71
68 68 67 67 68 68 69 69 70 70 70 70 71 71 71 71 71 71 70 70 70 71 71 71 69 69 69 68 67 67 66 67 66 65 66 70 72 74 73 72 72 71 71
67 66 66 67 67 66 67 69 70 70 70 70 70 70 69 70 70 70 70 68 69 69 70 70 69 69 68 67 66 66 66 66 67 65 65 70 73 74 73 72 71 71 71
66 65 66 66 66 66 70 67 67 68 67 67 68 68 68 68 68 70 69 68 69 69 69 68 68 68 67 64 65 66 66 66 66 66 66 69 72 74 73 71 71 71 71
68 68 67 67 67 67 68 66 66 66 65 65 66 67 67 67 67 67 68 68 67 68 66 66 65 64 63 63 65 66 66 66 66 65 68 68 71 73 73 71 71 71 71
68 69 68 68 68 68 67 66 66 66 65 65 66 67 66 66 65 66 66 67 66 64 63 63 62 62 62 63 65 65 66 64 65 65 66 66 70 73 72 72 71 71 70
70 70 69 69 68 69 68 67 67 66 66 66 66 67 66 65 65 65 65 65 65 64 63 62 61 61 61 62 62 64 66 65 65 65 66 66 68 71 72 72 71 71 71
72 70 71 70 71 70 69 68 67 67 67 66 67 67 66 66 65 65 65 65 65 65 64 63 62 62 61 61 61 63 65 65 65 65 66 66 65 68 70 72 72 72 71
74 72 70 70 70 69 70 68 67 68 67 66 67 66 66 66 66 65 64 64 64 65 64 62 61 62 60 62 61 62 64 64 64 64 65 66 65 65 66 69 71 71 71
75 72 71 73 70 70 68 69 68 68 67 66 66 68 67 66 66 65 64 64 64 63 64 63 63 63 62 62 61 61 62 64 64 64 64 65 64 65 65 66 68 69 70
73 74 70 70 69 70 69 69 67 67 67 66 65 65 68 65 66 65 64 64 64 63 63 63 63 64 62 61 61 61 61 62 63 64 64 64 62 60 61 64 65 66 67
67 74 72 70 70 70 67 66 65 65 65 66 65 65 66 66 65 64 64 64 63 62 63 64 64 63 62 62 62 61 60 61 61 62 62 65 63 61 60 61 64 63 64
65 71 71 69 68 68 66 65 64 65 64 64 65 66 65 66 65 65 64 63 62 62 63 63 62 61 60 61 60 59 59 59 59 60 61 63 62 62 59 61 60 63 64
63 70 70 69 67 68 70 69 67 67 65 65 64 65 66 65 65 65 64 63 62 61 61 63 62 60 61 61 60 59 55 56 57 59 59 61 61 62 61 62 61 61 61
60 61 66 66 66 69 70 67 63 62 62 62 62 63 64 65 65 65 64 63 62 62 62 62 62 61 59 61 61 58 53 52 55 57 58 60 60 61 61 62 61 62 61
56 59 61 65 66 66 65 66 65 65 63 66 67 65 64 64 64 64 62 62 62 63 63 63 63 62 61 59 59 62 60 59 55 52 56 58 61 61 60 61 61 61 61
53 53 57 57 61 63 64 65 64 66 66 62 63 63 64 63 63 64 62 62 62 63 63 63 62 62 62 61 60 59 57 59 58 57 53 54 57 62 61 61 61 60 61
50 50 53 52 55 57 60 65 66 64 62 62 62 62 64 64 63 63 63 62 63 62 62 62 63 62 62 62 61 60 59 59 57 58 55 55 57 55 58 61 60 60 61

GFSSE_sfc_temp_111.txt.gz
Temp
69 72 73 74 74 74 74 74 74 75 75 76 75 76 76 76 76 76 76 77 77 78 78 78 78 78 78 78 77 77 76 75 75 76 76 77 77 77 76 75 75 74 75
72 72 73 74 74 74 74 74 74 75 75 76 75 75 75 75 75 76 76 76 77 78 78 78 78 78 78 76 75 75 75 74 74 75 76 77 77 77 75 74 74 74 75
72 72 73 73 74 74 75 74 75 75 76 76 75 75 75 75 75 75 75 76 76 77 78 78 78 78 77 75 74 74 74 74 73 74 75 73 75 76 75 74 74 74 75
72 72 73 73 73 74 74 74 74 75 75 75 75 75 75 75 75 75 75 75 76 77 78 78 77 76 75 74 73 73 73 72 72 72 70 73 74 75 75 74 75 75 75
71 72 72 72 73 73 74 74 74 74 74 74 75 75 75 75 75 75 74 75 76 77 78 78 77 75 73 72 72 72 72 71 70 70 70 72 72 75 75 75 74 74 74
70 71 71 71 72 73 73 73 73 73 73 73 74 75 75 75 75 75 74 75 76 77 77 77 75 73 72 71 71 71 71 70 69 68 70 72 72 75 75 73 73 73 72
68 69 70 70 71 73 73 73 73 73 72 73 73 74 75 75 75 73 73 74 75 75 76 75 73 72 72 71 71 70 69 69 68 67 70 69 71 75 75 74 73 73 73
68 69 70 71 71 71 72 72 72 72 72 72 73 73 74 74 73 73 73 73 73 73 73 73 72 72 71 71 70 69 68 69 68 67 69 69 73 75 75 74 72 72 72
68 68 68 69 71 70 70 70 70 71 71 72 72 72 72 71 71 72 72 72 72 72 72 72 71 71 70 70 69 68 67 67 66 66 69 70 73 74 74 72 72 71 71
66 67 67 67 68 68 68 69 69 70 70 70 71 71 70 70 71 71 70 71 71 71 71 71 70 70 69 68 68 67 66 67 66 65 65 70 72 73 73 72 72 71 71
65 65 66 67 66 66 66 68 70 70 70 70 70 70 68 69 69 70 69 69 70 70 70 69 69 69 68 67 67 66 67 65 65 65 65 70 73 74 73 72 71 71 71
64 64 66 66 66 66 68 66 66 68 68 68 69 69 68 68 68 69 69 68 68 69 69 69 68 68 66 64 65 66 65 66 65 65 66 69 72 74 73 71 71 71 71
66 65 65 66 66 66 67 67 65 65 65 65 66 67 67 67 67 67 67 66 65 67 65 66 65 63 62 62 63 63 64 66 65 66 67 68 71 74 73 71 71 71 71
65 66 65 66 66 66 66 67 66 65 64 64 65 66 66 66 66 67 68 67 66 65 64 63 62 62 62 62 63 63 64 64 64 65 66 66 69 73 73 72 71 71 70
66 67 66 66 66 66 66 66 65 64 64 64 65 66 66 66 65 67 67 67 66 64 63 61 61 61 61 61 62 63 63 64 64 64 65 64 67 70 72 73 72 71 71
69 67 67 66 67 67 66 66 66 65 64 64 65 66 66 66 65 66 66 66 65 64 62 62 61 60 60 60 62 64 64 63 64 64 65 64 64 67 70 71 72 71 71
70 69 68 67 67 67 67 66 66 66 66 65 65 65 65 65 64 65 65 65 65 63 62 61 60 60 59 60 60 61 62 62 63 64 64 64 64 63 66 69 70 70 71
71 69 68 70 68 67 67 67 67 67 66 65 65 66 65 65 65 64 64 64 63 63 63 61 61 61 62 61 59 60 61 61 62 64 64 63 63 66 64 66 68 69 69
72 71 68 69 67 67 68 68 67 67 66 65 66 66 65 65 65 64 63 63 63 62 62 62 62 62 61 61 61 60 60 60 62 64 63 63 62 62 62 64 65 66 67
68 72 70 69 68 68 67 66 64 65 65 65 65 66 66 66 65 64 63 62 62 62 62 62 61 63 63 62 62 61 61 59 61 62 62 63 62 61 61 61 62 62 64
64 69 69 67 67 68 66 65 64 64 65 64 65 66 66 65 64 64 63 62 62 62 62 62 63 62 61 61 59 59 60 59 60 61 62 61 61 61 60 60 59 62 64
55 60 65 67 66 68 67 68 67 67 64 65 65 64 66 65 65 64 63 62 62 62 62 63 62 61 61 61 58 58 55 56 58 59 60 60 60 62 61 61 60 60 64
51 53 61 64 66 67 67 67 63 63 62 60 64 64 64 65 65 65 64 64 62 63 62 63 62 62 59 60 61 58 53 52 55 57 58 58 58 60 61 61 59 59 59
48 51 55 63 66 67 67 67 64 66 64 64 64 66 66 65 64 65 65 64 63 63 63 63 62 62 61 59 60 62 58 57 54 51 56 57 58 58 59 60 60 59 59
47 47 52 55 56 57 64 66 65 64 66 61 62 61 63 64 64 64 64 64 63 64 64 63 62 62 62 61 60 60 58 57 58 55 53 54 57 58 60 60 60 60 59
45 45 48 50 52 53 54 59 64 64 64 61 62 61 61 62 63 64 64 63 63 63 62 63 63 62 62 61 61 61 60 58 57 57 55 55 55 57 59 60 59 60 59

GFSSE_sfc_temp_114.txt.gz
Temp
69 71 74 74 74 74 74 74 74 74 75 76 76 76 76 76 76 76 76 76 77 78 79 78 78 78 78 78 77 76 76 75 75 76 76 77 77 77 76 75 75 75 76
71 72 73 74 74 74 74 74 74 75 76 76 75 75 76 76 76 76 76 76 77 78 79 78 78 78 78 77 76 75 75 74 74 75 76 77 78 77 76 74 74 75 75
71 72 72 73 74 74 74 75 75 75 76 76 75 75 76 76 76 76 76 76 77 78 78 78 78 78 77 76 74 74 74 73 74 74 75 75 75 76 76 74 74 74 75
71 71 72 73 73 74 74 74 75 76 76 75 75 75 75 75 75 75 75 75 76 77 78 78 78 77 75 74 74 73 73 73 72 72 72 73 75 76 75 74 74 75 75
71 72 72 72 72 73 74 74 74 75 74 74 75 75 75 75 75 75 74 74 76 77 78 78 78 75 73 72 72 72 72 71 71 71 72 72 73 75 76 75 74 74 74
70 71 71 71 72 73 73 74 74 74 73 73 74 75 75 76 75 75 74 74 76 77 77 77 76 73 72 71 71 71 71 70 69 69 72 73 73 76 75 74 73 73 73
69 69 70 70 71 73 73 73 73 73 72 73 74 74 74 75 75 74 73 74 75 76 76 75 73 72 71 71 71 70 69 69 69 69 72 70 72 75 75 74 73 73 73
68 69 70 71 71 72 72 72 72 72 72 72 73 73 74 74 73 73 73 73 74 74 73 73 72 71 71 70 70 69 68 69 68 68 70 70 72 75 75 74 73 72 72
67 69 70 71 71 71 70 70 70 71 71 72 72 72 72 71 71 72 72 73 73 72 72 72 71 71 70 70 69 68 67 68 67 67 70 71 73 75 75 74 72 72 72
65 68 69 71 69 69 70 69 69 70 70 71 71 71 70 70 71 71 71 72 72 72 71 71 70 70 70 69 68 67 66 67 66 67 67 68 72 74 74 73 72 72 71
65 67 69 69 69 67 67 69 70 70 70 70 70 70 68 69 69 69 69 70 71 71 70 70 69 69 68 68 67 67 67 66 66 66 66 70 72 74 73 72 71 71 71
63 65 67 68 68 67 68 69 69 71 71 70 69 69 68 68 68 68 68 68 69 69 69 69 69 67 66 64 64 66 65 65 65 65 65 68 72 74 73 72 71 71 71
65 64 67 68 68 68 69 68 68 69 68 68 67 67 66 67 67 66 65 65 65 67 65 65 65 63 62 63 63 63 65 65 65 65 66 67 71 74 73 72 71 71 71
64 64 65 66 66 67 68 68 68 67 66 66 67 67 67 67 67 67 65 64 64 63 63 63 62 62 61 62 63 63 63 64 64 65 66 65 69 73 73 72 71 71 71
63 64 64 65 65 66 66 68 67 67 65 65 65 67 67 67 67 67 67 65 66 65 64 62 61 61 61 61 62 63 63 63 64 65 65 65 65 70 73 73 72 72 71
66 65 65 64 65 66 65 67 66 65 63 64 65 67 66 66 66 68 67 66 66 65 62 62 61 60 60 60 61 62 63 63 63 64 64 65 63 65 69 72 72 72 71
69 68 65 65 65 65 65 64 65 65 64 64 65 66 65 65 65 67 66 65 65 64 61 61 60 60 60 60 60 61 62 62 63 64 64 64 64 62 64 68 70 70 71
70 67 67 68 65 65 65 65 65 65 64 64 64 66 65 65 65 65 66 65 65 63 61 60 61 60 60 61 60 60 61 62 62 63 64 64 64 64 63 65 68 69 69
70 69 67 67 65 66 66 66 65 65 65 64 64 65 65 64 64 64 65 65 64 63 63 62 61 60 59 61 61 60 60 60 62 64 63 63 63 62 62 63 65 65 67
70 71 69 68 67 67 67 67 67 66 66 65 65 65 64 65 64 63 63 62 63 63 63 62 62 62 60 61 62 61 62 61 62 63 63 63 63 62 61 63 64 63 64
60 67 69 66 66 67 67 66 66 65 65 65 65 65 65 64 64 63 62 62 63 63 63 62 62 62 61 62 60 59 60 60 60 62 63 62 62 62 61 62 63 62 64
50 54 62 66 66 67 69 69 67 68 68 67 66 65 65 64 64 64 63 62 63 63 62 62 62 61 61 61 58 58 55 56 59 61 61 62 61 61 60 62 62 62 64
45 48 54 63 65 67 68 67 63 64 63 63 65 64 64 64 64 64 64 63 62 63 62 62 62 62 59 60 61 59 54 53 55 58 59 60 60 60 60 61 61 61 62
44 48 50 56 63 66 68 67 66 65 64 66 66 66 65 64 65 65 64 63 63 63 63 63 63 62 62 59 60 61 60 58 54 51 56 58 59 59 59 59 61 61 61
44 46 48 54 54 54 57 67 66 65 64 62 63 65 65 65 65 65 65 64 63 63 64 63 62 62 62 62 60 59 60 57 57 54 52 54 57 59 59 59 60 61 60
43 45 48 51 51 52 53 55 62 65 64 61 62 63 64 64 64 64 65 65 65 64 63 63 63 62 62 62 62 61 60 58 56 55 54 56 56 57 59 58 59 60 61

GFSSE_sfc_temp_117.txt.gz
Temp
79 80 74 74 75 75 74 74 75 75 75 76 77 76 76 76 76 76 76 77 77 78 79 78 78 78 78 78 78 77 76 76 75 76 77 78 78 77 76 75 76 81 76
80 80 73 74 75 75 75 74 75 75 75 76 76 76 76 76 76 76 76 77 76 78 79 78 78 78 78 77 76 75 75 74 74 75 76 77 77 77 76 75 76 78 75
79 80 78 73 74 75 75 75 75 76 76 76 76 76 76 76 76 76 76 76 77 78 79 78 78 78 78 76 75 75 74 74 74 75 76 82 79 77 75 74 74 75 75
81 80 80 73 74 74 75 75 75 76 76 76 76 76 76 76 76 76 75 75 77 78 78 78 79 78 76 74 74 74 73 73 73 74 81 77 81 76 76 75 75 75 75
80 80 79 73 73 74 74 74 75 75 75 75 75 76 76 76 76 76 75 75 76 77 78 79 78 76 74 73 73 73 72 72 72 77 78 77 81 76 76 75 75 74 75
79 80 74 71 72 73 74 74 74 74 73 74 74 75 76 76 76 75 74 75 76 77 78 78 76 74 72 71 71 71 71 71 72 81 78 77 77 76 76 75 74 73 73
78 79 77 71 72 73 74 74 74 73 73 73 74 74 75 75 75 74 74 74 75 76 76 75 73 72 71 71 71 70 70 70 80 80 77 77 76 75 75 74 73 73 73
77 77 77 72 71 72 73 73 72 72 72 73 73 74 74 74 74 74 73 74 74 74 74 73 72 71 71 70 70 69 69 70 77 78 76 75 75 75 75 74 73 73 73
75 75 75 76 75 70 70 70 70 71 72 72 72 72 73 72 72 73 73 73 73 72 72 72 71 70 70 70 69 68 68 68 78 78 76 79 73 75 75 74 73 73 72
72 73 73 74 75 76 75 69 69 70 70 71 71 71 70 71 71 72 72 72 72 72 72 71 70 70 70 69 68 67 67 67 77 78 78 79 73 75 75 74 73 73 72
69 71 72 72 73 74 74 73 71 70 70 70 72 70 70 78 78 76 74 70 71 71 71 70 70 69 68 68 68 67 66 73 75 76 75 70 72 75 75 73 72 72 72
68 69 71 71 71 71 73 73 74 75 77 77 77 77 77 77 77 77 73 69 70 69 69 69 68 68 69 77 76 69 71 71 71 68 70 66 71 73 74 72 71 71 71
73 71 69 70 71 71 72 72 71 73 73 74 76 76 76 75 74 75 77 77 75 71 77 75 74 76 75 75 75 76 74 71 71 69 68 66 70 72 73 72 71 71 71
73 73 70 71 70 70 73 71 71 71 71 71 74 75 73 71 71 74 77 76 75 75 74 76 76 74 73 74 75 74 74 70 73 69 67 66 68 71 73 72 72 71 71
74 73 71 69 69 70 70 71 70 69 69 71 71 72 74 71 70 73 74 75 75 73 73 73 75 73 72 73 73 74 75 74 74 73 73 65 66 69 71 73 72 72 71
77 74 72 68 69 70 69 70 70 69 70 70 71 71 71 72 70 71 71 72 73 73 69 73 74 72 72 72 72 73 74 74 74 74 73 69 64 65 68 71 73 72 71
79 78 72 71 70 69 69 70 69 69 71 73 71 70 70 71 70 70 69 70 72 71 68 72 71 71 71 71 72 72 73 73 73 71 72 72 67 64 64 66 68 71 71
80 78 74 74 71 70 70 69 69 70 73 74 72 70 69 70 71 70 69 69 71 67 67 69 67 68 70 70 70 71 72 73 73 73 71 70 70 68 63 64 66 68 69
81 79 75 73 71 71 71 71 71 71 73 74 73 70 68 70 71 69 69 68 67 67 66 67 65 68 66 69 69 69 69 71 71 72 69 69 69 69 66 63 63 65 67
79 78 77 73 72 72 72 70 72 70 72 73 73 73 69 69 69 70 68 68 67 66 64 66 66 68 69 71 67 66 66 67 69 67 68 69 70 69 67 63 64 66 64
71 75 76 73 72 71 71 68 68 66 68 69 74 73 70 69 69 69 67 66 66 65 65 65 65 64 65 69 64 62 63 64 64 64 65 65 67 68 67 63 64 68 70
56 61 73 73 73 71 73 71 71 68 70 70 70 70 70 70 69 69 67 65 65 65 64 64 64 62 63 65 61 60 56 60 61 64 65 64 65 65 64 62 63 68 69
52 55 60 69 73 71 71 70 69 69 68 66 68 68 68 71 69 69 68 67 66 65 64 64 64 64 61 62 63 62 56 55 59 62 62 63 63 62 63 64 61 64 70
50 53 58 60 69 70 69 69 67 68 65 68 69 69 67 69 69 70 69 68 66 66 65 64 64 64 65 61 61 64 64 62 58 54 58 61 62 61 62 63 61 62 68
49 50 53 56 56 57 64 68 66 67 69 69 68 66 67 67 68 69 68 67 66 66 67 66 65 64 65 66 63 61 64 63 64 57 54 57 59 62 63 62 62 62 65
47 48 50 54 54 54 56 57 65 68 68 66 67 65 66 67 66 67 68 67 67 67 68 67 66 65 65 65 64 63 63 60 58 57 56 56 57 59 61 61 60 61 63

GFSSE_sfc_temp_123.txt.gz
Temp
103 87 74 75 75 76 75 75 75 76 76 77 77 76 76 76 76 76 76 77 77 79 80 79 79 79 79 79 78 77 77 76 76 77 77 78 78 77 77 77 77 81 76
102 88 74 75 75 76 76 75 75 76 77 77 76 76 76 76 76 76 76 77 77 79 80 79 79 79 79 78 77 76 75 75 75 75 77 78 78 77 77 77 77 79 75
99 91 81 74 75 75 76 75 75 76 77 77 76 76 76 76 76 76 76 76 77 79 79 79 79 79 78 77 76 75 75 75 74 75 76 83 79 77 78 75 74 75 75
99 94 88 73 74 75 75 75 75 76 77 76 76 76 76 76 76 76 76 76 77 78 79 79 79 79 77 75 75 74 74 74 74 74 83 78 83 76 76 75 75 75 75
98 95 90 73 74 75 75 75 75 75 75 75 76 76 76 76 76 76 75 75 77 78 78 79 78 77 75 74 74 74 74 73 73 77 81 83 82 78 76 75 75 74 75
97 96 75 72 73 74 75 75 75 74 74 74 75 76 76 77 76 76 75 75 77 77 78 78 77 75 73 73 73 73 73 72 72 83 79 82 83 76 76 75 75 74 74
94 95 84 71 72 74 75 75 75 74 74 74 75 75 76 76 76 75 75 75 76 77 77 77 75 74 73 72 72 72 72 72 83 83 86 82 82 76 76 75 74 73 74
93 92 88 74 72 73 74 74 73 73 73 74 74 74 75 75 74 74 74 75 75 75 75 74 73 73 72 72 71 71 70 70 80 83 82 82 75 75 76 74 73 73 73
90 90 90 83 78 71 71 71 72 72 72 73 73 73 74 73 73 74 74 74 74 74 74 73 72 72 72 71 70 69 69 71 81 81 82 81 74 75 75 74 73 72 72
87 87 87 85 84 83 81 71 71 71 71 72 72 72 71 71 72 73 73 73 74 73 73 72 71 71 71 70 69 68 68 70 82 81 81 80 73 75 75 74 74 73 72
87 86 86 86 86 85 85 80 72 71 71 71 73 71 72 84 82 79 77 72 72 72 72 71 71 70 69 69 69 68 68 83 82 80 76 68 73 74 74 73 73 72 72
87 87 86 86 86 86 88 84 81 82 82 81 82 80 82 84 85 84 78 71 71 71 71 70 70 69 69 82 79 70 81 82 80 79 78 69 71 73 73 72 72 72 72
88 90 87 84 80 78 86 87 85 86 84 84 83 83 83 85 82 84 79 80 80 72 79 76 75 80 82 80 83 82 82 83 84 78 74 68 71 71 69 70 72 72 72
88 89 91 86 79 75 82 84 85 88 87 86 85 82 83 84 80 81 83 82 80 80 81 81 81 82 82 80 77 77 81 80 85 80 74 67 69 70 69 69 69 71 72
85 87 88 88 82 80 78 86 84 85 84 87 85 81 83 83 81 82 82 82 79 80 82 79 81 79 77 78 81 81 79 77 80 82 76 66 67 69 71 72 70 70 71
84 85 87 87 85 83 80 83 84 86 83 80 78 79 81 81 81 81 82 82 81 80 80 80 77 77 81 81 77 79 80 79 78 79 77 74 66 67 69 71 71 71 72
83 85 84 84 86 81 81 82 85 85 82 77 77 77 79 79 81 84 79 80 77 81 77 77 77 79 77 78 78 78 79 77 77 78 78 76 74 63 66 69 69 69 69
83 82 84 87 86 83 79 81 85 85 81 78 76 75 75 76 78 81 83 82 79 76 79 77 78 78 76 75 76 77 80 77 76 76 76 77 75 78 66 65 67 68 68
83 82 82 83 84 84 80 80 83 83 81 82 82 78 74 74 75 78 83 80 81 79 77 77 78 77 75 74 75 77 77 78 76 78 76 76 75 76 75 65 64 65 66
82 81 81 82 83 82 77 79 82 83 82 83 85 85 77 73 74 74 75 74 76 75 71 76 75 77 76 74 77 75 75 74 75 73 74 77 78 75 75 72 70 68 63
77 77 79 78 80 82 77 74 78 79 81 82 87 87 78 73 72 73 74 74 73 73 73 72 73 75 74 76 74 70 75 76 75 78 79 79 78 76 75 73 70 71 67
68 71 74 75 75 78 84 78 77 82 83 85 87 86 84 75 72 74 72 72 71 72 70 71 71 71 73 74 71 68 64 67 72 73 75 75 75 78 75 72 71 69 71
59 61 66 68 73 75 78 80 75 83 83 84 85 85 83 79 72 72 73 71 70 71 70 71 70 70 70 73 72 71 65 67 75 75 71 73 74 73 75 73 70 71 71
50 54 56 61 68 72 70 71 73 79 81 82 84 85 85 82 74 72 72 71 70 70 69 71 72 71 70 65 66 72 76 77 72 70 74 75 74 72 73 73 70 70 72
46 46 48 53 60 61 62 64 75 72 83 84 84 83 83 80 79 74 72 71 69 69 70 71 70 71 72 69 66 69 70 75 75 70 68 67 74 75 74 73 71 72 71
43 44 45 49 53 53 57 68 78 72 78 75 80 81 80 77 78 78 75 72 71 70 69 70 70 70 70 70 69 72 72 71 71 69 68 70 67 71 74 76 72 71 71

GFSSE_sfc_temp_129.txt.gz
Temp
77 75 74 75 75 75 75 75 75 75 75 76 76 76 76 76 76 76 76 77 77 78 79 78 78 78 78 78 77 76 76 76 76 77 77 78 79 78 77 76 76 77 76
78 76 73 75 75 75 75 75 75 75 75 76 75 75 75 76 76 76 76 77 77 78 79 78 78 78 78 77 76 75 75 74 74 75 77 78 78 78 78 76 75 75 75
78 76 76 74 75 75 75 75 75 76 76 76 75 75 75 76 76 76 76 76 77 78 79 78 78 78 77 76 75 74 74 74 74 75 75 73 75 77 76 75 74 75 75
80 76 75 74 74 75 75 75 75 76 76 76 75 75 76 76 76 76 76 75 77 78 78 78 78 78 76 75 74 74 74 73 72 74 71 71 76 76 76 75 75 75 75
80 79 76 73 73 74 74 75 75 75 75 75 75 76 76 76 76 76 75 75 76 77 78 79 78 77 75 74 73 73 74 72 72 70 69 70 71 76 76 75 75 74 74
81 80 72 72 73 74 74 74 75 74 74 74 74 75 76 76 76 75 75 75 76 77 78 78 77 75 73 73 73 73 73 71 70 68 68 70 71 75 76 75 74 74 73
76 75 74 71 72 74 75 74 74 74 73 73 74 74 75 75 75 75 74 75 75 76 76 76 75 73 72 72 72 72 71 70 71 67 67 68 69 74 76 75 74 73 73
77 75 74 73 73 73 73 73 73 73 73 73 73 73 74 74 74 74 74 74 74 75 75 74 73 73 72 72 71 71 70 70 72 67 68 67 70 74 76 75 73 73 72
78 74 72 72 73 72 71 71 71 72 72 72 72 72 73 73 72 73 73 73 74 74 73 73 72 71 71 71 71 69 68 69 69 67 70 70 74 75 75 75 73 72 72
75 76 72 71 71 70 70 70 70 71 71 71 72 71 71 71 72 72 72 73 73 73 73 72 71 71 71 70 70 69 68 69 70 69 70 70 73 76 76 74 74 72 71
71 71 73 72 72 72 71 71 71 71 71 70 71 71 69 71 71 72 72 71 72 71 71 71 70 70 70 69 69 68 69 68 69 68 66 70 74 76 75 74 73 72 72
70 70 71 71 72 72 77 71 69 71 69 70 71 70 70 70 71 73 71 70 70 70 70 70 70 69 67 67 67 68 67 68 68 67 66 70 73 76 75 73 72 72 71
70 68 68 72 71 71 72 70 70 70 69 70 70 70 70 72 71 71 69 71 69 69 69 68 69 68 68 67 66 66 68 69 67 67 67 69 72 74 74 72 71 70 70
70 70 70 68 72 70 71 70 71 72 71 70 70 70 70 70 69 69 69 69 69 68 67 67 67 67 67 69 69 68 69 70 69 66 66 67 70 72 73 72 71 69 70
68 70 70 70 67 72 70 71 69 71 72 72 71 71 71 70 69 69 69 70 69 68 68 67 67 68 67 68 69 72 72 70 70 66 65 66 67 70 72 72 72 71 70
62 62 63 66 70 68 70 70 70 70 72 72 73 73 72 71 69 70 70 70 70 70 69 69 68 68 67 68 69 73 73 73 71 68 65 65 65 67 70 72 72 72 72
58 59 60 61 63 64 68 71 72 71 71 69 73 73 73 71 69 70 70 69 70 71 68 69 67 67 66 69 70 71 73 73 72 70 66 65 64 64 66 69 70 71 72
54 54 57 60 60 60 62 67 70 69 71 71 71 71 73 73 71 69 70 69 70 69 69 68 66 65 68 69 68 70 72 73 72 69 68 66 65 66 64 66 68 69 70
51 51 52 54 55 56 57 60 66 71 70 70 69 71 70 72 71 72 71 69 70 69 66 68 65 66 65 68 68 68 69 70 70 72 69 67 65 64 64 64 65 65 67
50 50 50 51 52 54 54 57 60 66 68 70 71 70 71 71 71 71 69 68 70 69 68 67 66 64 64 64 70 69 67 66 68 68 70 70 68 66 65 64 64 64 63
49 48 48 47 49 50 51 51 53 55 63 66 69 73 72 71 71 71 68 68 69 68 68 68 65 65 63 64 65 64 66 67 67 67 69 65 67 67 65 64 64 64 63
45 45 46 46 46 48 49 50 51 53 58 61 67 71 71 72 71 71 71 69 70 69 67 66 66 63 64 64 62 59 56 59 63 65 63 64 63 65 65 65 64 63 64
41 42 44 45 44 45 47 49 51 52 56 57 61 66 71 71 72 71 71 70 67 68 67 67 66 66 63 63 63 60 56 54 57 60 61 62 62 62 64 64 64 64 63
38 40 41 41 41 44 45 46 46 47 50 54 57 61 66 71 71 71 72 71 69 68 67 67 68 66 65 62 61 64 61 60 56 55 59 60 61 62 61 62 64 64 64
37 39 40 40 40 42 44 46 48 49 51 52 55 59 61 67 71 71 72 71 72 70 68 68 68 69 67 66 64 60 61 59 61 58 54 57 59 61 62 62 63 64 64
36 36 37 37 39 40 43 46 46 46 48 50 53 56 58 62 68 71 71 71 71 70 69 69 69 68 68 67 65 61 61 63 60 57 56 55 58 58 64 64 62 63 63

GFSSE_sfc_temp_132.txt.gz
Temp
74 73 74 75 75 75 75 74 74 75 75 76 76 76 76 76 76 76 76 76 77 78 79 78 78 78 78 78 78 77 77 76 76 76 77 78 78 77 77 76 76 76 76
75 74 73 75 75 75 75 75 75 75 75 76 76 76 75 76 76 76 76 76 77 78 78 78 78 78 78 77 76 76 75 74 74 75 76 78 77 77 77 75 75 75 75
74 74 75 74 75 75 75 75 75 75 76 76 75 75 75 76 76 76 76 76 77 78 78 78 78 78 77 76 75 75 74 74 74 75 75 71 73 77 76 75 74 75 75
76 74 74 74 74 75 74 75 75 76 76 75 75 75 76 76 76 76 75 75 76 77 78 78 78 78 76 74 74 74 74 73 70 71 70 71 75 77 75 75 75 75 75
76 76 75 73 73 74 74 74 74 75 74 75 75 75 76 76 76 76 75 75 76 77 78 78 78 76 74 73 73 73 73 70 71 71 70 71 71 75 75 75 75 75 74
77 77 71 71 72 74 74 74 74 74 73 74 74 75 76 76 76 75 74 75 76 77 77 77 76 74 72 72 72 72 72 70 70 69 68 72 71 73 71 73 74 74 73
73 73 73 69 71 73 74 74 74 73 73 73 74 74 75 75 75 74 74 74 75 75 76 76 74 73 72 71 72 72 70 69 68 67 67 69 70 72 74 75 74 73 73
72 72 73 73 72 72 73 73 72 72 72 72 73 73 74 74 74 74 73 73 74 74 74 74 73 72 72 71 71 70 69 70 69 67 67 66 71 74 76 75 73 73 72
72 71 71 71 72 72 71 71 70 71 71 72 72 72 72 72 72 73 73 73 73 73 73 73 72 71 71 71 70 69 67 69 67 65 67 65 71 73 75 75 73 72 72
69 69 70 69 70 70 70 70 70 70 70 70 71 71 70 71 71 72 71 72 73 72 72 72 71 70 70 70 69 67 67 68 67 66 66 67 71 74 76 75 74 72 71
67 66 67 70 69 69 69 71 71 71 70 70 70 70 69 71 71 71 71 71 71 71 71 71 70 69 69 69 68 68 68 67 67 66 66 69 73 76 76 74 72 72 71
68 67 65 66 69 70 73 70 69 70 70 71 71 71 71 69 70 72 70 69 70 70 70 70 69 68 68 67 67 68 66 67 67 66 65 69 73 76 75 73 72 72 71
60 60 61 64 62 66 69 69 68 68 68 69 69 71 70 70 69 70 69 70 69 69 69 68 67 69 67 66 65 65 66 67 66 65 67 68 72 75 75 74 73 72 71
57 57 58 60 61 62 63 68 68 68 68 68 69 69 70 69 68 68 68 68 69 69 67 67 68 67 66 66 66 66 66 66 65 65 66 67 70 73 74 74 73 72 71
54 55 55 57 58 59 61 63 67 68 68 69 69 70 70 69 68 68 68 68 69 68 67 66 66 66 66 66 67 67 67 68 67 65 65 66 67 70 73 73 73 73 71
53 52 53 54 56 56 57 58 60 67 69 68 69 70 70 70 69 68 68 68 68 68 67 66 66 65 65 65 66 67 68 71 69 66 65 65 65 67 70 72 73 72 72
50 51 51 52 53 53 54 55 56 59 66 68 69 70 70 71 69 69 68 68 68 68 67 66 65 65 64 66 66 65 71 71 70 67 66 66 64 64 65 68 71 71 72
49 49 50 52 50 50 51 52 54 55 60 66 68 70 70 71 71 69 69 69 69 68 67 66 66 65 65 65 64 66 69 71 71 69 66 66 65 65 64 65 67 69 70
48 48 48 48 47 48 48 50 52 54 55 63 67 67 71 71 71 71 70 69 68 68 67 67 66 66 64 65 65 66 67 69 69 70 66 66 65 64 64 64 65 65 67
45 46 45 46 47 47 46 48 50 51 52 54 59 67 70 72 71 70 70 69 68 68 67 67 66 65 65 67 69 67 63 66 67 67 67 68 66 64 64 63 64 64 63
42 42 42 43 44 44 43 43 45 45 48 50 56 61 67 70 72 70 69 68 69 68 68 67 66 65 62 63 65 63 65 65 65 66 67 67 65 64 63 62 63 64 64
39 39 40 41 42 42 42 43 44 45 47 50 52 58 64 64 69 71 70 68 69 69 67 66 66 62 64 64 62 62 59 61 62 64 65 63 63 64 63 63 63 63 63
36 37 38 39 40 41 42 42 44 45 47 48 52 55 59 63 64 70 69 69 68 68 67 66 67 66 63 61 63 60 55 55 56 59 60 60 61 61 63 63 62 62 62
36 37 37 39 40 42 42 42 40 41 42 47 50 53 54 60 62 65 69 69 68 68 67 67 68 67 67 64 60 62 60 58 55 53 57 59 60 61 61 62 63 62 62
36 36 38 39 39 40 40 41 41 42 46 49 50 50 52 55 60 62 60 66 69 68 68 68 67 67 67 66 65 61 61 59 58 55 53 55 57 60 62 62 62 63 63
36 38 37 37 38 40 40 40 41 42 44 46 47 48 51 54 57 60 61 58 67 68 67 67 67 67 66 67 65 63 65 62 56 56 54 54 56 58 62 62 61 62 63

GFSSE_sfc_temp_135.txt.gz
Temp
73 72 74 75 75 75 75 74 74 75 75 76 76 76 76 76 76 76 76 76 77 78 78 78 78 78 78 78 78 77 76 76 75 76 76 77 77 77 76 75 75 75 76
73 73 73 74 75 75 75 75 74 75 75 76 76 75 75 76 76 76 76 76 77 78 78 78 78 78 78 77 76 76 75 74 74 75 76 77 77 77 76 74 75 75 75
73 73 74 73 75 75 75 75 75 75 75 76 75 75 75 76 76 76 76 76 77 78 78 78 78 78 77 76 75 75 75 74 73 75 75 71 73 76 77 75 74 75 75
74 73 73 73 74 75 74 75 75 75 75 75 75 75 75 76 76 75 75 75 76 77 78 78 78 77 76 74 74 74 74 72 72 73 70 70 73 74 75 75 75 75 75
74 74 74 72 73 74 74 74 74 74 74 75 75 75 76 76 76 75 75 75 76 77 78 78 78 76 74 73 73 73 72 71 71 71 69 69 71 75 76 75 75 74 74
74 75 71 71 72 74 74 74 74 74 73 73 74 75 75 76 76 75 74 75 76 76 77 77 76 74 72 72 72 72 70 71 71 68 68 71 71 75 74 72 73 73 73
71 71 71 70 71 73 74 74 74 73 73 73 73 74 75 75 75 74 73 74 75 76 76 76 74 73 72 71 72 71 69 69 68 66 67 67 69 74 74 73 73 73 73
71 71 71 72 71 72 73 73 72 72 72 72 73 73 74 74 74 74 73 73 73 74 74 74 73 72 72 71 71 70 68 69 69 66 66 66 71 74 74 74 73 73 73
69 67 68 69 71 71 69 70 70 71 71 72 72 72 72 72 72 73 73 73 73 73 73 73 72 71 71 71 70 68 67 69 66 65 66 64 72 74 76 75 74 73 73
63 62 62 64 69 69 69 69 69 69 70 70 71 71 70 70 71 71 71 72 72 72 72 72 71 70 70 69 69 67 67 68 66 65 65 64 71 74 76 74 73 72 72
59 59 59 60 61 61 69 71 71 71 70 69 70 70 69 70 70 71 70 70 71 71 71 71 70 69 69 69 68 67 67 66 66 65 65 68 71 74 75 74 73 72 71
54 55 56 57 56 57 64 62 68 69 70 69 72 71 72 72 69 71 70 69 70 70 70 69 69 68 68 66 66 67 65 66 66 65 65 67 70 74 76 74 73 73 71
53 54 53 54 56 54 56 57 58 66 67 69 70 70 71 71 70 70 69 69 69 69 68 68 67 67 67 65 66 65 65 65 65 65 66 67 72 75 76 74 73 72 71
51 51 51 52 53 53 55 54 53 55 64 68 69 69 69 69 69 70 70 70 70 70 69 67 67 69 66 65 65 65 65 65 64 65 65 66 70 74 75 74 73 73 71
49 49 49 51 51 51 52 53 53 52 55 60 68 70 70 70 69 70 70 70 71 71 69 68 69 67 65 65 65 65 65 65 65 64 64 66 67 71 74 75 74 73 72
49 48 49 49 50 49 49 50 51 53 52 54 60 69 70 71 70 70 70 69 70 70 69 69 67 65 65 65 65 65 66 66 66 64 64 64 65 67 71 73 73 73 73
46 47 46 48 48 47 47 48 49 51 52 51 55 61 69 70 71 69 70 69 70 70 69 67 65 64 64 64 65 64 65 66 68 65 64 64 64 64 66 69 71 72 72
43 44 45 47 45 46 46 46 48 49 50 51 52 58 64 68 71 70 69 70 70 69 68 67 65 64 64 64 64 64 64 65 69 68 66 66 63 64 63 65 67 69 70
42 42 42 43 43 43 44 44 45 47 48 50 51 52 57 64 69 70 68 70 69 68 67 67 65 65 63 63 64 63 64 65 68 68 66 65 66 64 63 63 64 65 67
41 41 41 42 42 42 42 43 43 44 46 47 48 50 55 57 62 69 69 68 68 68 67 66 65 65 64 64 66 63 63 64 66 67 66 67 66 65 63 63 63 63 63
39 39 39 39 40 40 39 38 39 39 41 44 46 50 52 53 59 65 68 67 68 67 67 66 65 63 62 64 62 59 60 62 62 64 66 65 65 65 62 62 63 63 63
37 37 38 38 39 41 40 41 41 41 42 43 45 47 50 53 59 62 66 67 67 67 67 65 65 64 64 63 62 61 57 60 61 62 62 63 63 63 62 62 62 62 63
35 35 37 39 40 40 42 42 42 42 43 43 45 46 51 55 55 58 61 65 66 67 66 65 66 64 63 61 62 60 54 55 56 58 60 61 61 62 62 62 61 62 62
35 37 39 39 39 41 41 40 39 38 37 41 43 47 50 53 53 56 59 62 64 66 67 66 66 65 64 62 59 60 60 58 56 54 56 58 59 60 61 62 62 62 62
35 37 39 39 39 39 40 40 38 38 40 43 45 46 48 49 51 54 57 60 59 59 64 66 65 64 65 64 64 59 60 58 56 54 53 55 57 59 60 62 62 62 62
37 37 37 37 37 38 38 39 37 37 38 41 43 45 47 48 50 54 58 58 59 58 60 63 65 65 64 64 64 65 65 63 58 56 53 53 57 57 60 60 60 61 62

GFSSE_sfc_temp_138.txt.gz
Temp
72 72 74 75 75 75 74 74 74 75 75 76 76 76 76 76 76 76 76 76 77 78 79 78 78 78 78 78 78 77 76 76 75 76 76 78 77 77 77 76 75 76 76
72 72 73 74 75 75 75 74 74 75 76 76 76 76 76 76 76 76 76 76 77 78 79 78 78 78 78 77 77 76 76 74 74 75 76 77 77 78 77 76 75 75 76
72 72 73 73 75 75 75 75 75 75 76 76 76 76 76 76 76 76 76 76 77 78 78 78 78 78 77 76 75 75 75 74 74 74 75 73 74 77 77 76 75 75 75
73 72 72 73 74 74 74 74 75 75 75 75 75 76 76 76 76 76 75 75 76 77 78 78 78 78 76 75 74 74 74 73 73 73 71 72 74 76 77 76 76 76 75
73 74 73 72 73 74 74 74 74 74 74 74 75 76 76 76 76 75 75 74 76 77 78 78 78 76 74 73 73 73 72 71 71 71 70 70 71 75 76 76 76 75 74
72 73 71 71 72 74 74 74 74 74 73 74 74 75 76 76 76 75 74 74 75 77 77 78 76 74 73 72 72 72 71 71 70 69 69 72 71 76 76 75 74 74 73
67 68 71 70 71 72 73 74 73 73 72 73 73 74 75 75 75 74 73 73 75 76 76 76 75 73 72 71 72 70 70 70 68 67 68 69 70 75 76 75 74 74 72
61 62 64 67 68 69 71 71 71 71 70 72 73 73 74 74 74 74 73 73 73 74 74 74 73 72 72 71 71 69 69 69 69 67 67 68 70 75 76 75 73 72 72
58 59 59 60 63 64 67 69 69 70 71 71 70 72 72 72 72 72 73 73 72 72 72 73 72 71 71 71 70 68 67 68 66 66 67 66 72 74 75 75 73 73 72
56 55 55 57 58 58 60 65 66 70 69 70 70 70 70 70 71 71 71 72 72 72 72 72 71 70 70 70 69 67 67 68 67 65 65 65 70 74 75 73 74 73 72
54 53 53 53 55 55 59 61 61 64 69 70 69 68 67 69 69 70 70 70 71 71 71 71 70 69 69 69 68 67 67 67 67 65 64 67 70 74 76 74 73 73 73
50 50 51 51 51 52 58 55 54 58 62 68 69 70 68 69 71 69 70 69 70 70 70 70 69 68 68 67 67 67 66 67 66 66 65 68 70 74 75 73 73 72 73
49 49 49 50 50 49 51 52 52 52 53 58 66 69 69 70 69 70 69 69 68 68 68 68 67 67 67 66 66 65 66 66 66 66 66 67 69 73 75 74 73 73 72
47 47 48 49 49 49 49 49 48 49 51 52 54 60 68 68 68 68 69 70 70 70 69 68 67 68 69 65 65 65 65 65 65 65 65 65 68 73 75 75 74 73 72
44 45 46 47 47 47 47 48 48 47 48 49 51 54 61 67 68 69 69 69 69 70 70 68 68 69 67 65 65 65 65 65 65 65 65 65 66 71 74 75 75 74 73
44 43 45 45 46 45 45 46 46 47 47 48 49 52 55 59 67 68 68 68 68 70 69 69 69 68 67 65 65 65 65 65 66 65 65 66 65 67 70 73 74 74 74
41 42 43 44 44 43 43 44 45 45 46 46 48 50 52 56 59 66 68 67 68 70 69 68 68 67 66 65 65 65 65 65 66 65 65 65 65 64 66 69 71 72 72
40 40 42 44 42 42 42 42 43 44 44 45 46 48 50 52 56 59 66 67 68 68 68 67 67 65 65 65 64 64 65 65 66 66 65 65 65 66 64 66 68 69 70
40 40 40 41 40 40 41 41 42 42 43 44 45 46 47 50 53 56 58 67 68 67 67 67 66 66 65 65 64 63 64 64 65 67 65 65 64 64 64 64 65 65 67
39 39 39 40 40 40 41 41 41 41 42 43 43 44 46 48 51 52 54 59 67 67 67 67 66 65 66 65 64 63 63 64 65 65 66 67 66 65 64 64 65 65 63
38 38 38 38 40 39 39 39 40 39 41 43 44 45 45 46 48 49 51 57 64 64 66 67 66 65 64 64 61 60 61 61 62 65 65 66 65 65 64 64 64 64 64
36 36 38 39 39 41 41 41 41 41 42 43 45 46 47 47 49 51 53 57 60 62 60 66 65 64 64 64 62 61 58 59 61 63 63 64 64 65 64 64 63 63 64
34 36 38 39 40 40 41 40 41 41 42 41 43 44 45 47 48 49 52 53 56 60 64 65 65 65 63 63 63 60 55 57 57 59 62 63 63 63 63 63 62 63 63
35 38 39 39 39 40 40 39 38 36 36 39 40 44 46 47 48 50 51 51 54 59 61 64 65 65 65 62 63 63 61 59 57 54 57 60 62 62 62 62 62 62 63
37 38 38 38 39 39 39 39 37 36 38 39 40 41 45 47 49 49 49 50 52 57 58 62 63 63 64 64 62 62 58 57 57 56 54 56 59 60 63 63 63 62 62
36 37 37 37 37 38 38 38 37 36 36 37 39 40 44 47 48 50 50 50 55 56 56 58 62 60 61 64 64 64 64 62 56 56 54 54 58 57 61 62 61 62 63